     2              OBSERVATION DATA    GPS                 RINEX VERSION / TYPE
teqc 2000Jul20 Karen Wendt 20030320 21:28:26UTC             PGM / RUN BY / DATE
                                                            COMMENT
L2: 1 -> 1; 150 -> 5; 250 -> 9                              COMMENT
L2: 1 -> 1; 150 -> 5; 250 -> 9                              COMMENT
L2: 1 -> 1; 150 -> 5; 250 -> 9                              COMMENT
L2: 1 -> 1; 150 -> 5; 250 -> 9                              COMMENT
L2: 1 -> 1; 150 -> 5; 250 -> 9                              COMMENT
L2: 1 -> 1; 150 -> 5; 250 -> 9                              COMMENT
L2: 1 -> 1; 150 -> 5; 250 -> 9                              COMMENT
L2: 1 -> 1; 150 -> 5; 250 -> 9                              COMMENT
L2: 1 -> 1; 150 -> 5; 250 -> 9                              COMMENT
L2: 1 -> 1; 150 -> 5; 250 -> 9                              COMMENT
L2: 1 -> 1; 150 -> 5; 250 -> 9                              COMMENT
L2: 1 -> 1; 150 -> 5; 250 -> 9                              COMMENT
L2: 1 -> 1; 150 -> 5; 250 -> 9                              COMMENT
L2: 1 -> 1; 150 -> 5; 250 -> 9                              COMMENT
Original Marker Name: joaq Joaquin_1986_NCER                COMMENT
Campaign Name: USGS 2003                                    COMMENT
4-Character Station Name: JOAQ                              COMMENT
6-Character Antenna Code: DMRCHT                            COMMENT
Vertical Measurement Point: BCR                             COMMENT
Vertical Offset to Rinex Ref. Point: 0.0348                 COMMENT
Radial Measurement Point: ECF                               COMMENT
Radial Offset to Rinex Ref. Point: 0.1897                   COMMENT
Antenna Height from Field Measurement: 1.3740 m             COMMENT
Additional Antenna Identification Info.:                    COMMENT
Turborogue and Ashtech Choke Ring                           COMMENT
Original XYZ: -2620061.7863 -4459558.8289 3720330.9632      COMMENT
New XYZ position is based on association with SCEC monument COMMENT
E1F1N2V1+0011. Position of that monument is believed to be  COMMENT
valid to within 1 m horizontally; vertical accuracy         COMMENT
should be no worse than 3-times this value.                 COMMENT
                                                            COMMENT
Revised Rinex header created by UCSD GPS archive for        COMMENT
GSAC on 11-Jul-2003 (2003:192) 16:26:26 GMT                 COMMENT
For assistance contact dagnew@ucsd.edu                      COMMENT
or anderson@python.ucsd.edu                                 COMMENT
                                                            COMMENT
JOAQUIN 1986                                                MARKER NAME
CHS US GEOLOGICAL SURVEY                                    OBSERVER / AGENCY
LP03360 ASHTECH Z-XII3 CC00                                 REC # / TYPE / VERS
CR14244 DORNE-MARGOL. TYPE T                                ANT # / TYPE
 -2620078.2711 -4459533.7170  3720318.2278                  APPROX POSITION XYZ
        1.3260        0.0000        0.0000                  ANTENNA: DELTA H/E/N
     1     1     0                                          WAVELENGTH FACT L1/2
     5    C1    L1    L2    P1    P2                        # / TYPES OF OBSERV
    30                                                      INTERVAL
  2003     3    18    16    40    0.000000                  TIME OF FIRST OBS
  2003     3    18    23    43    0.000000                  TIME OF LAST OBS
                                                            END OF HEADER
 03  3 18 16 40  0.0000000  0  3G 4G 7G 9
                   -116642.18049    -84747.59943
  21541769.109      100937.61649     72402.69947  21541767.865    21541774.736
  20904010.483     -103790.06549    -75505.12447  20904010.295    20904016.164
 03  3 18 16 40 30.0000000  0  5G28G 4G24G 7G 9
  23376201.546      165158.10649    116096.48145  23376200.743    23376208.919
                   -163808.02249     -7092.66945
  20572176.162     -316282.39049   -232372.92943
  21549539.274      141768.36749    104218.78647  21549537.645    21549544.592
  20896053.512     -145604.02649   -108087.45847  20896053.373    20896059.256
 03  3 18 16 41  0.0000000  0  5G28G 4G24G 7G 9
  23549549.495     -499312.21849   -401672.79245  23549548.937    23549557.125
  20726015.851     -930761.89149   -604719.11647  20726015.438
  20726021.490    -1139152.70149   -624680.68546                  21916542.898
  21720040.893     -537659.09649   -425205.29047  21720039.360    21720046.343
  21050913.776     -907228.85649   -701561.39147  21050913.456    21050919.346
 03  3 18 16 41 30.0000000  0  5G28G 4G24G 7G 9
  23563491.478     -426046.93049   -344583.16545  23563490.935    23563499.019
  20720534.191     -959567.34949   -627164.96047  20720534.053    20720540.034
  21900364.923    -1224128.26349   -690895.37647  21900364.853    21900372.492
  21731125.607     -479407.46649   -379814.48847  21731124.336    21731131.363
  21046442.156     -930727.54449   -719872.08947  21046441.851    21046447.731
 03  3 18 16 42  0.0000000  0  5G28G 4G24G 7G 9
  23577468.020     -352600.34649   -287352.26045  23577467.429    23577475.513
  20715166.357     -987775.22449   -649145.15448  20715166.279    20715172.261
  21884260.575    -1308757.52849   -756840.22247  21884260.362    21884268.173
  21742234.113     -421031.25849   -334326.60747  21742232.985    21742240.080
  21042079.987     -953651.26449   -737734.76447  21042079.671    21042085.524
 03  3 18 16 42 30.0000000  0  5G28G 4G24G 7G 9
  23591480.179     -278966.19449   -229975.16245  23591479.609    23591487.685
  20709913.721    -1015378.22749   -670654.01348  20709913.655    20709919.618
  21868223.799    -1393031.69149   -822508.37347  21868223.564    21868231.313
  21753367.314     -362525.60749   -288737.86547  21753366.288    21753373.437
  21037828.545     -975992.88749   -755143.85547  21037828.254    21037834.152
 03  3 18 16 43  0.0000000  0  5G28G 4G24G 7G 9
  23605527.936     -205144.68549   -172452.11345  23605527.383    23605535.567
  20704776.279    -1042375.59649   -691690.95548  20704776.232    20704782.260
  21852255.076    -1476948.14049   -887897.77847  21852254.799    21852262.567
  21764524.984     -303891.65649   -243049.14647  21764524.043    21764531.217
  21033688.087     -997751.31649   -772098.50347  21033687.801    21033693.713
 03  3 18 16 43 30.0000000  0  5G28G 4G24G 7G 9
  23619611.456     -131136.07849   -114783.28645  23619610.903    23619619.212
  20699754.341    -1068766.17749   -712255.07848  20699754.288    20699760.337
  21836354.753    -1560504.92449   -953006.93347  21836354.417    21836362.192
  21775706.802     -245130.82249   -197261.56947  21775705.912    21775713.091
  21029658.749    -1018925.74449   -788598.08647  21029658.460    21029664.402
 03  3 18 16 44  0.0000000  0  5G28G 4G24G 7G 9
  23633730.169      -56941.74849    -56969.72145  23633729.709    23633737.963
  20694847.803    -1094550.67849   -732346.92848  20694847.745    20694853.720
  21820523.218    -1643700.34349  -1017834.51647  21820522.876    21820530.576
  21786912.389     -186245.50049   -151376.97547  21786911.515    21786918.632
  21025740.404    -1039516.71949   -804643.02747  21025740.123    21025746.108
 03  3 18 16 44 30.0000000  0  5G28G 4G24G 7G 9
  23647885.139       17441.99749       991.43745  23647884.619    23647892.871
  20690057.550    -1119723.99649   -751962.52748  20690057.481    20690063.410
  21804761.509    -1726528.27049  -1082375.72447  21804761.188    21804768.905
  21798142.189     -127233.09349   -105393.34647  21798141.281    21798148.373
  21021934.051    -1059519.53349   -820229.66347  21021933.758    21021939.724
 03  3 18 16 45  0.0000000  0  5G28G 4G24G 7G 9
  23662075.350       92010.43249     59096.48845  23662074.806    23662083.086
  20685382.831    -1144289.88449   -771104.80648  20685382.787    20685388.711
  21789069.571    -1808990.01749  -1146631.62047  21789069.231    21789076.959
  21809395.125      -68099.10949    -59314.99547  21809394.181    21809401.250
  21018238.928    -1078937.71749   -835360.75247  21018238.646    21018244.573
 03  3 18 16 45 30.0000000  0  5G28G 4G24G 7G 9
  23676301.297      166767.49249    117348.54345  23676300.678    23676309.062
  20680824.610    -1168243.46049   -789769.95548  20680824.583    20680830.527
  21773448.483    -1891079.08649  -1210597.11147  21773448.156    21773455.863
  21820671.679       -8840.97949    -13139.89847  21820670.724    21820677.768
  21014656.022    -1097766.36749   -850032.45747  21014655.727    21014661.663
 03  3 18 16 46  0.0000000  0  5G28G 4G24G 7G 9
  23690562.638      241710.23749    175745.26245  23690561.985    23690570.467
  20676382.595    -1191586.63349   -807959.46148  20676382.578    20676388.536
  21757898.268    -1972796.17049  -1274272.75447  21757897.891    21757905.641
  21831971.108       50537.72249     33129.13947  21831970.211    21831977.261
  21011184.860    -1116007.54349   -864246.39347  21011184.580    21011190.504
 03  3 18 16 46 30.0000000  0  6G28G 4G24G 7G 9G 5
  23704859.023      316837.23449    234285.58645  23704858.388    23704866.926
  20672056.682    -1214319.74149   -825673.58948  20672056.633    20672062.619
  21742419.073    -2054139.94949  -1337657.51247  21742418.696    21742426.414
  21843292.978      110034.31749     79490.05547  21843292.143    21843299.156
  21007825.401    -1133661.82949   -878003.00447  21007825.105    21007831.061
  22995581.158     -825234.84349   -619090.48846  22995580.511    22995588.014
 03  3 18 16 47  0.0000000  0  6G28G 4G24G 7G 9G 5
  23719191.393      392153.38049    292973.27745  23719190.885    23719199.381
  20667847.842    -1236437.12949   -842907.93948  20667847.857    20667853.849
  21727012.431    -2135102.63749  -1400745.31847  21727012.013    21727019.772
  21854638.107      169652.84249    125945.97347  21854637.259    21854644.270
  21004578.678    -1150723.45949   -891297.81447  21004578.403    21004584.351
  22979871.192     -907796.50449   -683424.27446  22979869.557    22979876.994
 03  3 18 16 47 30.0000000  0  6G28G 4G24G 7G 9G 5
  23733559.049      467655.03649    351805.55145  23733558.479    23733567.057
  20663755.718    -1257941.51149   -859664.61048  20663755.720    20663761.731
  21711677.927    -2215685.62149  -1463537.25247  21711677.578    21711685.318
  21866005.573      229388.72949    172493.35147  21866004.690    21866011.748
  21001444.297    -1167195.09449   -904132.87847  21001444.013    21001449.986
  22964173.105     -990288.52249   -747703.77046  22964171.865    22964179.334
 03  3 18 16 48  0.0000000  0  6G28G 4G24G 7G 9G 5
  23747961.967      543341.82849    410782.04445  23747961.379    23747970.084
  20659780.391    -1278832.19149   -875943.07448  20659780.412    20659786.409
  21696416.300    -2295886.14049  -1526031.16547  21696415.954    21696423.709
  21877395.012      289240.68249    219131.16947  21877394.185    21877401.317
  20998422.244    -1183076.12149   -916507.73047  20998421.995    20998427.963
  22948488.641    -1072709.93849   -811928.26646  22948487.662    22948495.068
 03  3 18 16 48 30.0000000  0  6G28G 4G24G 7G 9G 5
  23762400.098      619214.71549    469903.58645  23762399.543    23762408.250
  20655922.129    -1299107.54949   -891742.06948  20655922.142    20655928.164
  21681228.140    -2375700.60549  -1588224.26347  21681227.808    21681235.512
  21888806.544      349208.67549    265859.40047  21888805.765    21888812.917
  20995512.971    -1198364.82949   -928421.04147  20995512.709    20995518.694
  22932818.211    -1155058.25949   -876095.82546  22932817.371    22932824.686
 03  3 18 16 49  0.0000000  0  6G28G 4G24G 7G 9G 5
  23776873.678      695273.50749    529169.97245  23776873.103    23776882.059
  20652181.183    -1318766.60549   -907060.82148  20652181.222    20652187.225
  21666113.932    -2455126.58749  -1650114.65547  21666113.592    21666121.254
  21900239.973      409291.68549    312677.26947  21900239.240    21900246.431
  20992716.514    -1213060.48649   -939872.23047  20992716.265    20992722.219
  22917161.962    -1237332.24749   -940205.45046  22917161.189    22917168.472
 03  3 18 16 49 30.0000000  0  6G28G 4G24G 7G 9G 5
  23791382.349      771516.49849    588579.90845  23791381.819    23791390.847
  20648557.283    -1337810.31349   -921900.07848  20648557.341    20648563.302
  21651073.832    -2534163.21049  -1711701.63847  21651073.464    21651081.134
  21911694.790      469487.08149    359582.69247  21911694.060    21911701.272
  20990032.770    -1227163.86549   -950861.90347  20990032.513    20990038.458
  22901519.855    -1319532.49849  -1004257.61146  22901519.048    22901526.360
 03  3 18 16 50  0.0000000  0  6G28G 4G24G 7G 9G 5
  23805926.237      847944.54349    648134.01745  23805925.790    23805934.796
  20645050.820    -1356237.20149   -936258.69948  20645050.859    20645056.816
  21636108.444    -2612806.95249  -1772982.49147  21636108.124    21636115.738
  21923170.972      529794.56349    406575.46447  21923170.215    21923177.487
  20987461.974    -1240673.67849   -961389.05947  20987461.703    20987467.677
  22885892.117    -1401656.70349  -1068250.51946  22885891.337    22885898.717
 03  3 18 16 50 30.0000000  0  6G28G 4G24G 7G 9G 5
  23820505.345      924557.09649    707831.91345  23820504.798    23820513.878
  20641661.838    -1374046.74349   -950136.26448  20641661.865    20641667.833
  21621218.220    -2691055.76249  -1833955.59747  21621217.892    21621225.550
  21934668.304      590213.02149    453654.71047  21934667.526    21934674.864
  20985004.189    -1253589.48749   -971453.35747  20985003.934    20985009.911
  22870279.144    -1483703.65149  -1132183.21646  22870278.356    22870285.706
 03  3 18 16 51  0.0000000  0  6G28G 4G24G 7G 9G 5
  23835119.436     1001354.25749    767673.65245  23835118.890    23835128.083
  20638390.459    -1391238.09349   -963532.12448  20638390.469    20638396.420
  21606403.768    -2768906.66149  -1894618.65647  21606403.408    21606411.013
  21946186.594      650741.76249    500819.87747  21946185.822    21946193.194
  20982659.736    -1265910.14249   -981053.89847  20982659.437    20982665.444
  22854681.155    -1565671.84449  -1196054.55046  22854680.344    22854687.731
 03  3 18 16 51 30.0000000  0  6G28G 4G24G 7G 9G 5
  23849768.719     1078335.63049    827658.95845  23849768.219    23849777.334
  20635236.741    -1407810.95249   -976446.04148  20635236.763    20635242.731
  21591665.331    -2846357.60249  -1954970.03747  21591664.971    21591672.648
  21957725.684      711379.42849    548069.93447  21957724.903    21957732.267
  20980428.548    -1277635.35149   -990190.45548  20980428.262    20980434.276
  22839098.220    -1647560.25549  -1259863.71846  22839097.482    22839104.907
 03  3 18 16 52  0.0000000  0  6G28G 4G24G 7G 9G 5
  23864453.131     1155501.71949    887788.15145  23864452.622    23864461.827
  20632200.988    -1423764.10349   -988877.06948  20632201.024    20632206.984
  21577003.540    -2923405.57349  -2015007.43147  21577003.192    21577010.886
  21969285.409      772125.59549    595404.53647  21969284.630    21969291.963
  20978310.885    -1288764.13349   -998862.26248  20978310.588    20978316.591
  22823530.874    -1729366.89449  -1323609.14346  22823530.189    22823537.694
 03  3 18 16 52 30.0000000  0  6G28G 4G24G 7G 9G 5
  23879172.559     1232851.33249    948060.38945  23879172.033    23879181.099
  20629283.090    -1439098.03549  -1000825.59348  20629283.114    20629289.064
  21562418.849    -3000048.95149  -2074729.54947  21562418.498    21562426.204
  21980865.400      832978.35949    642822.19547  21980864.634    21980871.955
  20976306.575    -1299296.80649  -1007069.57148  20976306.285    20976312.337
  22807979.296    -1811091.25449  -1387290.47446  22807978.595    22807986.070
 03  3 18 16 53  0.0000000  0  6G28G 4G24G 7G 9G 5
  23893926.854     1310384.42049   1008475.57545  23893926.269    23893935.423
  20626483.102    -1453811.99349  -1012291.01748  20626483.133    20626489.115
  21547911.549    -3076285.35949  -2134134.54747  21547911.211    21547918.917
  21992465.489      893936.79549    690322.19347  21992464.713    21992472.051
  20974415.839    -1309232.73649  -1014811.88247  20974415.564    20974421.635
  22792443.542    -1892732.05449  -1450906.67046  22792442.840    22792450.403
 03  3 18 16 53 30.0000000  0  6G28G 4G24G 7G 9G 5
  23908715.878     1388101.01649   1069033.76945  23908715.310    23908724.646
  20623801.257    -1467905.54649  -1023273.00948  20623801.229    20623807.224
  21533482.172    -3152112.21749  -2193220.41247  21533481.821    21533489.568
  22004085.516      954999.96849    737903.81147  22004084.719    22004092.077
  20972638.756    -1318571.53249  -1022088.89347  20972638.484    20972644.543
  22776924.016    -1974287.74249  -1514456.55746  22776923.354    22776930.885
 03  3 18 16 54  0.0000000  0  6G28G 4G24G 7G 9G 5
  23923540.007     1466000.76549   1129734.64545  23923539.378    23923548.724
  20621237.495    -1481378.17949  -1033771.17048  20621237.484    20621243.455
  21519131.165    -3227527.28449  -2251985.41047  21519130.836    21519138.552
  22015725.285     1016167.05049    785566.38647  22015724.471    22015731.880
  20970975.448    -1327312.46349  -1028900.03748  20970975.186    20970981.236
  22761420.923    -2055757.02649  -1577939.11846  22761420.277    22761427.781
 03  3 18 16 54 30.0000000  0  6G28G 4G24G 7G 9G 5
  23938398.641     1544083.24849   1190577.91045  23938398.071    23938407.642
  20618791.966    -1494229.56549  -1043785.23948  20618791.957    20618797.947
  21504859.022    -3302527.78349  -2310427.36347  21504858.716    21504866.467
  22027384.628     1077436.97049    833309.10247  22027383.809    22027391.262
  20969426.023    -1335455.07949  -1035244.96548  20969425.759    20969431.792
  22745934.533    -2137138.45049  -1641353.21346  22745933.957    22745941.422
 03  3 18 16 55  0.0000000  0  6G28G 4G24G 7G 9G 5
  23953292.112     1622348.12249   1251563.29345  23953291.521    23953301.115
  20616464.683    -1506459.40649  -1053314.99348  20616464.718    20616470.687
  21490666.219    -3377111.66949  -2368544.68547  21490665.902    21490673.641
  22039063.237     1138808.39449    881130.90647  22039062.474    22039069.943
  20967990.491    -1342999.21149  -1041123.54148  20967990.222    20967996.275
  22730465.175    -2218430.91049  -1704697.97646  22730464.487    22730472.008
 03  3 18 16 55 30.0000000  0  6G28G 4G24G 7G 9G 5
  23968220.257     1700794.94249   1312690.45245  23968219.657    23968229.192
  20614255.753    -1518067.78449  -1062360.49148  20614255.758    20614261.697
  21476553.075    -3451276.88349  -2426335.76947  21476552.792    21476560.500
  22050761.060     1200280.28949    929031.00747  22050760.276    22050767.781
  20966668.821    -1349944.82249  -1046535.73348  20966668.557    20966674.598
  22715012.893    -2299633.11449  -1767972.41146  22715012.214    22715019.759
 03  3 18 16 56  0.0000000  0  6G28G 4G24G 7G 9G 5
  23983183.057     1779423.62749   1373959.34345  23983182.428    23983192.028
  20612165.131    -1529054.15049  -1070921.30948  20612165.145    20612171.095
  21462520.033    -3525021.24249  -2483798.92147  21462519.717    21462527.377
  22062477.709     1261851.49949    977008.49747  22062476.935    22062484.483
  20965461.124    -1356291.53549  -1051481.25648  20965460.843    20965466.893
  22699577.969    -2380743.88049  -1831175.60146  22699577.370    22699584.894
 03  3 18 16 56 30.0000000  0  6G28G 4G24G 7G 9G 5
  23998180.255     1858234.05249   1435369.80445  23998179.596    23998189.522
  20610192.940    -1539417.95349  -1078997.01648  20610192.950    20610198.937
  21448567.563    -3598342.25349  -2540932.19447  21448567.246    21448574.899
  22074213.195     1323521.52649   1025062.98047  22074212.431    22074220.022
  20964367.435    -1362038.89049  -1055959.74248  20964367.181    20964373.265
  22684160.862    -2461761.59849  -1894306.27146  22684160.183    22684167.750
 03  3 18 16 57  0.0000000  0  6G28G 4G24G 7G 9G 5
  24013212.093     1937226.07949   1496921.80045  24013211.529    24013221.458
  20608339.227    -1549159.31249  -1086587.69748  20608339.244    20608345.254
  21434696.058    -3671237.56849  -2597733.74947  21434695.769    21434703.396
  22085967.202     1385289.25049   1073193.59047  22085966.483    22085974.095
  20963387.936    -1367186.49449  -1059970.89348  20963387.669    20963393.797
  22668761.668    -2542684.86349  -1957363.34546  22668761.013    22668768.551
 03  3 18 16 57 30.0000000  0  6G28G 4G24G 7G 9G 5
  24028278.311     2016398.66149   1558614.49145  24028277.659    24028287.685
  20606603.990    -1558278.10849  -1093693.27348  20606604.025    20606610.031
  21420905.999    -3743705.29549  -2654202.12847  21420905.666    21420913.218
  22097739.603     1447153.23749   1121399.22047  22097738.844    22097746.503
  20962522.528    -1371734.50149  -1063514.82748  20962522.258    20962528.432
  22653380.647    -2623512.82049  -2020346.15846  22653379.941    22653387.478
 03  3 18 16 58  0.0000000  0  6G28G 4G24G 7G 9G 5
  24043378.984     2095751.74149   1620447.81345  24043378.276    24043388.287
  20604987.203    -1566774.23549  -1100313.64548  20604987.254    20604993.262
  21407197.751    -3815743.21249  -2710335.58947  21407197.326    21407204.858
  22109530.168     1509112.65149   1169679.21347  22109529.372    22109537.103
  20961771.189    -1375682.88749  -1066591.52148  20961770.938    20961777.102
  22638018.127    -2704243.77849  -2083253.37146  22638017.337    22638024.944
 03  3 18 16 58 30.0000000  0  6G28G 4G24G 7G 9G 5
  24058513.819     2175285.25049   1682421.70245  24058513.218    24058523.183
  20603488.943    -1574647.43749  -1106448.62648  20603489.021    20603495.063
  21393571.639    -3887348.91549  -2766132.25547  21393571.249    21393578.763
  22121338.681     1571166.66949   1218032.89947  22121337.896    22121345.692
  20961134.100    -1379031.18949  -1069200.62048  20961133.829    20961139.966
  22622674.267    -2784876.44849  -2146084.00846  22622673.459    22622681.041
 03  3 18 16 59  0.0000000  0  6G28G 4G24G 7G 9G 5
  24073683.143     2254998.79549   1744535.91045  24073682.486    24073692.240
  20602109.395    -1581897.36249  -1112097.94448  20602109.446    20602115.505
  21380028.208    -3958520.14149  -2821590.36647  21380027.845    21380035.325
  22133165.039     1633314.44949   1266459.65547  22133164.269    22133172.106
  20960611.234    -1381779.04549  -1071341.84448  20960610.971    20960617.100
  22607349.483    -2865409.23649  -2208836.80746  22607348.618    22607356.154
 03  3 18 16 59 30.0000000  0  6G28G 4G24G 7G 9G 5
  24088886.568     2334891.95649   1806790.04045  24088885.830    24088895.602
  20600848.435    -1588524.02249  -1117261.59848  20600848.469    20600854.514
  21366567.879    -4029254.88449  -2876708.35947  21366567.493    21366574.945
  22145009.073     1695554.95549   1314958.67747  22145008.280    22145016.150
  20960202.643    -1383926.47649  -1073015.20248  20960202.354    20960208.482
  22592043.951    -2945840.85249  -2271510.77146  22592043.014    22592050.494
 03  3 18 17  0  0.0000000  0  6G28G 4G24G 7G 9G 5
  24104124.051     2414963.97249   1869183.55845  24104123.412    24104133.068
  20599705.946    -1594527.83549  -1121939.92548  20599706.010    20599712.054
  21353191.028    -4099550.89849  -2931484.48447  21353190.684    21353198.098
  22156870.469     1757886.76349   1363528.83647  22156869.708    22156877.594
  20959908.238    -1385473.79449  -1074220.94348  20959907.958    20959914.087
  22576757.794    -3026170.13349  -2334104.99646  22576756.917    22576764.392
 03  3 18 17  0 30.0000000  0  6G28G 4G24G 7G 9G 5
  24119395.640     2495214.85049   1931716.43345  24119394.830    24119404.510
  20598682.028    -1599908.48449  -1126132.67248  20598682.109    20598688.168
  21339898.132    -4169405.78349  -2985916.86847  21339897.776    21339905.185
  22168749.168     1820309.21549   1412169.62847  22168748.405    22168756.263
  20959728.040    -1386420.58749  -1074958.74448  20959727.782    20959733.936
  22561491.342    -3106395.65949  -2396618.37346  22561490.475    22561497.895
 03  3 18 17  1  0.0000000  0  6G28G 4G24G 7G 9G 5
  24134700.989     2575644.83749   1994388.86045  24134700.274    24134710.240
  20597776.895    -1604665.58849  -1129839.53548  20597776.906    20597782.978
  21326689.563    -4238817.35549  -3040003.81447  21326689.220    21326696.659
  22180645.011     1882821.88849   1460880.72347  22180644.249    22180652.092
  20959662.257    -1386766.55049  -1075228.36348  20959661.988    20959668.138
  22546244.959    -3186515.52249  -2459049.42846  22546244.180    22546251.535
 03  3 18 17  1 30.0000000  0  6G28G 4G24G 7G 9G 5
  24150040.787     2656254.66749   2057201.43845  24150040.156    24150049.979
  20596990.669    -1608797.89649  -1133059.54848  20596990.600    20596996.693
  21313566.017    -4307782.11149  -3093742.57947  21313565.665    21313573.113
  22192558.068     1945425.02649   1509662.31047  22192557.312    22192565.105
  20959711.016    -1386510.44949  -1075028.84148  20959710.734    20959716.916
  22531019.316    -3266526.98649  -2521395.99346  22531018.441    22531025.837
 03  3 18 17  2  0.0000000  0  6G28G 4G24G 7G 9G 5
  24165414.071     2737040.55849   2120151.21345  24165413.402    24165423.195
  20596322.594    -1612308.75249  -1135795.30948  20596322.542    20596328.642
  21300527.305    -4376301.17749  -3147134.05747  21300526.922    21300534.370
  22204487.550     2008114.35849   1558511.06047  22204486.814    22204494.571
  20959873.724    -1385655.36449  -1074362.58248  20959873.462    20959879.659
  22515813.749    -3346432.05649  -2583659.65746  22515812.977    22515820.382
 03  3 18 17  2 30.0000000  0  6G28G 4G24G 7G 9G 5
  24180821.141     2818004.24949   2183239.48245  24180820.516    24180830.515
  20595773.153    -1615196.11049  -1138045.22648  20595773.113    20595779.218
  21287574.070    -4444370.77849  -3200175.29647  21287573.699    21287581.225
  22216433.619     2070891.10249   1607427.92347  22216432.923    22216440.648
  20960150.826    -1384199.29449  -1073228.01748  20960150.570    20960156.774
  22500629.182    -3426226.87449  -2645837.40746  22500628.469    22500635.981
 03  3 18 17  3  0.0000000  0  6G28G 4G24G 7G 9G 5
  24196261.969     2899145.86649   2246466.42845  24196261.386    24196271.339
  20595342.384    -1617459.87649  -1139809.23048  20595342.351    20595348.443
  21274706.824    -4511988.39049  -3252864.33247  21274706.437    21274714.034
  22228396.215     2133754.61249   1656412.38647  22228395.492    22228403.229
  20960542.358    -1382142.01349  -1071624.98148  20960542.089    20960548.294
  22485465.922    -3505909.82749  -2707927.99246  22485465.267    22485472.792
 03  3 18 17  3 30.0000000  0  6G28G 4G24G 7G 9G 5
  24211736.389     2980463.88749   2309830.80945  24211735.824    24211746.242
  20595030.099    -1619101.18049  -1141088.19448  20595030.077    20595036.160
  21261925.869    -4579152.48549  -3305199.97747  21261925.485    21261933.154
  22240374.917     2196703.08249   1705463.06147  22240374.199    22240382.029
  20961048.101    -1379484.58349  -1069554.28548  20961047.819    20961054.047
  22470324.096    -3585480.50649  -2769931.09546  22470323.459    22470330.975
 03  3 18 17  4  0.0000000  0  6G28G 4G24G 7G 9G 5
  24227244.448     3061958.14549   2373332.54545  24227243.798    24227254.449
  20594836.234    -1620119.90849  -1141882.03048  20594836.231    20594842.325
  21249231.571    -4645861.20349  -3357180.78147  21249231.174    21249238.891
  22252369.593     2259735.69949   1754579.29447  22252368.925    22252376.838
  20961668.065    -1376226.88849  -1067015.85748  20961667.769    20961673.997
  22455203.945    -3664937.42049  -2831845.55246  22455203.316    22455210.810
 03  3 18 17  4 30.0000000  0  6G28G 4G24G 7G 9G 5
  24242786.178     3143628.45949   2436971.43045  24242785.438    24242796.072
  20594760.843    -1620516.21049  -1142190.86148  20594760.864    20594766.947
  21236624.275    -4712112.51249  -3408805.16047  21236623.921    21236631.714
  22264380.218     2322851.73849   1803760.53747  22264379.571    22264387.534
  20962402.206    -1372368.99349  -1064009.73848  20962401.921    20962408.166
  22440105.705    -3744278.93949  -2893670.08046  22440105.109    22440112.598
 03  3 18 17  5  0.0000000  0  6G28G 4G24G 7G 9G 5
  24258361.006     3225474.04049   2500746.89645  24258360.296    24258371.309
  20594803.782    -1620290.67249  -1142015.14648  20594803.804    20594809.902
  21224104.452    -4777904.45549  -3460071.59647  21224104.108    21224111.905
  22276406.556     2386050.10049   1853005.92647  22276405.925    22276413.898
  20963250.550    -1367911.20349  -1060536.17348  20963250.254    20963256.512
  22425029.673    -3823503.70649  -2955403.63646  22425029.155    22425036.671
 03  3 18 17  5 30.0000000  0  6G28G 4G24G 7G 9G 5
  24273969.304     3307494.82449   2564658.89545  24273968.471    24273979.575
  20594965.105    -1619443.21349  -1141354.81348  20594965.122    20594971.209
  21211672.427    -4843235.00649  -3510978.50047  21211672.055    21211679.866
  22288448.434     2449330.03749   1902314.88547  22288447.799    22288455.803
  20964212.956    -1362853.57449  -1056595.19448  20964212.687    20964218.953
  22409976.218    -3902610.06149  -3017044.92346  22409975.707    22409983.190
 03  3 18 17  6  0.0000000  0  6G28G 4G24G 7G 9G 5
  24289610.891     3389690.04549   2628706.80645  24289610.123    24289621.184
  20595244.681    -1617974.21449  -1140210.15748  20595244.679    20595250.743
  21199328.575    -4908102.25549  -3561524.39247  21199328.250    21199336.046
  22300505.699     2512690.62249   1951686.68247  22300505.031    22300513.054
  20965289.522    -1357196.65249  -1052187.23248  20965289.212    20965295.486
  22394945.634    -3981596.61649  -3078592.87046  22394945.092    22394952.510
 03  3 18 17  6 30.0000000  0  6G28G 4G24G 7G 9G 5
  24305285.293     3472059.31449   2692890.32945  24305284.620    24305295.836
  20595642.481    -1615883.99049  -1138581.42748  20595642.453    20595648.557
  21187073.367    -4972504.12949  -3611707.65047  21187072.955    21187080.746
  22312578.136     2576130.83249   2001120.52847  22312577.414    22312585.450
  20966480.057    -1350940.51449  -1047312.35148  20966479.748    20966486.025
  22379938.117    -4060461.98349  -3140046.37346  22379937.532    22379944.906
 03  3 18 17  7  0.0000000  0  6G28G 4G24G 7G 9G 5
  24320993.011     3554602.26849   2757209.18645  24320992.317    24321003.465
  20596158.386    -1613172.95149  -1136468.94948  20596158.376    20596164.496
  21174906.977    -5036438.65749  -3661526.75347  21174906.637    21174914.414
  22324665.535     2639650.07249   2050615.94847  22324664.796    22324672.883
  20967784.571    -1344085.42749  -1041970.76248  20967784.275    20967790.532
  22364953.944    -4139204.53849  -3201404.18846  22364953.345    22364960.675
 03  3 18 17  7 30.0000000  0  6G28G 4G24G 7G 9G 5
  24336733.780     3637318.52449   2821663.07445  24336733.099    24336744.011
  20596792.387    -1609841.20849  -1133872.80548  20596792.357    20596798.484
  21162829.959    -5099903.92349  -3710980.20247  21162829.638    21162837.356
  22336767.835     2703247.52149   2100172.30247  22336767.078    22336775.179
  20969203.063    -1336631.47749  -1036162.52348  20969202.773    20969209.020
  22349993.420    -4217822.66049  -3262665.03446  22349992.822    22350000.118
 03  3 18 17  8  0.0000000  0  6G28G 4G24G 7G 9G 5
  24352507.228     3720207.24649   2886251.39145  24352506.460    24352517.541
  20597544.380    -1605889.60149  -1130793.65348  20597544.337    20597550.506
  21150842.494    -5162898.56849  -3760066.92947  21150842.147    21150849.876
  22348884.768     2766921.90049   2149788.60247  22348883.969    22348892.074
  20970735.389    -1328579.17249  -1029888.03348  20970735.102    20970741.376
  22335056.868    -4296315.17349  -3323828.01246  22335056.183    22335063.482
 03  3 18 17  8 30.0000000  0  6G28G 4G24G 7G 9G 5
  24368313.440     3803268.62749   2950974.22445  24368312.658    24368323.992
  20598414.300    -1601318.23149  -1127231.56848  20598414.254    20598420.423
  21138945.036    -5225420.00449  -3808784.92847  21138944.713    21138952.433
  22361016.287     2830672.94649   2199464.65447  22361015.461    22361023.608
  20972381.579    -1319928.72749  -1023147.46548  20972381.282    20972387.580
  22320144.501    -4374680.04249  -3384891.53446  22320143.806    22320151.144
 03  3 18 17  9  0.0000000  0  6G28G 4G24G 7G 9G 5
  24384152.472     3886502.09849   3015831.17145  24384151.783    24384163.318
  20599402.133    -1596127.21849  -1123186.64848  20599402.111    20599408.257
  21127138.154    -5287465.83749  -3857132.32947  21127137.817    21127145.524
  22373162.254     2894500.05049   2249199.95647  22373161.442    22373169.554
  20974141.559    -1310680.30349  -1015940.93448  20974141.244    20974147.559
  22305256.747    -4452915.69449  -3445854.35546  22305256.023    22305263.434
 03  3 18 17  9 30.0000000  0  6G28G 4G24G 7G 9G 5
  24400024.019     3969907.35549   3080821.91145  24400023.395    24400035.133
  20600507.777    -1590317.19149  -1118659.37548  20600507.755    20600513.904
  21115422.028    -5349034.74949  -3905108.10047  21115421.648    21115429.322
  22385322.542     2958402.18749   2298993.73946  22385321.654    22385329.766
  20976015.223    -1300834.21749  -1008268.69348  20976014.907    20976021.222
  22290393.810    -4531020.72449  -3506715.39546  22290393.082    22290400.532
 03  3 18 17 10  0.0000000  0  6G28G 4G24G 7G 9G 5
  24415928.325     4053483.73949   3145946.04545  24415927.664    24415939.524
  20601731.070    -1583888.65549  -1113650.14848  20601731.058    20601737.231
  21103796.959    -5410124.99849  -3952710.89547  21103796.596    21103804.196
  22397496.915     3022378.45049   2348845.28146  22397496.016    22397504.129
  20978002.581    -1290390.78149  -1000130.98348  20978002.251    20978008.585
  22275556.107    -4608993.50549  -3567473.38946  22275555.354    22275562.795
 03  3 18 17 10 30.0000000  0  6G28G 4G24G 7G 9G 5
  24431865.062     4137230.14149   3211202.62645  24431864.292    24431876.431
  20603071.967    -1576842.39649  -1108159.58248  20603071.940    20603078.122
  21092263.248    -5470735.12149  -3999939.56647  21092262.930    21092270.499
  22409685.179     3086427.84449   2398753.80546  22409684.259    22409692.381
  20980103.363    -1279351.14149   -991528.70248  20980103.057    20980109.405
  22260743.696    -4686832.89649  -3628127.44646  22260742.988    22260750.422
 03  3 18 17 11  0.0000000  0  6G28G 4G24G 7G 9G 5
  24447834.176     4221146.53649   3276591.69145  24447833.326    24447845.405
  20604530.251    -1569178.91349  -1102188.06648  20604530.260    20604536.463
  21080821.298    -5530863.06149  -4046792.51347  21080820.981    21080828.525
  22421887.267     3150549.77949   2448718.85146  22421886.321    22421894.457
  20982317.629    -1267715.51149   -982462.01448  20982317.314    20982323.629
  22245957.091    -4764537.04349  -3688676.11546  22245956.375    22245963.811
 03  3 18 17 11 30.0000000  0  6G28G 4G24G 7G 9G 5
  24463835.286     4305232.52949   3342112.86345  24463834.699    24463846.817
  20606105.978    -1560898.67149  -1095735.95448  20606105.980    20606112.198
  21069471.423    -5590507.13649  -4093268.42247  21069471.099    21069478.619
  22434102.948     3214743.28349   2498739.67546  22434102.014    22434110.138
  20984645.140    -1255484.50549   -972931.40048  20984644.843    20984651.160
  22231196.499    -4842104.52949  -3749118.29846  22231195.754    22231203.183
 03  3 18 17 12  0.0000000  0  6G28G 4G24G 7G 9G 5
  24479868.726     4389488.10149   3407766.18945  24479868.140    24479880.385
  20607798.958    -1552002.06349  -1088803.56348  20607798.968    20607805.184
  21058214.106    -5649664.91849  -4139365.40647  21058213.772    21058221.269
  22446332.112     3279008.11849   2548816.07146  22446331.228    22446339.391
  20987085.995    -1242657.92049   -962936.69748  20987085.683    20987092.003
  22216462.328    -4919533.30549  -3809452.38846  22216461.604    22216468.988
 03  3 18 17 12 30.0000000  0  6G28G 4G24G 7G 9G 5
  24495934.484     4473911.65749   3473550.44445  24495933.698    24495946.024
  20609609.006    -1542490.47049  -1081391.96448  20609608.975    20609615.204
  21047049.592    -5708335.42949  -4185082.70647  21047049.201    21047056.633
  22458574.571     3343342.52149   2598946.68746  22458573.653    22458581.897
  20989639.952    -1229237.03349   -952478.90048  20989639.645    20989645.953
  22201754.629    -4996822.57649  -3869677.77046  22201753.936    22201761.301
 03  3 18 17 13  0.0000000  0  6G28G 4G24G 7G 9G 5
  24512031.928     4558503.98949   3539466.16245  24512031.233    24512043.735
  20611536.080    -1532363.84949  -1073501.12348  20611536.041    20611542.331
  21035978.050    -5766516.59149  -4230418.68847  21035977.696    21035985.129
  22470830.297     3407746.38849   2649131.43546  22470829.369    22470837.660
  20992306.897    -1215222.13749   -941558.23748  20992306.608    20992312.939
  22187073.891    -5073970.20549  -3929792.78146  22187073.169    22187080.487
 03  3 18 17 13 30.0000000  0  6G28G 4G24G 7G 9G 5
  24528161.629     4643263.64849   3605512.33945  24528160.976    24528173.307
  20613579.972    -1521623.16449  -1065131.78948  20613579.946    20613586.263
  21024999.937    -5824206.84149  -4275372.13747  21024999.606    21025007.033
  22483099.052     3472218.92549   2699369.67546  22483098.125    22483106.451
  20995086.787    -1200613.87049   -930175.20848  20995086.484    20995092.833
  22172420.485    -5150974.69349  -3989796.26546  22172419.713    22172427.001
 03  3 18 17 14  0.0000000  0  6G28G 4G24G 7G 9G 5
  24544322.765     4728189.34249   3671687.80945  24544322.089    24544334.542
  20615740.401    -1510269.97649  -1056285.18148  20615740.390    20615746.721
  21014115.412    -5881405.43249  -4319942.46647  21014115.061    21014122.554
  22495380.543     3536758.46349   2749660.14346  22495379.643    22495387.999
  20997979.287    -1185413.68549   -918330.94848  20997978.982    20997985.362
  22157794.359    -5227835.28449  -4049687.61046  22157793.599    22157800.883
 03  3 18 17 14 30.0000000  0  5G 4G24G 7G 9G 5
  20618018.093    -1498300.72549  -1046958.52448  20618018.093    20618024.450
  21003325.621    -5938106.29649  -4364124.95747  21003325.251    21003332.755
  22507675.472     3601368.39649   2800005.46246  22507674.571    22507682.964
  21000985.073    -1169618.23849   -906022.84848  21000984.761    21000991.181
  22143196.594    -5304546.19249  -4109462.33746  22143195.914    22143203.250
 03  3 18 17 15  0.0000000  0  5G 4G24G 7G 9G 5
  20620415.747    -1485701.14149  -1037140.69648  20620415.733    20620422.088
  20992633.712    -5994292.57349  -4407906.46547  20992633.352    20992640.835
  22519986.485     3666063.17149   2850416.88746  22519985.658    22519994.065
  21004106.921    -1153212.85749   -893239.47148  21004106.619    21004113.065
  22128630.533    -5381090.69749  -4169107.38146  22128629.908    22128637.306
 03  3 18 17 15 30.0000000  0  5G 4G24G 7G 9G 5
  20622927.929    -1472499.61849  -1026853.82948  20622927.944    20622934.275
  20982034.717    -6049990.53149  -4451307.46147  20982034.360    20982041.895
  22532308.339     3730814.49649   2900872.36646  22532307.568    22532315.947
  21007339.468    -1136225.89649   -880002.91848  21007339.172    21007345.644
  22114091.406    -5457494.66749  -4228642.92746  22114090.713    22114098.143
 03  3 18 17 16  0.0000000  0  5G 4G24G 7G 9G 5
  20625555.255    -1458693.17149  -1016095.59048  20625555.255    20625561.589
  20971529.716    -6105194.72449  -4494323.70447  20971529.342    20971536.894
  22544641.606     3795625.44249   2951374.32146  22544640.800    22544649.153
  21010683.270    -1118654.18849   -866310.71948  21010682.977    21010689.464
  22099580.044    -5533752.67049  -4288064.73046  22099579.340    22099586.746
 03  3 18 17 16 30.0000000  0  5G 4G24G 7G 9G 5
  20628298.030    -1444280.01749  -1004864.59348  20628298.016    20628304.346
  20961119.404    -6159901.18949  -4536952.10947  20961119.029    20961126.585
  22556986.479     3860497.85149   3001924.15846  22556985.723    22556994.058
  21014138.694    -1100496.22249   -852161.69648  21014138.385    21014144.890
  22085097.227    -5609860.70949  -4347369.67846  22085096.496    22085103.839
 03  3 18 17 17  0.0000000  0  5G 4G24G 7G 9G 5
  20631156.443    -1429259.13049   -993160.04148  20631156.428    20631162.733
  20950804.538    -6214106.06649  -4579189.67547  20950804.170    20950811.765
  22569343.318     3925432.94149   3052522.81646  22569342.579    22569350.889
  21017705.860    -1081750.56249   -837554.72648  21017705.545    21017712.084
  22070643.517    -5685815.27949  -4406555.04346  22070642.842    22070650.196
 03  3 18 17 17 30.0000000  0  5G 4G24G 7G 9G 5
  20634130.265    -1413631.83949   -980982.96448  20634130.239    20634136.544
  20940585.471    -6267807.94349  -4621035.28848  20940585.065    20940592.680
  22581711.838     3990429.68049   3103169.55446  22581711.126    22581719.437
  21021384.663    -1062418.38149   -822490.72648  21021384.358    21021390.940
  22056219.305    -5761614.83849  -4465619.61446  22056218.677    22056225.993
 03  3 18 17 18  0.0000000  0  5G 4G24G 7G 9G 5
  20637219.432    -1397398.49849   -968333.64248  20637219.400    20637225.712
  20930462.356    -6321004.99849  -4662487.53448  20930461.983    20930469.636
  22594092.112     4055487.90649   3153864.16446  22594091.356    22594099.672
  21025175.003    -1042500.09649   -806970.02448  21025174.694    21025181.289
  22041825.038    -5837257.27849  -4524561.76746  22041824.402    22041831.657
 03  3 18 17 18 30.0000000  0  5G 4G24G 7G 9G 5
  20640423.748    -1380559.65749   -955212.49948  20640423.732    20640430.045
  20920435.693    -6373695.53449  -4703545.09148  20920435.284    20920442.957
  22606483.978     4120607.06949   3204606.29346  22606483.227    22606491.528
  21029076.824    -1021996.24649   -790993.03948  21029076.493    21029083.071
  22027461.093    -5912740.45549  -4583379.81146  22027460.396    22027467.648
 03  3 18 17 19  0.0000000  0  5G 4G24G 7G 9G 5
  20643743.161    -1363116.27649   -941620.28748  20643743.144    20643749.448
  20910505.637    -6425878.15649  -4744206.86848  20910505.248    20910512.917
  22618887.326     4185786.82849   3255395.61546  22618886.571    22618894.918
  21033089.928    -1000907.57949   -774560.34848  21033089.595    21033096.143
  22013127.746    -5988062.48649  -4642072.28046  22013127.069    22013134.330
 03  3 18 17 19 30.0000000  0  5G 4G24G 7G 9G 5
  20647177.514    -1345068.86949   -927557.40348  20647177.496    20647183.830
  20900672.682    -6477550.70749  -4784471.18848  20900672.336    20900680.013
  22631302.197     4251026.90149   3306231.93746  22631301.436    22631309.790
  21037214.283     -979234.20149   -757672.04348  21037213.970    21037220.494
  21998825.530    -6063221.33549  -4700637.60946  21998824.841    21998832.073
 03  3 18 17 20  0.0000000  0  5G 4G24G 7G 9G 5
  20650726.557    -1326418.69149   -913024.83148  20650726.529    20650732.900
  20890936.989    -6528712.18649  -4824337.27348  20890936.636    20890944.303
  22643728.322     4316326.21649   3357114.43846  22643727.564    22643735.944
  21041449.614     -956977.63349   -740329.30348  21041449.308    21041455.849
  21984554.586    -6138215.66149  -4759074.72847  21984553.910    21984561.164
 03  3 18 17 20 30.0000000  0  5G 4G24G 7G 9G 5
  20654390.030    -1307167.03249   -898023.57748  20654390.023    20654396.385
  20881298.856    -6579360.87849  -4863803.78348  20881298.498    20881306.136
  22656165.679     4381684.22449   3408042.65046  22656164.873    22656173.287
  21045795.719     -934138.94449   -722532.96448  21045795.399    21045801.942
  21970315.328    -6213043.81449  -4817382.36647  21970314.578    21970321.812
 03  3 18 17 21  0.0000000  0  5G 4G24G 7G 9G 5
  20658167.746    -1287315.13649   -882554.60448  20658167.708    20658174.125
  20871758.504    -6629495.81549  -4902869.95848  20871758.162    20871765.790
  22668613.917     4447099.81449   3459015.73846  22668613.096    22668621.556
  21050252.342     -910719.39549   -704284.00348  21050252.034    21050258.588
  21956107.904    -6287704.49749  -4875559.50347  21956107.113    21956114.374
 03  3 18 17 21 30.0000000  0  5G 4G24G 7G 9G 5
  20662059.611    -1266863.40549   -866618.23048  20662059.584    20662065.976
  20862316.313    -6679115.12049  -4941534.35048  20862315.929    20862323.547
  22681073.098     4512573.19649   3510033.85346  22681072.350    22681080.844
  21054819.482     -886719.12649   -685582.53448  21054819.182    21054825.744
  21941932.711    -6362195.26849  -4933604.24347  21941931.947    21941939.237
 03  3 18 17 22  0.0000000  0  5G 4G24G 7G 9G 5
  20666065.343    -1245813.20049   -850215.50648  20666065.321    20666071.717
  20852972.469    -6728217.45349  -4979795.89848  20852972.068    20852979.685
  22693543.112     4578103.38049   3561096.23746  22693542.408    22693550.930
  21059496.842     -862139.54649   -666429.65347  21059496.544    21059503.066
  21927790.165    -6436514.59549  -4991515.39847  21927789.447    21927796.721
 03  3 18 17 22 30.0000000  0  5G 4G24G 7G 9G 5
  20670184.733    -1224165.78049   -833347.42548  20670184.699    20670191.090
  20843727.176    -6776801.65549  -5017653.71548  20843726.778    20843734.384
  22706023.973     4643689.86049   3612202.48646  22706023.177    22706031.760
  21064284.254     -836981.61649   -646826.10947  21064283.950    21064290.463
  21913680.588    -6510660.92349  -5049291.73647  21913679.865    21913687.174
 03  3 18 17 23  0.0000000  0  5G 4G24G 7G 9G 5
  20674417.505    -1201922.44049   -816014.99048  20674417.469    20674423.875
  20834580.744    -6824866.41449  -5055106.77048  20834580.350    20834587.958
  22718515.326     4709331.75549   3663351.91246  22718514.450    22718523.130
  21069181.514     -811246.60249   -626772.88747  21069181.189    21069187.748
  21899604.223    -6584632.47649  -5106931.88747  21899603.510    21899610.863
 03  3 18 17 23 30.0000000  0  5G 4G24G 7G 9G 5
  20678763.424    -1179084.56549   -798219.27548  20678763.420    20678769.838
  20825533.402    -6872410.55049  -5092154.14548  20825533.004    20825540.595
  22731016.929     4775028.13949   3714543.77546  22731016.135    22731024.885
  21074188.336     -784935.90949   -606271.08648  21074188.003    21074194.579
  21885561.387    -6658427.94849  -5164434.83547  21885560.692    21885568.024
 03  3 18 17 24  0.0000000  0  5G 4G24G 7G 9G 5
  20683222.430    -1155652.41649   -779960.49548  20683222.433    20683228.849
  20816585.479    -6919432.16349  -5128794.36048  20816585.108    20816592.662
  22743529.043     4840779.35349   3765778.37546  22743528.203    22743537.044
  21079304.638     -758049.68049   -585320.81947  21079304.331    21079310.927
  21871552.572    -6732044.60849  -5221798.44947  21871551.930    21871559.232
 03  3 18 17 24 30.0000000  0  5G 4G24G 7G 9G 5
  20687794.193    -1131627.86849   -761240.10348  20687794.188    20687800.612
  20807737.124    -6965930.64249  -5165026.93348  20807736.734    20807744.332
  22756051.357     4906584.35749   3817054.89346  22756050.574    22756059.478
  21084530.122     -730589.57549   -563923.37447  21084529.804    21084536.428
  21857578.116    -6805481.21949  -5279021.76447  21857577.424    21857584.691
 03  3 18 17 25  0.0000000  0  5G 4G24G 7G 9G 5
  20692478.591    -1107011.40949   -742058.47848  20692478.575    20692485.024
  20798988.640    -7011903.99149  -5200850.31448  20798988.260    20798995.852
  22768583.989     4972443.09549   3868373.28746  22768583.128    22768592.079
  21089864.689     -702556.24949   -542079.25947  21089864.391    21089870.999
  21843638.365    -6878735.43349  -5336102.94947  21843637.584    21843644.830
 03  3 18 17 25 30.0000000  0  5G 4G24G 7G 9G 5
  20697275.319    -1081804.41149   -722416.70048  20697275.324    20697281.790
  20790340.351    -7057350.89049  -5236263.47648  20790339.987    20790347.567
  22781126.688     5038355.07549   3919733.16646  22781125.825    22781134.783
  21095308.192     -673950.82349   -519789.34747  21095307.862    21095314.486
  21829733.527    -6951805.52049  -5393040.66847  21829732.811    21829740.038
 03  3 18 17 26  0.0000000  0  5G 4G24G 7G 9G 5
  20702184.003    -1056009.38949   -702316.71748  20702183.996    20702190.473
  20781792.340    -7102270.96049  -5271266.11848  20781792.005    20781799.564
  22793679.170     5104318.75949   3971133.31046  22793678.364    22793687.378
  21100860.112     -644775.45849   -497055.33347  21100859.789    21100866.409
  21815863.861    -7024690.58449  -5449834.21147  21815863.212    21815870.440
 03  3 18 17 26 30.0000000  0  5G 4G24G 7G 9G 5
  20707204.528    -1029626.93749   -681759.00248  20707204.490    20707210.921
  20773344.943    -7146662.41549  -5305856.85848  20773344.603    20773352.124
  22806241.529     5170333.93649   4022573.60446  22806240.698    22806249.758
  21106520.351     -615030.90449   -473877.79647  21106520.030    21106526.677
  21802029.937    -7097388.41749  -5506481.86047  21802029.239    21802036.489
 03  3 18 17 27  0.0000000  0  5G 4G24G 7G 9G 5
  20712336.477    -1002658.67349   -660744.80848  20712336.418    20712342.850
  20764998.235    -7190524.77649  -5340035.30648  20764997.861    20765005.447
  22818813.590     5236399.96849   4074053.51446  22818812.774    22818821.831
  21112288.621     -584718.52749   -450257.79847  21112288.297    21112294.946
  21788231.828    -7169897.57249  -5562982.48647  21788231.161    21788238.440
 03  3 18 17 27 30.0000000  0  5G 4G24G 7G 9G 5
  20717579.465     -975106.61349   -639275.70248  20717579.418    20717585.884
  20756752.296    -7233857.25349  -5373800.86448  20756751.970    20756759.569
  22831395.111     5302515.55549   4125572.04846  22831394.285    22831403.299
  21118164.551     -553840.44049   -426196.98847  21118164.239    21118170.847
  21774469.983    -7242216.87649  -5619335.18147  21774469.269    21774476.504
 03  3 18 17 28  0.0000000  0  5G 4G24G 7G 9G 5
  20722933.491     -946971.16949   -617352.01148  20722933.462    20722939.934
  20748607.580    -7276657.93549  -5407152.03548  20748607.208    20748614.853
  22843986.049     5368681.13549   4177129.52246  22843985.278    22843994.294
  21124148.085     -522397.05649   -401695.68747  21124147.767    21124154.342
  21760744.751    -7314343.48149  -5675537.72147  21760744.001    21760751.271
 03  3 18 17 28 30.0000000  0  5G 4G24G 7G 9G 5
  20728398.156     -918254.25649   -594975.22748  20728398.118    20728404.612
  20740564.133    -7318926.52449  -5440088.58748  20740563.766    20740571.456
  22856586.325     5434895.44849   4228724.98746  22856585.605    22856594.549
  21130238.841     -490389.92249   -376755.09947  21130238.540    21130245.149
  21747056.362    -7386276.11049  -5731589.10247  21747055.657    21747062.925
 03  3 18 17 29  0.0000000  0  5G 4G24G 7G 9G 5
  20733973.208     -888957.22149   -572146.41148  20733973.189    20733979.699
  20732622.324    -7360660.98649  -5472608.94648  20732621.964    20732629.628
  22869196.006     5501158.68449   4280358.57146  22869195.205    22869204.143
  21136436.688     -457820.09349   -351376.05247  21136436.399    21136443.020
  21733405.338    -7458012.68149  -5787487.72247  21733404.627    21733411.878
 03  3 18 17 29 30.0000000  0  5G 4G24G 7G 9G 5
  20739658.342     -859082.00649   -548867.05848  20739658.303    20739664.812
  20724782.244    -7401861.04149  -5504712.87948  20724781.872    20724789.531
  22881814.582     5567469.41449   4332029.16546  22881813.849    22881822.784
  21142741.208     -424689.74249   -325560.23247  21142740.925    21142747.588
  21719791.815    -7529552.09349  -5843232.71047  21719791.141    21719798.354
 03  3 18 17 30  0.0000000  0  5G 4G24G 7G 9G 5
  20745453.452     -828628.59849   -525137.16947  20745453.411    20745459.942
  20717044.189    -7442524.88249  -5536398.98148  20717043.829    20717051.475
  22894442.501     5633828.61849   4383737.51946  22894441.658    22894450.611
  21149152.353     -390999.08749   -299307.80947  21149152.067    21149158.767
  21706216.514    -7600891.04749  -5898821.49047  21706215.779    21706223.015
 03  3 18 17 30 30.0000000  0  5G 4G24G 7G 9G 5
  20751358.077     -797599.55649   -500958.73347  20751358.084    20751364.609
  20709408.204    -7482652.42249  -5567667.18748  20709407.825    20709415.464
  22907079.157     5700234.65649   4435482.36146  22907078.369    22907087.367
  21155669.730     -356750.11849   -272620.33947  21155669.455    21155676.171
  21692679.305    -7672029.00749  -5954253.65547  21692678.631    21692685.920
 03  3 18 17 31  0.0000000  0  5G 4G24G 7G 9G 5
  20757372.184     -765995.53649   -476332.26047  20757372.160    20757378.682
  20701874.755    -7522241.24849  -5598515.61748  20701874.371    20701881.976
  22919724.905     5766688.14049   4487264.18546  22919724.085    22919733.172
  21162293.269     -321943.30749   -245498.19347  21162292.989    21162299.732
  21679181.022    -7742962.87049  -6009526.78247  21679180.386    21679187.664
 03  3 18 17 31 30.0000000  0  5G 4G24G 7G 9G 5
  20763495.084     -733819.35449   -451259.95147  20763495.111    20763501.682
  20694443.685    -7561291.76249  -5628944.58348  20694443.295    20694450.875
  22932379.387     5833187.21349   4539081.53946  22932378.465    22932387.602
  21169022.411     -286581.62149   -217943.67347  21169022.141    21169028.888
  21665721.701    -7813692.18349  -6064640.52347  21665721.043    21665728.293
 03  3 18 17 32  0.0000000  0  5G 4G24G 7G 9G 5
  20769726.601     -701072.57049   -425743.02247  20769726.637    20769733.217
  20687115.197    -7599803.09549  -5658953.40548  20687114.818    20687122.415
  22945042.497     5899731.55249   4590934.17046  22945041.508    22945050.645
  21175856.879     -250666.49749   -189957.90947  21175856.599    21175863.357
  21652301.644    -7884215.15049  -6119593.47447  21652300.994    21652308.240
 03  3 18 17 32 30.0000000  0  6G 4G24G 7G30G 9G 5
  20776065.687     -667760.84949   -399785.87847  20776065.689    20776072.278
  20679888.718    -7637778.40549  -5688544.55448  20679888.341    20679895.915
  22957713.234     5966316.41049   4642818.36346  22957712.316    22957721.458
  24347836.907    -3530023.84249  -2738929.75545  24347837.074    24347845.230
  21182795.632     -214203.41849   -161545.16847  21182795.346    21182802.137
  21638920.416    -7954533.95649  -6174387.33847  21638919.738    21638926.997
 03  3 18 17 33  0.0000000  0  6G 4G24G 7G30G 9G 5
  20782512.732     -633881.59649   -373386.50147  20782512.736    20782519.355
  20672765.259    -7675212.48549  -5717713.96248  20672764.893    20672772.429
  22970392.305     6032945.71149   4694737.18746  22970391.438    22970400.629
  24329202.097    -3627949.96349  -2815235.88245  24329202.184    24329210.521
  21189839.159     -177189.51449   -132703.21347  21189838.860    21189845.718
  21625579.208    -8024642.46749  -6229017.32647  21625578.484    21625585.783
 03  3 18 17 33 30.0000000  0  6G 4G24G 7G30G 9G 5
  20789068.076     -599432.97349   -346543.45847  20789068.108    20789074.730
  20665745.589    -7712101.19049  -5746458.40548  20665745.212    20665752.760
  22983080.504     6099622.01149   4746692.62946  22983079.605    22983088.856
  24310566.268    -3725882.21149  -2891546.76045  24310566.235    24310574.693
  21196987.765     -139623.37549   -103430.94347  21196987.461    21196994.338
  21612278.951    -8094535.77449  -6283479.63247  21612278.221    21612285.549
 03  3 18 17 34  0.0000000  0  6G 4G24G 7G30G 9G 5
  20795730.908     -564419.71949   -319260.44247  20795730.915    20795737.545
  20658829.304    -7748446.39149  -5774779.33548  20658828.940    20658836.521
  22995776.939     6166342.49149   4798682.50046  22995776.136    22995785.477
  24291929.028    -3823821.89549  -2967863.42445  24291929.117    24291937.446
  21204240.625     -101509.43749    -73731.82047  21204240.330    21204247.230
  21599019.538    -8164214.47049  -6337774.70847  21599018.840    21599026.168
 03  3 18 17 34 30.0000000  0  6G 4G24G 7G30G 9G 5
  20802501.407     -528840.77149   -291536.62947  20802501.398    20802508.053
  20652016.949    -7784245.30149  -5802674.58648  20652016.596    20652024.196
  23008482.196     6233108.83349   4850708.10246  23008481.409    23008490.789
  24273291.155    -3921765.25849  -3044182.95045  24273291.110    24273299.500
  21211597.875      -62846.93549    -43605.24647  21211597.606    21211604.494
  21585801.773    -8233674.35649  -6391899.28047  21585801.131    21585808.382
 03  3 18 17 35  0.0000000  0  6G 4G24G 7G30G 9G 5
  20809378.649     -492700.80849   -263375.65447  20809378.647    20809385.304
  20645308.333    -7819499.44749  -5830145.34148  20645307.961    20645315.558
  23021195.599     6299917.72449   4902766.84446  23021194.828    23021204.249
  24254652.217    -4019713.91449  -3120506.60745  24254652.264    24254660.724
  21219058.775      -23639.95549    -13054.40647  21219058.501    21219065.378
  21572625.515    -8302916.36449  -6445854.07047  21572624.813    21572632.059
 03  3 18 17 35 30.0000000  0  6G 4G24G 7G30G 9G 5
  20816362.383     -456001.30849   -234778.67447  20816362.362    20816369.040
  20638703.490    -7854207.99649  -5857190.95648  20638703.123    20638710.738
  23033917.124     6366769.04149   4954858.68046  23033916.302    23033925.737
  24236012.538    -4117666.28749  -3196833.17645  24236012.548    24236021.026
  21226622.985       16110.05349     17919.57747  21226622.715    21226629.617
  21559491.050    -8371938.44549  -6499637.49547  21559490.365    21559497.627
 03  3 18 17 36  0.0000000  0  6G 4G24G 7G30G 9G 5
  20823452.247     -418743.91049   -205746.96547  20823452.224    20823458.909
  20632202.685    -7888370.22049  -5883810.86748  20632202.303    20632209.904
  23046646.682     6433662.40949   5006983.26146  23046645.789    23046655.246
  24217372.301    -4215620.83749  -3273161.42845  24217372.462    24217380.823
  21234290.246       56401.45649     49315.42547  21234289.977    21234296.917
  21546398.808    -8440738.68649  -6553248.05747  21546398.109    21546405.369
 03  3 18 17 36 30.0000000  0  6G 4G24G 7G30G 9G 5
  20830647.963     -380930.50549   -176282.00847  20830647.932    20830654.601
  20625805.883    -7921985.68649  -5910004.73448  20625805.502    20625813.073
  23059384.099     6500597.45449   5059140.33446  23059383.241    23059392.649
  24198731.875    -4313576.51449  -3349490.58545  24198732.057    24198740.526
  21242060.145       97232.48849     81131.76147  21242059.868    21242066.835
  21533349.166    -8509315.35249  -6606684.40647  21533348.433    21533355.670
 03  3 18 17 37  0.0000000  0  6G 4G24G 7G30G 9G 5
  20837949.154     -342562.53249   -146384.91147  20837949.108    20837955.804
  20619513.441    -7955052.94049  -5935771.41548  20619513.048    20619520.603
  23072129.324     6567574.00549   5111329.72646  23072128.537    23072138.006
  24180091.712    -4411531.28049  -3425819.00845  24180091.880    24180100.399
  21249932.526      138601.98149    113367.68147  21249932.258    21249939.228
  21520342.456    -8577665.87349  -6659944.52947  21520341.717    21520348.955
 03  3 18 17 37 30.0000000  0  6G 4G24G 7G30G 9G 5
  20845355.301     -303642.91049   -116057.96447  20845355.261    20845361.990
  20613325.219    -7987572.44949  -5961111.28348  20613324.812    20613332.321
  23084882.156     6634590.22949   5163550.04546  23084881.449    23084890.889
  24161451.718    -4509485.27649  -3502146.88545  24161451.935    24161460.495
  21257906.795      180506.75349    146020.69747  21257906.507    21257913.482
  21507378.812    -8645789.96249  -6713028.22247  21507378.092    21507385.332
 03  3 18 17 38  0.0000000  0  6G 4G24G 7G30G 9G 5
  20852866.266     -264172.47949    -85301.81347  20852866.241    20852872.989
  20607241.464    -8019542.51449  -5986023.01548  20607241.064    20607248.596
  23097642.680     6701646.95249   5215801.92246  23097642.025    23097651.454
  24142812.359    -4607436.02149  -3578472.23245  24142812.598    24142821.092
  21265982.761      222946.06849    179090.24047  21265982.467    21265989.467
  21494458.781    -8713684.69949  -6765933.18747  21494458.156    21494465.387
 03  3 18 17 38 30.0000000  0  6G 4G24G 7G30G 9G 5
  20860481.634     -224153.76049    -54118.41947  20860481.569    20860488.325
  20601262.263    -8050963.35249  -6010506.77548  20601261.863    20601269.419
  23110410.744     6768743.05149   5268084.47646  23110410.006    23110419.519
  24124173.883    -4705382.79449  -3654794.51145  24124174.171    24124182.508
  21274160.044      265917.44549    212574.37947  21274159.715    21274166.716
  21481582.724    -8781348.79649  -6818658.43147  21481582.060    21481589.335
 03  3 18 17 39  0.0000000  0  6G 4G24G 7G30G 9G 5
  20868201.058     -183587.89349    -22508.68147  20868201.015    20868207.783
  20595387.841    -8081833.73449  -6034561.61248  20595387.450    20595394.968
  23123186.358     6835878.97949   5320398.07846  23123185.592    23123195.130
  24105536.314    -4803323.30049  -3731111.86445  24105536.744    24105545.044
  21282438.359      309420.06549    246472.47547  21282438.025    21282445.009
  21468751.144    -8848779.36949  -6871201.71247  21468750.423    21468757.708
 03  3 18 17 39 30.0000000  0  6G 4G24G 7G30G 9G 5
  20876024.162     -142477.47049      9525.38647  20876024.119    20876030.857
  20589618.103    -8112153.90849  -6058187.71448  20589617.694    20589625.222
  23135969.377     6903053.38949   5372741.66246  23135968.503    23135978.128
  24086900.247    -4901257.10549  -3807423.98945  24086900.576    24086908.949
  21290817.184      353450.97549    280782.22147  21290816.864    21290823.872
  21455964.032    -8915975.56749  -6923562.36547  21455963.366    21455970.649
 03  3 18 17 40  0.0000000  0  6G 4G24G 7G30G 9G 5
  20883950.760     -100822.97549     41983.40847  20883950.732    20883957.495
  20583953.462    -8141921.64649  -6081383.34748  20583953.096    20583960.627
  23148759.837     6970267.36549   5425116.06346  23148759.067    23148768.689
  24068265.832    -4999181.27449  -3883728.62345  24068266.246    24068274.805
  21299296.505      398010.12449    315503.58547  21299296.194    21299303.230
  21443222.293    -8982934.08249  -6975737.80647  21443221.557    21443228.818
 03  3 18 17 40 30.0000000  0  6G 4G24G 7G30G 9G 5
  20891980.263      -58627.80349     74862.73647  20891980.253    20891986.993
  20578393.766    -8171137.98149  -6104149.31448  20578393.405    20578400.932
  23161557.529     7037519.02449   5477519.83246  23161556.737    23161566.366
  24049633.312    -5097095.86249  -3960025.80945  24049633.705    24049642.241
  21307875.720      443094.12349    350633.92447  21307875.415    21307882.459
  21430525.760    -9049654.47049  -7027727.70647  21430525.076    21430532.316
 03  3 18 17 41  0.0000000  0  6G 4G24G 7G30G 9G 5
  20900112.434      -15893.19949    108162.40447  20900112.403    20900119.145
  20572939.285    -8199801.51349  -6126484.52548  20572938.911    20572946.448
  23174362.422     7104808.88349   5529953.36146  23174361.683    23174371.351
  24031003.131    -5194998.59449  -4036313.69545  24031003.503    24031012.140
  21316554.617      488701.71449    386172.25647  21316554.306    21316561.351
  21417875.120    -9116133.95049  -7079529.88447  21417874.464    21417881.653
 03  3 18 17 41 30.0000000  0  6G 4G24G 7G30G 9G 5
  20908346.794       27378.41549    141880.52147  20908346.763    20908353.523
  20567589.908    -8227912.64049  -6148389.29348  20567589.534    20567597.096
  23187174.545     7172135.99449   5582415.92346  23187173.703    23187183.381
  24012375.394    -5292888.68949  -4112591.77045  24012375.758    24012384.378
  21325332.702      534830.49349    422116.70447  21325332.389    21325339.458
  21405270.623    -9182371.26549  -7131143.36547  21405269.940    21405277.063
 03  3 18 17 42  0.0000000  0  6G 4G24G 7G30G 9G 5
  20916682.915       71184.88349    176015.40447  20916682.902    20916689.641
  20562345.722    -8255470.78349  -6169863.16348  20562345.335    20562352.916
  23199993.463     7239499.57449   5634906.90246  23199992.649    23200002.336
  23993750.475    -5390764.93549  -4188859.03445  23993750.682    23993759.065
  21334209.484      581478.20249    458465.51947  21334209.184    21334216.281
  21392712.441    -9248364.86649  -7182566.93347  21392711.774    21392718.844
 03  3 18 17 42 30.0000000  0  6G 4G24G 7G30G 9G 5
  20925120.676      115525.27949    210566.33547  20925120.660    20925127.398
  20557207.079    -8282474.43049  -6190904.96048  20557206.722    20557214.299
  23212819.480     7306900.44049   5687426.92746  23212818.710    23212828.510
  23975128.416    -5488624.75149  -4265113.49845  23975128.624    23975137.034
  21343184.909      628644.19649    495218.18647  21343184.611    21343191.758
  21380201.282    -9314111.60349  -7233798.14947  21380200.645    21380207.628
 03  3 18 17 43  0.0000000  0  6G 4G24G 7G30G 9G 5
  20933659.537      160397.29249    245531.51147  20933659.529    20933666.291
  20552173.964    -8308923.58749  -6211514.68548  20552173.596    20552181.232
  23225652.522     7374338.30749   5739975.78146  23225651.766    23225661.650
  23956509.821    -5586466.79249  -4341354.06945  23956510.013    23956518.412
  21352258.613      676326.51549    532373.18647  21352258.309    21352265.507
  21367737.509    -9379609.57249  -7284835.51447  21367736.824    21367743.770
 03  3 18 17 43 30.0000000  0  6G 4G24G 7G30G 9G 5
  20942299.223      205798.94049    280909.38747  20942299.208    20942305.987
  20547246.457    -8334817.70749  -6231691.91148  20547246.098    20547253.740
  23238492.520     7441812.34449   5792552.82446  23238491.717    23238501.694
  23937894.663    -5684289.83849  -4417579.86445  23937894.960    23937903.465
  21361430.060      724522.80649    569928.68447  21361429.770    21361437.018
  21355321.295    -9444857.23849  -7335677.84047  21355320.629    21355327.556
 03  3 18 17 44  0.0000000  0  6G 4G24G 7G30G 9G 5
  20951039.168      251727.51949    316697.86347  20951039.147    20951045.929
  20542424.472    -8360157.18749  -6251436.95348  20542424.146    20542431.774
  23251339.154     7509321.70049   5845157.38446  23251338.383    23251348.452
  23919283.389    -5782092.93949  -4493790.14745  23919283.705    23919292.029
  21370698.883      773230.43449    607882.62447  21370698.593    21370705.860
  21342952.987    -9509853.18149  -7386324.01347  21342952.302    21342959.252
 03  3 18 17 44 30.0000000  0  6G 4G24G 7G30G 9G 5
  20959879.123      298182.10249    352896.21147  20959879.138    20959885.956
  20537708.332    -8384940.68349  -6270748.76148  20537708.001    20537715.645
  23264192.522     7576867.40649   5897790.26546  23264191.994    23264202.086
  23900676.358    -5879873.41349  -4569982.72245  23900676.646    23900685.144
  21380064.842      822448.72749    646234.48947  21380064.559    21380071.801
  21330633.100    -9574594.26149  -7436771.59447  21330632.441    21330639.437
 03  3 18 17 45  0.0000000  0  6G 4G24G 7G30G 9G 5
  20968818.626      345159.34349    389501.82747  20968818.609    20968825.436
  20533097.859    -8409168.97749  -6289627.93848  20533097.542    20533105.179
  23277052.753     7644447.67149   5950450.08446  23277052.232    23277062.299
  23882073.771    -5977631.02949  -4646157.54345  23882073.925    23882082.614
  21389527.406      872174.32449    684981.65547  21389527.108    21389534.329
  21318361.833    -9639079.88949  -7487020.11947  21318361.196    21318368.223
 03  3 18 17 45 30.0000000  0  6G 4G24G 7G30G 9G 5
  20977857.138      392656.78249    426512.78647  20977857.102    20977863.967
  20528593.035    -8432842.11649  -6308074.53048  20528592.691    20528600.285
  23289919.635     7712061.69849   6003136.22046  23289918.814    23289928.892
  23863475.603    -6075364.64449  -4722313.62345  23863475.839    23863484.540
  21399085.958      922404.60149    724122.07847  21399085.651    21399092.895
  21306139.461    -9703308.59149  -7537068.44447  21306138.827    21306145.925
 03  3 18 17 46  0.0000000  0  6G 4G24G 7G30G 9G 5
  20986994.466      440673.84749    463928.65047  20986994.436    20987001.359
  20524194.099    -8455958.49049  -6326087.27948  20524193.766    20524201.375
  23302792.861     7779710.55649   6055849.47446  23302792.033    23302802.262
  23844882.516    -6173071.58849  -4798448.92345  23844882.850    23844891.635
  21408740.418      973139.01249    763655.33947  21408740.137    21408747.423
  21293966.654    -9767276.93149  -7586913.88847  21293966.004    21293973.194
 03  3 18 17 46 30.0000000  0  6G 4G24G 7G30G 9G 5
  20996230.259      489208.16949    501747.56347  20996230.222    20996237.171
  20519901.206    -8478517.77749  -6343665.93148  20519900.868    20519908.484
  23315672.653     7847394.24049   6108589.87946  23315671.936    23315682.217
  23826294.748    -6270750.07249  -4874562.05145  23826295.279    23826303.906
  21418490.444     1024375.65949    803579.94847  21418490.188    21418497.524
  21281843.766    -9830982.90949  -7636554.89247  21281843.147    21281850.377
 03  3 18 17 47  0.0000000  0  6G 4G24G 7G30G 9G 5
  21005564.041      538257.45749    539967.74447  21005564.021    21005570.965
  20515714.274    -8500519.98649  -6360810.50148  20515713.937    20515721.524
  23328558.954     7915111.85049   6161356.69846  23328558.255    23328568.583
  23807712.772    -6368398.83049  -4950651.99145  23807713.323    23807721.979
  21428335.644     1076111.99849    843893.92747  21428335.362    21428342.718
  21269771.179    -9894424.96949  -7685990.26047  21269770.534    21269777.767
 03  3 18 17 47 30.0000000  0  6G 4G24G 7G30G 9G 5
  21014995.290      587819.17749    578587.22847  21014995.282    21015002.268
  20511633.361    -8521965.28049  -6377521.11048  20511633.042    20511640.617
  23341451.782     7982862.82249   6214149.53246  23341450.970    23341461.238
  23789136.645    -6466016.88749  -5026718.02345  23789137.233    23789145.924
  21438275.355     1128345.40349    884595.23747  21438275.101    21438282.462
  21257749.068    -9957601.70249  -7735218.87147  21257748.397    21257755.619
 03  3 18 17 48  0.0000000  0  6G 4G24G 7G30G 9G 5
  21024523.760      637891.47349    617604.55647  21024523.765    21024530.765
  20507658.518    -8542853.12249  -6393797.34548  20507658.194    20507665.802
  23354350.753     8050647.11249   6266968.31446  23354350.029    23354360.291
  23770566.685    -6563602.29549  -5102758.61245  23770567.299    23770576.072
  21448309.285     1181074.02849    925682.42647  21448309.025    21448316.410
  21245777.768   -10020510.83649  -7784238.96547  21245777.135    21245784.384
 03  3 18 17 48 30.0000000  0  6G 4G24G 7G30G 9G 5
  21034149.082      688472.62749    657018.39747  21034149.091    21034156.085
  20503789.808    -8563183.44249  -6409639.14248  20503789.452    20503797.090
  23367256.084     8118465.08349   6319813.34146  23367255.396    23367265.811
  23752003.544    -6661152.94849  -5178772.10945  23752004.059    23752012.770
  21458437.210     1234296.34149    967154.30847  21458436.943    21458444.329
  21233857.932   -10083149.71549  -7833048.47147  21233857.336    21233864.609
 03  3 18 17 49  0.0000000  0  6G 4G24G 7G30G 9G 5
  21043870.522      739559.25149    696826.12147  21043870.561    21043877.574
  20500027.004    -8582956.74349  -6425046.90048  20500026.707    20500034.366
  23380167.600     8186315.05849   6372683.31346  23380167.017    23380177.414
  23733447.154    -6758668.36649  -5254758.14345  23733447.546    23733456.311
  21468658.400     1288008.96949   1009008.25647  21468658.147    21468665.559
  21221989.654   -10145517.64349  -7881646.84447  21221989.073    21221996.372
 03  3 18 17 49 30.0000000  0  6G 4G24G 7G30G 9G 5
  21053687.839      791149.38449    737026.18547  21053687.865    21053694.878
  20496370.289    -8602173.04249  -6440020.63048  20496369.978    20496377.619
  23393085.366     8254196.91449   6425578.12646  23393084.674    23393095.063
  23714897.672    -6856146.97049  -5330715.48445  23714898.078    23714906.764
  21478972.490     1342209.76549   1051242.58747  21478972.257    21478979.716
  21210173.428   -10207612.60849  -7930032.51647  21210172.813    21210180.103
 03  3 18 17 50  0.0000000  0  6G 4G24G 7G30G 9G 5
  21063600.611      843241.28649    777617.23447  21063600.653    21063607.667
  20492819.705    -8620831.37449  -6454559.57848  20492819.376    20492827.038
  23406009.204     8322111.04249   6478498.09346  23406008.477    23406018.893
  23696355.573    -6953586.58349  -5406642.44645  23696355.854    23696364.623
  21489379.248     1396897.35949   1093856.25347  21489379.013    21489386.503
  21198409.609   -10269431.94949  -7978203.42047  21198409.017    21198416.252
 03  3 18 17 50 30.0000000  0  6G 4G24G 7G30G 9G 5
  21073608.520      895833.38349    818598.04747  21073608.584    21073615.606
  20489375.389    -8638931.37749  -6468663.46448  20489375.071    20489382.727
  23418939.164     8390057.78349   6531443.47146  23418938.387    23418948.869
  23677821.268    -7050985.00649  -5482537.27845  23677821.505    23677830.430
  21499878.314     1452070.02749   1136847.89747  21499878.104    21499885.597
  21186698.738   -10330973.21249  -8026157.63247  21186698.084    21186705.296
 03  3 18 17 51  0.0000000  0  6G 4G24G 7G30G 9G 5
  21083711.136      948922.91249    859966.47147  21083711.200    21083718.292
  20486037.264    -8656473.44349  -6482332.59448  20486036.932    20486044.629
  23431875.164     8458036.37549   6584413.65246  23431874.421    23431884.957
  23659294.989    -7148340.94849  -5558399.04745  23659295.231    23659304.205
  21510469.137     1507724.98949   1180215.34947  21510468.922    21510476.423
  21175041.033   -10392234.79149  -8073893.90947  21175040.415    21175047.599
 03  3 18 17 51 30.0000000  0  6G 4G24G 7G30G 9G 5
  21093907.966     1002507.42049    901720.59047  21093908.061    21093915.161
  20482805.267    -8673457.43449  -6495566.86448  20482804.969    20482812.647
  23444817.191     8526046.51149   6637408.41046  23444816.411    23444826.931
  23640777.160    -7245653.11149  -5634226.67645  23640777.361    23640786.338
  21521151.315     1563859.97249   1223956.84447  21521151.057    21521158.590
  21163436.859   -10453215.03749  -8121410.97247  21163436.238    21163443.430
 03  3 18 17 52  0.0000000  0  6G 4G24G 7G30G 9G 5
  21104198.599     1056584.95549    943858.89147  21104198.697    21104205.827
  20479679.513    -8689883.38649  -6508366.29048  20479679.213    20479686.874
  23457765.176     8594088.02749   6690427.62046  23457764.407    23457774.955
  23622267.875    -7342919.53849  -5710018.67945  23622268.075    23622277.185
  21531924.399     1620472.69049   1268070.60647  21531924.149    21531931.655
  21151886.639   -10513911.90949  -8168707.22047  21151885.984    21151893.183
 03  3 18 17 52 30.0000000  0  6G 4G24G 7G30G 9G 5
  21114582.776     1111153.95649    986380.15847  21114582.848    21114589.968
  20476660.080    -8705750.63749  -6520730.36748  20476659.773    20476667.430
  23470719.245     8662161.47949   6743471.74246  23470718.529    23470728.990
  23603767.882    -7440137.75049  -5785773.11645  23603768.121    23603777.159
  21542788.092     1677561.73249   1312555.52647  21542787.858    21542795.376
  21140390.868   -10574322.49349  -8215780.38947  21140390.232    21140397.427
 03  3 18 17 53  0.0000000  0  6G 4G24G 7G30G 9G 5
  21125059.754     1166210.14749   1029281.05047  21125059.785    21125066.877
  20473746.562    -8721061.11649  -6532660.59748  20473746.260    20473753.921
  23483678.895     8730264.56449   6796538.92146  23483678.218    23483688.712
  23585276.889    -7537308.27549  -5861490.39445  23585277.202    23585286.218
  21553741.645     1735122.76949   1357408.23247  21553741.385    21553748.923
  21128949.529   -10634446.91949  -8262630.57147  21128948.893    21128956.107
 03  3 18 17 53 30.0000000  0  6G 4G24G 7G30G 9G 5
  21135629.048     1221752.25649   1072560.57647  21135629.088    21135636.230
  20470939.221    -8735813.80749  -6544156.18448  20470938.904    20470946.571
  23496644.375     8798398.32649   6849630.01045  23496643.722    23496654.304
  23566795.581    -7634428.16749  -5937168.23245  23566795.957    23566804.903
  21564784.754     1793154.73249   1402627.89747  21564784.500    21564792.088
  21117563.290   -10694282.18849  -8309255.44347  21117562.626    21117569.830
 03  3 18 17 54  0.0000000  0  6G 4G24G 7G30G 9G 5
  21146290.376     1277777.85649   1116216.84447  21146290.438    21146297.615
  20468237.979    -8750008.85149  -6555217.24448  20468237.684    20468245.347
  23509615.671     8866562.47049   6902744.77245  23509615.091    23509625.664
  23548324.340    -7731495.98749  -6012805.47545  23548324.594    23548333.514
  21575917.033     1851655.11749   1448212.56047  21575916.783    21575924.363
  21106232.414   -10753826.23749  -8355653.39347  21106231.760    21106238.966
 03  3 18 17 54 30.0000000  0  6G 4G24G 7G30G 9G 5
  21157043.476     1334285.21049   1160248.51247  21157043.513    21157050.667
  20465642.893    -8763646.07249  -6565843.63548  20465642.591    20465650.280
  23522592.637     8934757.06249   6955883.26745  23522592.249    23522602.866
  23529863.182    -7828509.51249  -6088400.41745  23529863.475    23529872.370
  21587138.076     1910621.87549   1494160.63447  21587137.815    21587145.416
  21094957.381   -10813076.66549  -8401822.54647  21094956.745    21094963.991
 03  3 18 17 55  0.0000000  0  6G 4G24G 7G30G 9G 5
  21167887.613     1391271.31949   1204653.23247  21167887.646    21167894.779
  20463153.948    -8776725.53849  -6576035.41248  20463153.654    20463161.328
  23535575.514     9002981.56149   7009045.05245  23535575.020    23535585.716
  23511412.824    -7925467.42749  -6163952.02245  23511413.117    23511422.014
  21598447.333     1970052.31649   1540470.02147  21598447.096    21598454.665
  21083738.564   -10872031.89249  -8447761.67147  21083737.942    21083745.168
 03  3 18 17 55 30.0000000  0  6G 4G24G 7G30G 9G 5
  21178822.257     1448733.35749   1249428.80847  21178822.326    21178829.462
  20460770.880    -8789248.64449  -6585793.65848  20460770.573    20460778.266
  23548564.016     9071235.17449   7062229.54545  23548563.348    23548574.017
  23492973.188    -8022368.79349  -6239459.57945  23492973.344    23492982.221
  21609844.298     2029943.42549   1587138.36947  21609844.046    21609851.618
  21072576.244   -10930690.65549  -8493469.78847  21072575.579    21072582.780
 03  3 18 17 56  0.0000000  0  6G 4G24G 7G30G 9G 5
  21189847.209     1506669.58649   1294573.88847  21189847.274    21189854.421
  20458493.782    -8801214.82649  -6595117.93448  20458493.480    20458501.182
  23561558.037     9139518.26949   7115437.01145  23561557.413    23561567.972
  23474544.730    -8119211.11649  -6314921.11045  23474544.881    23474553.740
  21621328.586     2090293.72549   1634164.52747  21621328.356    21621335.972
  21061470.767   -10989050.30149  -8538944.82647  21061470.108    21061477.298
 03  3 18 17 56 30.0000000  0  6G 4G24G 7G30G 9G 5
  21200961.922     1565077.61349   1340086.59947  21200961.999    21200969.165
  20456322.667    -8812624.13649  -6604008.29348  20456322.353    20456330.024
  23574557.709     9207830.64149   7168667.27545  23574557.004    23574567.491
  23456127.813    -8215992.71749  -6390335.30545  23456127.950    23456136.797
  21632899.780     2151100.49149   1681546.37347  21632899.535    21632907.189
  21050422.562   -11047108.84349  -8584185.24047  21050421.896    21050429.097
 03  3 18 17 57  0.0000000  0  6G 4G24G 7G30G 9G 5
  21212165.895     1623954.75749   1385964.85347  21212165.983    21212173.140
  20454257.450    -8823476.96049  -6612465.02748  20454257.152    20454264.793
  23587562.845     9276171.86349   7221919.99945  23587562.090    23587572.495
  23437722.778    -8312712.18449  -6465701.12445  23437722.912    23437731.628
  21644557.341     2212360.93449   1729281.73347  21644557.105    21644564.751
  21039431.964   -11104864.72749  -8629189.81647  21039431.345    21039438.521
 03  3 18 17 57 30.0000000  0  6G 4G24G 7G30G 9G 5
  21223458.869     1683299.36549   1432207.36847  21223458.935    21223466.129
  20452298.203    -8833772.82449  -6620487.75748  20452297.909    20452305.531
  23600573.405     9344542.41249   7275195.59445  23600572.683    23600583.142
  23419330.036    -8409367.06449  -6541016.60045  23419330.065    23419338.780
  21656300.885     2274073.44249   1777369.35347  21656300.655    21656308.274
  21028499.521   -11162315.05749  -8673956.29447  21028498.903    21028506.082
 03  3 18 17 58  0.0000000  0  6G 4G24G 7G30G 9G 5
  21234840.275     1743108.92249   1478812.18747  21234840.336    21234847.551
  20450444.840    -8843512.28849  -6628076.93448  20450444.552    20450452.118
  23613589.565     9412942.15149   7328493.95245  23613588.902    23613599.279
  23400949.854    -8505955.55749  -6616280.31845  23400949.869    23400958.604
  21668130.026     2336235.70549   1825807.43447  21668129.806    21668137.372
  21017625.601   -11219457.96749  -8718483.21647  21017624.961    21017632.170
 03  3 18 17 58 30.0000000  0  6G 4G24G 7G30G 9G 5
  21246309.797     1803381.18849   1525777.55747  21246309.836    21246317.037
  20448697.330    -8852695.68749  -6635232.81248  20448697.012    20448704.560
  23626611.248     9481371.02649   7381815.01545  23626610.548    23626621.093
  23382582.599    -8602475.79349  -6691490.88245  23382582.635    23382591.413
  21680044.272     2398845.28549   1874594.06947  21680044.048    21680051.617
  21006810.495   -11276291.44149  -8762769.02447  21006809.908    21006817.113
 03  3 18 17 59  0.0000000  0  6G 4G24G 7G30G 9G 5
  21257866.745     1864113.25749   1573101.21647  21257866.735    21257873.995
  20447055.470    -8861323.35649  -6641955.65448  20447055.178    20447062.751
  23639638.305     9549828.44049   7435158.29245  23639637.539    23639648.328
  23364228.528    -8698926.54549  -6766647.27245  23364228.691    23364237.453
  21692043.091     2461899.33149   1923727.04247  21692042.871    21692050.497
  20996054.630   -11332813.78349  -8806812.38947  20996054.054    20996061.236
 03  3 18 17 59 30.0000000  0  6G 4G24G 7G30G 9G 5
  21269510.786     1925303.03849   1620781.52047  21269510.824    21269518.077
  20445519.380    -8869395.53349  -6648245.65248  20445519.092    20445526.683
  23652670.829     9618314.50549   7488523.88945  23652670.067    23652681.046
  23345888.149    -8795305.67649  -6841747.87345  23345888.408    23345897.018
  21704126.031     2525395.60049   1973204.60047  21704125.806    21704133.525
  20985358.413   -11389022.89949  -8850611.68847  20985357.819    20985365.018
 03  3 18 18  0  0.0000000  0  6G 4G24G 7G30G 9G 5
  21281241.363     1986947.55549   1668816.16947  21281241.403    21281248.686
  20444088.795    -8876913.24149  -6654103.60048  20444088.492    20444096.091
  23665708.775     9686828.47749   7541911.23645  23665707.892    23665718.948
  23327561.665    -8891611.85049  -6916791.60345  23327561.924    23327570.578
  21716292.541     2589330.99249   2023024.32647  21716292.324    21716300.096
  20974722.060   -11444917.39849  -8894165.83347  20974721.442    20974728.651
 03  3 18 18  0 30.0000000  0  6G 4G24G 7G30G 9G 5
  21293057.979     2049044.67849   1717203.50047  21293058.083    21293065.398
  20442763.737    -8883876.29049  -6659529.34248  20442763.449    20442771.033
  23678751.808     9755370.62949   7595320.52945  23678750.982    23678762.271
  23309249.374    -8987843.15349  -6991776.99045  23309249.623    23309258.358
  21728542.253     2653703.25249   2073184.48247  21728542.023    21728549.741
  20964146.010   -11500494.87949  -8937472.94447  20964145.364    20964152.608
 03  3 18 18  1  0.0000000  0  6G 4G24G 7G30G 9G 5
  21304960.458     2111592.31449   1765941.88447  21304960.543    21304967.849
  20441544.230    -8890284.84949  -6664523.01348  20441543.954    20441551.517
  23691800.279     9823941.19149   7648751.95745  23691799.588    23691811.005
  23290951.812    -9083997.02949  -7066702.07445  23290952.090    23290960.819
  21740874.635     2718510.39249   2123683.49747  21740874.436    21740882.164
  20953630.699   -11555752.89049  -8980531.12047  20953630.064    20953637.360
 03  3 18 18  1 30.0000000  0  6G 4G24G 7G30G 9G 5
  21316947.964     2174586.86849   1815028.51347  21316948.054    21316955.355
  20440429.915    -8896140.48749  -6669085.83948  20440429.655    20440437.240
  23704854.350     9892539.18949   7702204.78745  23704853.531    23704864.880
  23272669.150    -9180072.83849  -7141566.32145  23272669.426    23272678.122
  21753289.127     2783748.92149   2174518.65547  21753288.931    21753296.701
  20943176.427   -11610690.50749  -9023339.63747  20943175.801    20943183.097
 03  3 18 18  2  0.0000000  0  6G 4G24G 7G30G 9G 5
  21329020.207     2238026.44749   1864461.90747  21329020.217    21329027.552
  20439420.826    -8901443.23849  -6673217.84548  20439420.554    20439428.145
  23717913.502     9961164.60149   7755678.98145  23717912.641    23717924.096
  23254401.761    -9276068.44849  -7216368.07045  23254402.062    23254410.796
  21765785.276     2849416.45949   2225688.09747  21765785.100    21765792.891
  20932783.533   -11665305.46049  -9065896.73247  20932782.906    20932790.222
 03  3 18 18  2 30.0000000  0  6G 4G24G 7G30G 9G 5
  21341176.473     2301908.33949   1914239.96047  21341176.541    21341183.916
  20438516.912    -8906193.27749  -6676919.16448  20438516.639    20438524.235
  23730977.802    10029817.57549   7809174.65145  23730976.956    23730988.489
  23236149.991    -9371981.93449  -7291105.81046  23236150.298    23236158.997
  21778362.681     2915510.67949   2277190.02947  21778362.463    21778370.302
  20922452.447   -11719595.62049  -9108200.73847  20922451.828    20922459.152
 03  3 18 18  3  0.0000000  0  6G 4G24G 7G30G 9G 5
  21353416.582     2366230.25549   1964360.89147  21353416.647    21353424.029
  20437718.078    -8910391.14449  -6680190.22048  20437717.812    20437725.432
  23744047.353    10098497.85249   7862691.59445  23744046.518    23744058.123
  23217914.209    -9467811.33649  -7365778.04346  23217914.582    23217923.268
  21791020.707     2982028.82049   2329022.28447  21791020.490    21791028.323
  20912183.515   -11773558.97549  -9150250.09347  20912182.897    20912190.226
 03  3 18 18  3 30.0000000  0  6G 4G24G 7G30G 9G 5
  21365739.970     2430989.86949   2014822.87947  21365740.086    21365747.418
  20437024.213    -8914037.39749  -6683031.45048  20437023.953    20437031.605
  23757122.143    10167205.40449   7916229.76445  23757121.287    23757132.875
  23199694.797    -9563554.85849  -7440383.33946  23199695.215    23199703.883
  21803758.915     3048968.50349   2381183.01147  21803758.722    21803766.606
  20901977.223   -11827193.48149  -9192043.20147  20901976.613    20901983.919
 03  3 18 18  4  0.0000000  0  7G10G 4G24G 7G30G 9G 5
  24579894.584    -2274648.49649  -1467410.16645  24579893.325    24579907.353
  21378145.824     2496182.53049   2065622.30947  21378145.878    21378153.236
  20436434.846    -8917134.61749  -6685444.85348  20436434.581    20436442.225
  23770201.774    10235938.13249   7969787.56845  23770200.902    23770212.458
  23181491.786    -9659212.44849  -7514921.67646  23181492.197    23181500.847
  21816576.548     3116325.39349   2433668.83647  21816576.358    21816584.255
  20891833.474   -11880499.10749  -9233580.03547  20891832.875    20891840.189
 03  3 18 18  4 30.0000000  0  7G10G 4G24G 7G30G 9G 5
  24561064.143    -2373601.34749  -1544516.12145  24561063.149    24561077.122
  21390633.114     2561803.60049   2116755.56447  21390633.173    21390640.520
  20435949.467    -8919685.25149  -6687432.35448  20435949.197    20435956.831
  23783285.743    10304693.96049   8023363.35545  23783284.854    23783296.426
  23163304.994    -9754784.54249  -7589393.37746  23163305.357    23163314.042
  21829472.659     3184094.51849   2486475.88247  21829472.451    21829480.355
  20881752.261   -11933476.14549  -9274860.82947  20881751.684    20881759.002
 03  3 18 18  5  0.0000000  0  7G10G 4G24G 7G30G 9G 5
  24542221.968    -2472616.08649  -1621670.30945  24542221.144    24542235.211
  21403202.848     2627857.47249   2168226.07447  21403202.881    21403210.182
  20435569.302    -8921683.09649  -6688989.10548  20435569.020    20435576.671
  23796375.307    10373479.70249   8076962.47745  23796374.473    23796385.987
  23145136.257    -9850262.09549  -7663791.42346  23145136.545    23145145.182
  21842448.039     3252280.15749   2539607.47947  21842447.828    21842455.758
  20871735.311   -11986115.60549  -9315878.57247  20871734.739    20871742.045
 03  3 18 18  5 30.0000000  0  7G10G 4G24G 7G30G 9G 5
  24523368.409    -2571690.81949  -1698871.25445  24523367.557    24523381.755
  21415854.230     2694340.70049   2220031.14547  21415854.253    21415861.529
  20435293.961    -8923129.57149  -6690116.21548  20435293.740    20435301.414
  23809470.362    10442294.28449   8130584.05845  23809469.537    23809481.075
  23126985.645    -9945644.33049  -7738115.16346  23126985.861    23126994.600
  21855501.976     3320878.75849   2593060.86547  21855501.751    21855509.690
  20861782.834   -12038416.33649  -9356632.36847  20861782.259    20861789.539
 03  3 18 18  6  0.0000000  0  7G10G 4G24G 7G30G 9G 5
  24504504.007    -2670823.68449  -1776117.45245  24504503.165    24504517.466
  21428586.592     2761249.72949   2272168.00447  21428586.658    21428593.926
  20435123.272    -8924026.70449  -6690815.26348  20435123.019    20435130.704
  23822570.781    10511136.55449   8184227.21245  23822569.908    23822581.523
  23108853.190   -10040930.28949  -7812363.91646  23108853.493    23108862.225
  21868633.741     3389886.66049   2646833.19547  21868633.560    21868641.480
  20851894.914   -12090377.63449  -9397121.67147  20851894.344    20851901.618
 03  3 18 18  6 30.0000000  0  7G10G 4G24G 7G30G 9G 5
  24485628.955    -2770012.15349  -1853407.00045  24485628.122    24485642.542
  21441399.402     2828581.57249   2324634.33547  21441399.508    21441406.773
  20435056.934    -8924375.23849  -6691086.83348  20435056.685    20435064.361
  23835676.215    10580005.97049   8237891.52145  23835675.465    23835687.125
  23090739.389   -10136118.54049  -7886536.51746  23090739.694    23090748.478
  21881842.843     3459300.88449   2700922.12647  21881842.685    21881850.634
  20842071.918   -12141997.78249  -9437345.14347  20842071.344    20842078.619
 03  3 18 18  7  0.0000000  0  7G10G 4G24G 7G30G 9G 5
  24466743.829    -2869253.84449  -1930738.03744  24466743.077    24466757.368
  21454292.156     2896333.34249   2377427.87747  21454292.263    21454299.508
  20435094.777    -8924176.19949  -6690931.72348  20435094.578    20435102.247
  23848786.693    10648902.15349   8291576.68045  23848786.029    23848797.861
  23072644.576   -10231207.51649  -7960631.76246  23072644.790    23072653.601
  21895128.729     3529118.19149   2755325.14047  21895128.538    21895136.487
  20832314.070   -12193275.51249  -9477301.79347  20832313.490    20832320.757
 03  3 18 18  7 30.0000000  0  7G10G 4G24G 7G30G 9G 5
  24447849.285    -2968545.41649  -2008107.97145  24447848.527    24447862.592
  21467264.361     2964502.29249   2430546.48847  21467264.422    21467271.684
  20435236.791    -8923430.22249  -6690350.42848  20435236.540    20435244.190
  23861902.492    10717824.89649   8345282.55245  23861901.639    23861913.557
  23054568.898   -10326195.28449  -8034648.12846  23054569.134    23054578.011
  21908490.840     3599336.06049   2810040.29047  21908490.677    21908498.581
  20822621.791   -12244208.66549  -9516989.94547  20822621.199    20822628.462
 03  3 18 18  8  0.0000000  0  7G10G 4G24G 7G30G 9G 5
  24428945.665    -3067884.05049  -2085514.53045  24428944.854    24428959.054
  21480315.420     3033086.00449   2483988.29647  21480315.497    21480322.764
  20435482.582    -8922138.41749  -6689343.81348  20435482.350    20435489.978
  23875023.050    10786774.41049   8399009.27345  23875022.346    23875034.422
  23036512.895   -10421079.87649  -8108584.11246  23036513.164    23036522.027
  21921928.659     3669951.90049   2865065.54147  21921928.494    21921936.409
  20812995.514   -12294795.21149  -9556408.00847  20812994.913    20813002.157
 03  3 18 18  8 30.0000000  0  7G10G 4G24G 7G30G 9G 5
  24410033.702    -3167266.93249  -2162955.56045  24410032.946    24410047.157
  21493444.898     3102081.62349   2537751.07147  21493444.968    21493452.219
  20435832.157    -8920301.34349  -6687912.31448  20435831.938    20435839.572
  23888148.884    10855750.15849   8452756.42945  23888148.199    23888160.283
  23018476.888   -10515859.55449  -8182438.33946  23018477.140    23018486.015
  21935441.625     3740962.64949   2920398.51547  21935441.460    21935449.386
  20803435.457   -12345033.66249  -9595554.82747  20803434.852    20803442.088
 03  3 18 18  9  0.0000000  0  7G10G 4G24G 7G30G 9G 5
  24391113.787    -3266691.18149  -2240428.83745  24391113.064    24391127.316
  21506652.250     3171486.59749   2591832.82547  21506652.305    21506659.563
  20436285.320    -8917919.96349  -6686056.68348  20436285.094    20436292.725
  23901279.811    10924752.14249   8506524.04845  23901278.899    23901291.128
  23000461.149   -10610532.53549  -8256209.42946  23000461.402    23000470.292
  21949029.170     3812365.51349   2976037.03247  21949029.033    21949036.944
  20793942.047   -12394921.93149  -9634428.77747  20793941.434    20793948.666
 03  3 18 18  9 30.0000000  0  8G10G 6G 4G24G 7G30G 9G 5
  24372186.390    -3366155.21549  -2317933.12445  24372185.577    24372199.851
  24821831.370    -1671814.21449  -1057607.36445  24821830.654    24821843.035
  21519936.701     3241296.77449   2646230.32047  21519936.788    21519944.060
  20436841.635    -8914996.49749  -6683778.64948  20436841.399    20436849.005
  23914415.144    10993779.03249   8560311.05545  23914414.365    23914426.540
  22982465.935   -10705098.04849  -8329896.76946  22982466.150    22982475.022
  21962690.658     3884156.49649   3031978.00147  21962690.466    21962698.429
  20784515.329   -12444459.54049  -9673029.48547  20784514.720    20784521.950
 03  3 18 18 10  0.0000000  0  8G10G 6G 4G24G 7G30G 9G 5
  24353252.342    -3465654.32849  -2395464.77445  24353251.435    24353265.709
  24807747.144    -1745826.59349  -1115279.26545  24807746.635    24807759.006
  21533298.158     3311511.28649   2700942.87547  21533298.238    21533305.543
  20437501.323    -8911530.16949  -6681077.60048  20437501.042    20437508.650
  23927555.549    11062832.15049   8614118.48445  23927554.769    23927567.098
  22964491.734   -10799552.67549  -8403497.71846  22964491.983    22964500.775
  21976425.664     3956334.24949   3088220.34747  21976425.457    21976433.494
  20775156.030   -12493642.91749  -9711354.16547  20775155.409    20775162.633
 03  3 18 18 10 30.0000000  0  8G10G 6G 4G24G 7G30G 9G 5
  24334312.109    -3565185.05749  -2473021.03545  24334311.257    24334325.442
  24793674.855    -1819776.33849  -1172902.33045  24793674.316    24793686.566
  21546736.185     3382128.26549   2755969.05047  21546736.235    21546743.557
  20438264.220    -8907520.89849  -6677953.48748  20438263.974    20438271.604
  23940701.267    11131912.18649   8667946.92645  23940700.428    23940712.810
  22946539.268   -10893893.66449  -8477010.12946  22946539.511    22946548.219
  21990233.841     4028896.66349   3144762.40447  21990233.658    21990241.796
  20765864.655   -12542469.31749  -9749400.68147  20765864.061    20765871.242
 03  3 18 18 11  0.0000000  0  8G10G 6G 4G24G 7G30G 9G 5
  24315366.470    -3664744.93149  -2550600.03545  24315365.623    24315379.707
  24779614.555    -1893664.02249  -1230477.03945  24779614.031    24779626.283
  21560250.160     3453144.44449   2811306.28447  21560250.209    21560257.540
  20439130.147    -8902970.31349  -6674407.57248  20439129.935    20439137.535
  23953851.814    11201018.63749   8721795.95445  23953850.913    23953863.490
  22928608.686   -10988119.72749  -8550432.99346  22928608.954    22928617.488
  22004114.703     4101840.96949   3201602.04947  22004114.518    22004122.701
  20756641.413   -12590937.50749  -9787168.07347  20756640.827    20756648.076
 03  3 18 18 11 30.0000000  0  8G10G 6G 4G24G 7G30G 9G 5
  24296415.779    -3764330.81249  -2628199.31245  24296414.902    24296428.863
  24765565.889    -1967489.78949  -1288003.51645  24765565.496    24765577.671
  21573839.587     3524557.18249   2866952.52747  21573839.651    21573847.011
  20440098.969    -8897879.18749  -6670440.45248  20440098.724    20440106.305
  23967007.623    11270151.56449   8775665.59145  23967006.657    23967019.330
  22910700.360   -11082228.61449  -8623764.53946  22910700.602    22910709.067
  22018067.662     4175164.10549   3258736.89047  22018067.499    22018075.726
  20747486.740   -12639045.52549  -9824654.81047  20747486.174    20747493.424
 03  3 18 18 12  0.0000000  0  8G10G 6G 4G24G 7G30G 9G 5
  24277460.769    -3863939.57049  -2705816.37645  24277459.835    24277473.903
  24751529.087    -2041253.80149  -1345481.86645  24751528.713    24751540.773
  21587503.962     3596363.81449   2922905.70747  21587504.032    21587511.422
  20441170.400    -8892248.68049  -6666053.03948  20441170.172    20441177.771
  23980168.260    11339310.50649   8829555.52945  23980167.405    23980179.936
  22892814.639   -11176218.70549  -8697003.51846  22892814.814    22892823.270
  22032092.134     4248862.93349   3316164.47247  22032091.950    22032100.203
  20738400.914   -12686791.54949  -9861859.47347  20738400.374    20738407.637
 03  3 18 18 12 30.0000000  0  8G10G 6G 4G24G 7G30G 9G 5
  24258501.748    -3963568.64749  -2783449.27145  24258500.730    24258515.013
  24737503.747    -2114956.46549  -1402912.47045  24737503.373    24737515.595
  21601242.720     3668561.46149   2979163.56547  21601242.811    21601250.268
  20442344.274    -8886079.85649  -6661246.15648  20442344.030    20442351.619
  23993333.873    11408495.23549   8883465.52145  23993333.021    23993345.466
  22874951.843   -11270088.26749  -8770148.58746  22874951.981    22874960.421
  22046187.557     4322934.57349   3373882.54647  22046187.372    22046195.665
  20729384.328   -12734174.06149  -9898780.88047  20729383.756    20729391.026
 03  3 18 18 13  0.0000000  0  8G10G 6G 4G24G 7G30G 9G 5
  24239539.550    -4063214.68949  -2861095.43145  24239538.737    24239552.709
  24723490.181    -2188597.46349  -1460294.99845  24723489.834    24723502.119
  21615055.432     3741147.74049   3035724.25447  21615055.558    21615063.039
  20443620.494    -8879373.29049  -6656020.25148  20443620.236    20443627.862
  24006504.455    11477706.15149   8937395.92045  24006503.502    24006515.980
  22857112.573   -11363834.75849  -8843197.73746  22857112.590    22857121.043
  22060353.484     4397376.75949   3431889.36447  22060353.315    22060361.617
  20720437.307   -12781190.68049  -9935417.17647  20720436.730    20720444.004
 03  3 18 18 13 30.0000000  0  8G10G 6G 4G24G 7G30G 9G 5
  24220574.729    -4162874.66749  -2938752.46045  24220573.876    24220587.753
  24709488.425    -2262176.76149  -1517629.43645  24709488.117    24709500.477
  21628941.608     3814120.08749   3092585.77847  21628941.755    21628949.248
  20444998.863    -8872129.62049  -6650375.82848  20444998.632    20445006.277
  24019679.880    11546943.26549   8991346.73445  24019679.101    24019691.394
  22839296.799   -11457456.22449  -8916149.48246  22839296.944    22839305.370
  22074589.393     4472186.53349   3490182.61047  22074589.220    22074597.514
  20711560.304   -12827839.43949  -9971766.82847  20711559.766    20711567.027
 03  3 18 18 14  0.0000000  0  8G10G 6G 4G24G 7G30G 9G 5
  24201607.722    -4262545.17849  -3016417.69345  24201606.917    24201620.931
  24695498.465    -2335694.23249  -1574915.72045  24695498.123    24695510.464
  21642900.877     3887476.00949   3149746.19347  21642900.981    21642908.419
  20446479.331    -8864349.94649  -6644313.73748  20446479.077    20446486.681
  24032860.536    11616206.61349   9045318.00545  24032859.747    24032872.005
  22821505.384   -11550950.44449  -8989002.07246  22821505.590    22821514.009
  22088894.704     4547360.99149   3548760.03347  22088894.536    22088902.807
  20702753.657   -12874118.41549 -10007828.33847  20702753.122    20702760.408
 03  3 18 18 14 30.0000000  0  8G10G 6G 4G24G 7G30G 9G 5
  24182639.443    -4362223.76849  -3094089.18145  24182638.677    24182652.640
  24681519.947    -2409150.52449  -1632154.32245  24681519.710    24681532.094
  21656932.447     3961212.16349   3207202.89347  21656932.537    21656939.966
  20448061.397    -8856035.78449  -6637835.16248  20448061.162    20448068.791
  24046045.993    11685495.69149   9099309.31045  24046045.209    24046057.513
  22803738.432   -11644315.98649  -9061754.38846  22803738.680    22803747.079
  22103268.872     4622897.19449   3607619.33347  22103268.695    22103276.900
  20694017.677   -12920026.08249 -10043600.52147  20694017.170    20694024.430
 03  3 18 18 15  0.0000000  0  8G10G 6G 4G24G 7G30G 9G 5
  24163670.250    -4461907.11349  -3171764.41245  24163669.350    24163683.277
  24667553.319    -2482545.74949  -1689345.37145  24667553.059    24667565.430
  21671035.867     4035326.27149   3264954.10947  21671036.004    21671043.440
  20449745.091    -8847187.95149  -6630940.74048  20449744.856    20449752.471
  24059236.317    11754810.71049   9153320.83845  24059235.597    24059247.795
  22785996.423   -11737550.72849  -9134404.79046  22785996.603    22786005.081
  22117711.316     4698792.35349   3666758.34547  22117711.117    22117719.312
  20685352.837   -12965560.36149 -10079081.75447  20685352.289    20685359.540
 03  3 18 18 15 30.0000000  0  8G10G 6G 4G24G 7G30G 9G 5
  24144700.617    -4561592.51249  -3249441.22445  24144699.763    24144713.631
  24653598.161    -2555880.22849  -1746489.07345  24653597.780    24653610.418
  21685210.724     4109815.29149   3322997.46547  21685210.821    21685218.268
  20451530.139    -8837807.74949  -6623631.48548  20451529.890    20451537.487
  24072431.860    11824151.33649   9207352.30345  24072430.972    24072443.103
  22768279.587   -11830652.69849  -9206951.72846  22768279.798    22768288.294
  22132221.471     4775043.47949   3726174.72747  22132221.272    22132229.543
  20676759.311   -13010719.48649 -10114270.65847  20676758.788    20676766.015
 03  3 18 18 16  0.0000000  0  8G10G 6G 4G24G 7G30G 9G 5
  24125731.512    -4661276.22449  -3327116.78045  24125730.584    24125744.419
  24639654.903    -2629153.50249  -1803585.08945  24639654.562    24639666.987
  21699456.536     4184677.00649   3381331.22447  21699456.559    21699463.993
  20453416.241    -8827896.26049  -6615908.23948  20453415.975    20453423.563
  24085632.002    11893517.95949   9261404.07345  24085631.204    24085643.093
  22750588.433   -11923619.40249  -9279393.25646  22750588.775    22750597.310
  22146798.887     4851648.03349   3785866.50147  22146798.690    22146806.988
  20668237.626   -13055501.22849 -10149165.49747  20668237.067    20668244.303
 03  3 18 18 16 30.0000000  0  8G10G 6G 4G24G 7G30G 9G 5
  24106763.112    -4760955.92649  -3404789.20745  24106762.276    24106775.964
  24625723.049    -2702366.13049  -1860633.84245  24625722.697    24625734.837
  21713772.587     4259908.53149   3439953.14747  21713772.668    21713780.129
  20455403.224    -8817454.36849  -6607771.68948  20455402.979    20455410.560
  24098837.074    11962910.24849   9315475.81345  24098836.303    24098848.101
  22732923.549   -12016449.27649  -9351728.16146  22732923.774    22732932.336
  22161442.984     4928602.80049   3845831.18047  22161442.792    22161451.038
  20659788.028   -13099904.26549 -10183765.24547  20659787.477    20659794.708
 03  3 18 18 17  0.0000000  0  8G10G 6G 4G24G 7G30G 9G 5
  24087796.251    -4860627.93149  -3482455.60145  24087795.436    24087809.019
  24611802.850    -2775517.88249  -1917635.16445  24611802.543    24611814.528
  21728158.593     4335507.21749   3498861.16847  21728158.649    21728166.154
  20457491.076    -8806482.83949  -6599222.43848  20457490.824    20457498.374
  24112047.065    12032328.36349   9369567.69145  24112046.308    24112058.239
  22715285.075   -12109139.92849  -9423954.57446  22715285.265    22715293.850
  22176153.288     5005905.12049   3906066.68047  22176153.059    22176161.258
  20651410.864   -13143926.48749 -10218068.25947  20651410.326    20651417.507
 03  3 18 18 17 30.0000000  0  8G10G 6G 4G24G 7G30G 9G 5
  24068831.299    -4960289.56349  -3560113.92745  24068830.445    24068844.025
  24597893.919    -2848609.19349  -1974589.38145  24597893.763    24597905.734
  21742613.856     4411470.06849   3558052.95247  21742613.941    21742621.482
  20459679.420    -8794983.14749  -6590261.63148  20459679.159    20459686.671
  24125261.754    12101772.10449   9423679.51445  24125261.129    24125273.040
  22697673.393   -12201689.55849  -9496071.09446  22697673.617    22697682.167
  22190929.054     5083551.97449   3966570.64947  22190928.810    22190936.993
  20643106.556   -13187566.13649 -10252073.15847  20643105.965    20643113.101
 03  3 18 18 18  0.0000000  0  8G10G 6G 4G24G 7G30G 9G 5
  24049869.079    -5059936.87949  -3637761.11045  24049868.183    24049881.562
  24583996.623    -2921639.27549  -2031495.88045  24583996.493    24584008.544
  21757138.160     4487795.50149   3617527.27247  21757138.277    21757145.806
  20461968.177    -8782955.73149  -6580889.61348  20461967.924    20461975.416
  24138481.805    12171242.25749   9477811.91845  24138481.047    24138493.096
  22680089.120   -12294095.18949  -9568075.40646  22680089.401    22680097.927
  22205769.927     5161541.22749   4027341.41547  22205769.725    22205777.944
  20634875.500   -13230820.48149 -10285777.82747  20634874.913    20634882.016
 03  3 18 18 18 30.0000000  0  8G10G 6G 4G24G 7G30G 9G 5
  24030909.464    -5159570.55149  -3715397.67445  24030908.559    24030921.775
  24570110.219    -2994611.84449  -2088357.53745  24570110.167    24570122.204
  21771730.276     4564477.20649   3677279.21147  21771730.365    21771737.894
  20464356.414    -8770405.48949  -6571110.19448  20464356.161    20464363.677
  24151706.045    12240735.15449   9531962.03445  24151705.142    24151717.295
  22662532.001   -12386358.44149  -9639968.75446  22662532.245    22662540.761
  22220674.743     5239866.36049   4088373.89747  22220674.517    22220682.788
  20626717.465   -13273691.30849 -10319183.65147  20626716.881    20626723.963
 03  3 18 18 19  0.0000000  0  8G10G 6G 4G24G 7G30G 9G 5
  24011953.789    -5259183.05149  -3793017.73645  24011952.931    24011966.094
  24556235.679    -3067522.66149  -2145171.08645  24556235.631    24556247.639
  21786390.439     4641516.72749   3737309.95847  21786390.556    21786398.113
  20466844.770    -8757329.14149  -6560920.82448  20466844.518    20466852.039
  24164935.316    12310255.03949   9586133.16445  24164934.523    24164946.646
  22645003.151   -12478472.95749  -9711746.22746  22645003.410    22645011.851
  22235643.762     5318528.79349   4149669.23747  22235643.524    22235651.817
  20618633.551   -13316172.47049 -10352285.83847  20618633.007    20618640.029
 03  3 18 18 19 30.0000000  0  8G10G 6G 4G24G 7G30G 9G 5
  23993002.803    -5358771.11949  -3870618.74645  23993001.931    23993015.039
  24542372.955    -3140371.88149  -2201936.64645  24542372.759    24542384.839
  21801118.168     4718911.37149   3797617.42047  21801118.300    21801125.838
  20469433.008    -8743727.93949  -6550322.48448  20469432.737    20469440.223
  24178169.842    12379802.18949   9640325.53345  24178169.111    24178181.231
  22627503.065   -12570436.48249  -9783406.05246  22627503.336    22627511.721
  22250676.380     5397525.67049   4211225.17247  22250676.148    22250684.501
  20610624.154   -13358262.13949 -10385082.97147  20610623.602    20610630.585
 03  3 18 18 20  0.0000000  0  8G10G 6G 4G24G 7G30G 9G 5
  23974056.851    -5458332.48349  -3948198.94545  23974055.896    23974069.107
  24528521.741    -3213160.52849  -2258655.02945  24528521.507    24528533.579
  21815912.840     4796657.44349   3858198.72047  21815912.908    21815920.485
  20472120.732    -8729603.86549  -6539316.70948  20472120.466    20472127.980
  24191409.414    12449375.67549   9694538.42645  24191408.676    24191420.842
  22610032.048   -12662247.79149  -9854947.25546  22610032.201    22610040.524
  22265771.898     5476853.11549   4273038.70947  22265771.687    22265780.042
  20602689.424   -13399959.41049 -10417574.33447  20602688.875    20602695.833
 03  3 18 18 20 30.0000000  0  8G10G 6G 4G24G 7G30G 9G 5
  23955116.549    -5557864.23349  -4025756.04845  23955115.559    23955128.713
  24514682.121    -3285888.93449  -2315326.45245  24514681.889    24514693.747
  21830773.773     4874752.22049   3919051.74947  21830773.890    21830781.472
  20474907.638    -8714958.40349  -6527904.66448  20474907.377    20474914.910
  24204653.993    12518975.11649   9748771.54845  24204653.127    24204665.397
  22592590.196   -12753905.05049  -9926368.43146  22592590.355    22592598.639
  22280929.733     5556507.87549   4335107.29247  22280929.553    22280937.885
  20594829.668   -13441262.69949 -10449758.70147  20594829.116    20594836.087
 03  3 18 18 21  0.0000000  0  8G10G 6G 4G24G 7G30G 9G 5
  23936182.432    -5657362.69449  -4103287.21845  23936181.436    23936194.659
  24500853.757    -3358556.53149  -2371950.49945  24500853.572    24500865.517
  21845700.720     4953193.36449   3980174.66047  21845700.806    21845708.394
  20477793.659    -8699792.27549  -6516086.90748  20477793.409    20477800.910
  24217903.249    12588601.19949   9803025.39645  24217902.405    24217915.016
  22575178.104   -12845405.61449  -9997667.50346  22575178.349    22575186.573
  22296149.426     5636487.68749   4397429.15647  22296149.237    22296157.632
  20587045.347   -13482169.60249 -10481634.19147  20587044.756    20587051.727
 03  3 18 18 21 30.0000000  0  8G10G 6G 4G24G 7G30G 9G 5
  23917255.195    -5756824.87249  -4180790.11545  23917254.290    23917267.566
  24487037.173    -3431163.78049  -2428527.54345  24487036.957    24487048.722
  21860693.060     5031978.22449   4041565.39147  21860693.127    21860700.747
  20480778.515    -8684106.97749  -6503864.59948  20480778.222    20480785.693
  24231157.703    12658253.70849   9857299.81845  24231156.888    24231169.577
  22557796.362   -12936747.44349 -10068842.88046  22557796.533    22557804.716
  22311430.445     5716789.55349   4460001.97847  22311430.238    22311438.642
  20579336.761   -13522678.37149 -10513199.45847  20579336.212    20579343.141
 03  3 18 18 22  0.0000000  0  8G10G 6G 4G24G 7G30G 9G 5
  23898335.353    -5856248.06949  -4258262.64345  23898334.398    23898347.577
  24473231.771    -3503711.24149  -2485057.98445  24473231.614    24473243.511
  21875750.108     5111103.51749   4103221.40547  21875750.213    21875757.896
  20483861.781    -8667904.30049  -6491239.14648  20483861.468    20483868.941
  24244417.408    12727932.08449   9911594.35145  24244416.519    24244429.146
  22540445.011   -13027929.00549 -10139893.39346  22540445.215    22540453.351
  22326772.088     5797410.18649   4522823.18947  22326771.877    22326780.318
  20571704.212   -13562787.83249 -10544453.57147  20571703.626    20571710.545
 03  3 18 18 22 30.0000000  0  8G10G 6G 4G24G 7G30G 9G 5
  23879423.726    -5955629.28749  -4335702.44545  23879422.889    23879435.869
  24459437.853    -3576198.93849  -2541541.88645  24459437.614    24459449.455
  21890871.480     5190566.51349   4165140.56847  21890871.555    21890879.220
  20487043.206    -8651185.54349  -6478211.54648  20487042.925    20487050.371
  24257681.787    12797636.67049   9965909.33845  24257680.957    24257693.790
  22523124.543   -13118948.07149 -10210817.28146  22523124.815    22523132.949
  22342173.900     5878346.66549   4585890.51347  22342173.645    22342182.121
  20564147.947   -13602496.03349 -10575395.01247  20564147.377    20564154.288
 03  3 18 18 23  0.0000000  0  8G10G 6G 4G24G 7G30G 9G 5
  23860520.644    -6054965.00949  -4413106.80045  23860519.757    23860532.949
  24445655.267    -3648626.82149  -2597979.18845  24445655.025    24445666.943
  21906056.597     5270364.57949   4227320.83547  21906056.682    21906064.357
  20490322.686    -8633951.88949  -6464782.72848  20490322.405    20490329.786
  24270951.122    12867367.49549  10020244.78045  24270950.360    24270963.359
  22505835.512   -13209802.40249 -10281612.81146  22505835.774    22505843.873
  22357635.140     5959595.99149   4649201.61547  22357634.911    22357643.415
  20556668.336   -13641801.26249 -10606022.45547  20556667.785    20556674.694
 03  3 18 18 23 30.0000000  0  8G10G 6G 4G24G 7G30G 9G 5
  23841626.771    -6154252.42049  -4490473.52945  23841625.806    23841639.101
  24431883.906    -3720995.40749  -2654370.25045  24431883.689    24431895.622
  21921304.924     5350494.58249   4289759.75347  21921304.926    21921312.661
  20493699.821    -8616204.96449  -6450953.96348  20493699.547    20493706.945
  24284225.646    12937124.31749  10074600.58745  24284224.980    24284237.740
  22488578.250   -13300490.18249 -10352278.55246  22488578.451    22488586.533
  22373155.283     6041154.71349   4712753.79947  22373155.047    22373163.643
  20549265.792   -13680702.01549 -10636334.71747  20549265.200    20549272.076
 03  3 18 18 24  0.0000000  0  8G10G 6G 4G24G 7G30G 9G 5
  23822742.929    -6253487.86849  -4567799.75545  23822741.899    23822755.241
  24418123.941    -3793304.19749  -2710714.72245  24418123.695    24418135.666
  21936615.871     5430954.70749   4352455.91147  21936615.977    21936623.794
  20497174.508    -8597945.44349  -6436725.77448  20497174.212    20497181.591
  24297505.184    13006907.48849  10128976.90945  24297504.508    24297517.213
  22471353.127   -13391008.60349 -10422812.32946  22471353.416    22471361.384
  22388733.792     6123020.41049   4776545.18147  22388733.612    22388742.215
  20541940.663   -13719195.82149 -10666329.88547  20541940.071    20541946.966
 03  3 18 18 24 30.0000000  0  8G10G 6G 4G24G 7G30G 9G 5
  23803869.380    -6352667.99749  -4645082.85845  23803868.525    23803881.836
  24404375.307    -3865553.31949  -2767012.67245  24404375.003    24404387.148
  21951989.209     5511741.93449   4415406.95347  21951989.304    21951997.134
  20500746.358    -8579175.15149  -6422099.58248  20500746.079    20500753.478
  24310789.697    13076717.30249  10183373.96545  24310788.961    24310801.936
  22454160.733   -13481355.65049 -10493212.56246  22454160.898    22454168.845
  22404370.266     6205190.11549   4840573.45447  22404370.037    22404378.660
  20534693.230   -13757280.97949 -10696006.62447  20534692.688    20534699.582
 03  3 18 18 25  0.0000000  0  8G10G 6G 4G24G 7G30G 9G 5
  23785007.044    -6451790.15749  -4722320.78245  23785006.273    23785019.491
  24390637.910    -3937743.30849  -2823264.56345  24390637.723    24390649.671
  21967424.339     5592853.41449   4478610.64947  21967424.359    21967432.174
  20504415.140    -8559895.48449  -6407076.47548  20504414.859    20504422.303
  24324079.085    13146553.39649  10237791.54445  24324078.380    24324091.447
  22437001.172   -13571529.33849 -10563477.71046  22437001.377    22437009.348
  22420063.978     6287660.72449   4904836.20247  22420063.813    22420072.381
  20527523.940   -13794956.07749 -10725363.84147  20527523.371    20527530.253
 03  3 18 18 25 30.0000000  0  8G10G 6G 4G24G 7G30G 9G 5
  23766156.485    -6550850.57649  -4799510.59545  23766155.583    23766168.956
  24376911.933    -4009873.58649  -2879469.91945  24376911.735    24376923.749
  21982920.685     5674286.97649   4542065.32447  21982920.690    21982928.530
  20508180.788    -8540107.02149  -6391656.90348  20508180.502    20508187.976
  24337373.641    13216416.33849  10292230.05145  24337372.938    24337386.163
  22419875.120   -13661526.96649 -10633605.66846  22419875.293    22419883.292
  22435814.532     6370429.75649   4969331.47647  22435814.319    22435822.884
  20520433.108   -13832218.69749 -10754399.64447  20520432.530    20520439.438
 03  3 18 18 26  0.0000000  0  8G10G 6G 4G24G 7G30G 9G 5
  23747318.113    -6649846.13049  -4876649.85445  23747317.354    23747330.627
  24363197.260    -4081944.53649  -2935629.04245  24363197.070    24363209.015
  21998477.784     5756039.59249   4605768.63147  21998477.741    21998485.598
  20512042.849    -8519811.93149  -6375842.55448  20512042.548    20512050.003
  24350673.377    13286305.78849  10346689.18845  24350672.650    24350685.887
  22402782.886   -13751346.63749 -10703594.95446  22402783.136    22402791.147
  22451621.232     6453494.02249   5034056.81347  22451620.976    22451629.530
  20513421.007   -13869067.48149 -10783112.97648  20513420.435    20513427.371
 03  3 18 18 26 30.0000000  0  8G10G 6G 4G24G 7G30G 9G 5
  23728492.720    -6748773.74049  -4953736.17345  23728492.007    23728505.279
  24349493.901    -4153956.19549  -2991741.98745  24349493.666    24349505.476
  22014095.027     5838108.54849   4669718.42347  22014095.019    22014102.882
  20516001.043    -8499011.43449  -6359634.38448  20516000.778    20516008.231
  24363977.924    13356221.86249  10401169.07745  24363977.369    24363990.497
  22385725.019   -13840986.08749 -10773443.81446  22385725.215    22385733.235
  22467483.413     6536850.55349   5099009.87947  22467483.245    22467491.841
  20506488.028   -13905500.59349 -10811502.41248  20506487.464    20506494.411
 03  3 18 18 27  0.0000000  0  8G10G 6G 4G24G 7G30G 9G 5
  23709680.894    -6847629.91249  -5030766.79545  23709680.140    23709693.516
  24335801.726    -4225908.63549  -3047808.77045  24335801.455    24335813.445
  22029771.983     5920491.35549   4733912.76947  22029771.986    22029779.866
  20520055.183    -8477706.87549  -6343033.43648  20520054.912    20520062.402
  24377287.839    13426164.87649  10455669.96245  24377287.295    24377300.355
  22368701.829   -13930443.00049 -10843150.43846  22368702.080    22368710.082
  22483400.763     6620496.52749   5164188.48446  22483400.566    22483409.204
  20499634.507   -13941516.12349 -10839566.45848  20499633.949    20499640.884
 03  3 18 18 27 30.0000000  0  8G10G 6G 4G24G 7G30G 9G 5
  23690883.254    -6946411.99449  -5107739.72945  23690882.474    23690895.786
  24322120.646    -4297802.44549  -3103829.86645  24322120.377    24322132.335
  22045508.055     6003184.76149   4798349.14647  22045508.052    22045515.992
  20524204.796    -8455900.36549  -6326041.35648  20524204.529    20524212.070
  24390602.868    13496134.31949  10510191.45245  24390602.247    24390615.337
  22351713.880   -14019715.58849 -10912713.43446  22351714.060    22351722.023
  22499372.516     6704428.30849   5229589.80446  22499372.328    22499380.932
  20492860.685   -13977112.89349 -10867304.19748  20492860.098    20492867.084
 03  3 18 18 28  0.0000000  0  8G10G 6G 4G24G 7G30G 9G 5
  23672100.288    -7045116.29249  -5184652.02345  23672099.547    23672112.820
  24308450.903    -4369637.11149  -3159804.86145  24308450.610    24308462.707
  22061302.762     6086186.65349   4863025.90847  22061302.788    22061310.787
  20528449.785    -8433592.74049  -6308658.79348  20528449.520    20528457.083
  24403922.736    13566130.78749  10564733.94945  24403922.246    24403935.254
  22334761.392   -14108801.08549 -10982130.63546  22334761.586    22334769.566
  22515398.169     6788643.53949   5295211.98346  22515398.004    22515406.644
  20486166.923   -14012288.54549 -10894713.79148  20486166.362    20486173.373
 03  3 18 18 28 30.0000000  0  8G10G 6G 4G24G 7G30G 9G 5
  23653332.769    -7143739.38449  -5261501.03745  23653332.039    23653345.476
  24294792.420    -4441412.59749  -3215733.72745  24294792.096    24294804.053
  22077155.703     6169494.35849   4927940.94047  22077155.733    22077163.737
  20532789.930    -8410785.11049  -6290886.62048  20532789.665    20532797.237
  24417247.926    13636154.42749  10619297.64545  24417247.301    24417260.430
  22317844.883   -14197697.31849 -11051400.36546  22317845.088    22317853.077
  22531477.202     6873139.40349   5361052.84546  22531477.073    22531485.709
  20479553.689   -14047041.38649 -10921793.92748  20479553.150    20479560.143
 03  3 18 18 29  0.0000000  0  8G10G 6G 4G24G 7G30G 9G 5
  23634581.414    -7242278.73749  -5338284.80445  23634580.481    23634593.911
  24281145.318    -4513129.47949  -3271616.93645  24281144.693    24281156.712
  22093066.274     6253104.88049   4993091.95347  22093066.278    22093074.315
  20537224.831    -8387479.72149  -6272726.58548  20537224.565    20537232.141
  24430578.113    13706204.86649  10673882.27545  24430577.583    24430590.584
  22300964.868   -14286402.32649 -11120521.08346  22300965.053    22300973.007
  22547609.111     6957912.57649   5427109.78346  22547608.935    22547617.645
  20473021.162   -14081370.10249 -10948543.57148  20473020.623    20473027.586
 03  3 18 18 29 30.0000000  0  8G10G 6G 4G24G 7G30G 9G 5
  23615846.500    -7340730.82449  -5415000.58145  23615845.561    23615858.872
  24267509.213    -4584787.79349  -3327454.53645  24267508.733    24267520.458
  22109033.900     6337015.41149   5058476.72847  22109033.954    22109042.015
  20541754.083    -8363678.20649  -6254179.95948  20541753.830    20541761.406
  24443913.584    13776282.48249  10728488.03745  24443913.120    24443926.000
  22284121.581   -14374913.93849 -11189491.09646  22284121.774    22284129.724
  22563793.124     7042959.97649   5493380.40146  22563792.971    22563801.671
  20466569.680   -14115272.84749 -10974961.28948  20466569.169    20466576.126
 03  3 18 18 30  0.0000000  0  8G10G 6G 4G24G 7G30G 9G 5
  23597128.709    -7439092.21049  -5491645.65845  23597127.878    23597141.152
  24253884.125    -4656387.62049  -3383246.51445  24253883.686    24253895.526
  22125058.184     6421223.64549   5124093.48947  22125058.261    22125066.375
  20546377.594    -8339381.68349  -6235247.60748  20546377.349    20546384.922
  24457254.514    13846387.21349  10783114.94345  24457253.666    24457266.808
  22267315.496   -14463229.58249 -11258308.40046  22267315.788    22267323.761
  22580028.838     7128278.65349   5559862.40646  22580028.671    22580037.328
  20460199.582   -14148747.86049 -11001045.71248  20460199.059    20460206.028
 03  3 18 18 30 30.0000000  0  8G10G 6G 4G24G 7G30G 9G 5
  23578429.033    -7537359.18849  -5568217.22345  23578428.164    23578441.376
  24240270.210    -4727928.57449  -3438992.65345  24240269.870    24240281.755
  22141138.711     6505727.05149   5189940.25747  22141138.779    22141146.938
  20551095.063    -8314591.19749  -6215930.34848  20551094.783    20551102.390
  24470600.018    13916519.74649  10837763.50845  24470599.536    24470612.704
  22250547.271   -14551346.68749 -11326971.02146  22250547.607    22250555.635
  22596315.654     7213866.04049   5626553.80446  22596315.506    22596324.150
  20453911.293   -14181793.13749 -11026795.27648  20453910.782    20453917.757
 03  3 18 18 31  0.0000000  0  8G10G 6G 4G24G 7G30G 9G 5
  23559747.943    -7635528.70749  -5644712.83045  23559747.056    23559760.288
  24226667.624    -4799410.95049  -3494693.15045  24226667.387    24226679.074
  22157274.816     6590522.75549   5256014.77647  22157274.918    22157283.059
  20555906.101    -8289309.09749  -6196230.01648  20555905.843    20555913.429
  24483951.327    13986679.66049  10892433.42045  24483950.783    24483964.009
  22233817.204   -14639263.26749 -11395477.37146  22233817.529    22233825.623
  22612652.970     7299719.09449   5693452.19946  22612652.846    22612661.514
  20447705.014   -14214407.34149 -11052208.94148  20447704.519    20447711.459
 03  3 18 18 31 30.0000000  0  8G10G 6G 4G24G 7G30G 9G 5
  23541085.808    -7733598.19449  -5721130.48945  23541084.906    23541098.121
  24213075.997    -4870835.50849  -3550348.57045  24213075.687    24213087.365
  22173465.921     6675607.44449   5322314.47647  22173466.019    22173474.208
  20560810.374    -8263537.27049  -6176148.07848  20560810.107    20560817.643
  24497307.838    14056866.59449  10947124.37245  24497307.067    24497320.236
  22217125.587   -14726977.67249 -11463826.18946  22217125.924    22217134.066
  22629040.128     7385834.02049   5760554.64746  22629040.012    22629048.723
  20441581.037   -14246589.17349 -11077285.69248  20441580.508    20441587.478
 03  3 18 18 32  0.0000000  0  8G10G 6G 4G24G 7G30G 9G 5
  23522443.537    -7831564.13949  -5797467.49345  23522442.522    23522455.629
  24199495.486    -4942202.02449  -3605958.75045  24199495.128    24199506.652
  22189711.612     6760978.80749   5388837.56347  22189711.702    22189719.875
  20565807.441    -8237277.26949  -6155685.74348  20565807.198    20565814.739
  24510669.184    14127080.79249  11001836.54645  24510668.537    24510681.652
  22200472.928   -14814487.43649 -11532015.54146  22200473.342    22200481.486
  22645476.605     7472208.02449   5827858.96346  22645476.503    22645485.278
  20435539.606   -14278336.99849 -11102024.24948  20435539.091    20435546.095
 03  3 18 18 32 30.0000000  0  8G10G 6G 4G24G 7G30G 9G 5
  23503821.511    -7929422.89349  -5873720.96545  23503820.574    23503833.578
  24185925.852    -5013510.33049  -3661523.61045  24185925.493    24185937.251
  22206011.359     6846634.37449   5455582.10246  22206011.478    22206019.650
  20570897.195    -8210530.25449  -6134843.91148  20570896.974    20570904.537
  24524035.895    14197322.80349  11056570.42445  24524035.084    24524048.561
  22183859.820   -14901789.92649 -11600043.37446  22183860.183    22183868.331
  22661961.833     7558838.29849   5895362.97246  22661961.730    22661970.576
  20429581.143   -14309648.74049 -11126422.99848  20429580.636    20429587.710
 03  3 18 18 33  0.0000000  0  8G10G 6G 4G24G 7G30G 9G 5
  23485220.524    -8027171.12749  -5949888.31445  23485219.661    23485232.633
  24172367.361    -5084760.48149  -3717043.12445  24172366.989    24172378.770
  22222364.635     6932571.45249   5522546.00646  22222364.787    22222372.972
  20576079.336    -8183297.83949  -6113623.85148  20576079.117    20576086.673
  24537407.733    14267592.54149  11111325.87845  24537407.176    24537420.483
  22167286.632   -14988882.66649 -11667907.79046  22167286.927    22167295.036
  22678495.361     7645722.04649   5963064.50246  22678495.264    22678504.141
  20423706.004   -14340522.53349 -11150480.49348  20423705.503    20423712.607
 03  3 18 18 33 30.0000000  0  8G10G 6G 4G24G 7G30G 9G 5
  23466641.100    -8124805.77749  -6025967.15845  23466640.323    23466653.204
  24158819.981    -5155952.63449  -3772517.45045  24158819.557    24158831.311
  22238771.016     7018787.21849   5589727.05946  22238771.159    22238779.320
  20581353.458    -8155582.05549  -6092027.13348  20581353.256    20581360.832
  24550785.266    14337890.12149  11166103.02245  24550784.516    24550797.900
  22150753.662   -15075763.70749 -11735607.24246  22150753.972    22150762.065
  22695076.434     7732855.89449   6030960.91146  22695076.345    22695085.277
  20417914.494   -14370956.97449 -11174195.63148  20417914.002    20417921.128
 03  3 18 18 34  0.0000000  0  8G10G 6G 4G24G 7G30G 9G 5
  23448084.059    -8222323.49849  -6101954.88645  23448083.270    23448096.135
  24145283.393    -5227086.91949  -3827946.68245  24145283.029    24145294.820
  22255229.867     7105279.00649   5657123.20546  22255230.035    22255238.218
  20586719.326    -8127384.26349  -6070054.82648  20586719.121    20586726.714
  24564167.759    14408215.58749  11220901.87745  24564167.131    24564180.758
  22134261.441   -15162430.76249 -11803139.94446  22134261.760    22134269.836
  22711704.549     7820236.88949   6099049.89846  22711704.434    22711713.400
  20412206.921   -14400950.46249 -11197567.16948  20412206.444    20412213.577
 03  3 18 18 34 30.0000000  0  8G10G 6G 4G24G 7G30G 9G 5
  23429549.815    -8319721.05349  -6177848.96845  23429548.961    23429561.871
  24131757.825    -5298163.33749  -3883330.81045  24131757.532    24131769.487
  22271740.847     7192044.23649   5724732.39846  22271740.914    22271749.106
  20592176.603    -8098706.08249  -6047708.18748  20592176.403    20592184.016
  24577555.765    14478569.00449  11275722.57845  24577555.192    24577568.869
  22117810.369   -15248881.45549 -11870504.05346  22117810.698    22117818.737
  22728379.185     7907862.14249   6167329.22546  22728379.001    22728388.067
  20406583.563   -14430501.36449 -11220593.83448  20406583.087    20406590.239
 03  3 18 18 35  0.0000000  0  8G10G 6G 4G24G 7G30G 9G 5
  23411039.093    -8416994.53649  -6253646.37845  23411038.266    23411051.302
  24118243.469    -5369181.43549  -3938669.50845  24118243.278    24118255.122
  22288303.372     7279080.70849   5792552.97946  22288303.449    22288311.644
  20597725.067    -8069548.74449  -6024988.17648  20597724.842    20597732.460
  24590949.244    14548951.08949  11330565.59445  24590948.670    24590962.433
  22101401.021   -15335112.83749 -11937697.27646  22101401.369    22101409.421
  22745099.811     7995729.23049   6235796.98646  22745099.655    22745108.738
  20401044.880   -14459607.50149 -11243273.92148  20401044.381    20401051.523
 03  3 18 18 35 30.0000000  0  8G10G 6G 4G24G 7G30G 9G 5
  23392552.697    -8514141.40249  -6329345.12145  23392551.804    23392564.797
  24104740.029    -5440142.17149  -3993963.45845  24104739.836    24104751.616
  22304916.886     7366384.92749   5860582.16946  22304916.977    22304925.108
  20603364.219    -8039914.70449  -6001896.71748  20603363.998    20603371.621
  24604347.875    14619361.24349  11385430.44145  24604347.294    24604361.296
  22085033.632   -15421123.53349 -12004718.55046  22085033.969    22085042.037
  22761865.659     8083834.25549   6304450.13946  22761865.488    22761874.641
  20395590.930   -14488268.10649 -11265606.84548  20395590.437    20395597.558
 03  3 18 18 36  0.0000000  0  8G10G 6G 4G24G 7G30G 9G 5
  23374090.945    -8611158.01149  -6404942.37145  23374090.064    23374103.035
  24091247.548    -5511044.94149  -4049212.28145  24091247.407    24091259.079
  22321580.892     7453954.97249   5928818.50246  22321581.041    22321589.191
  20609093.845    -8009805.35149  -5978434.87748  20609093.631    20609101.295
  24617752.135    14689800.14149  11440317.69345  24617751.505    24617765.604
  22068708.895   -15506910.50249 -12071565.47946  22068709.231    22068717.326
  22778676.334     8172174.66749   6373286.71946  22778676.200    22778685.405
  20390222.136   -14516481.12449 -11287591.00148  20390221.623    20390228.782
 03  3 18 18 36 30.0000000  0  8G10G 6G 4G24G 7G30G 9G 5
  23355654.548    -8708041.48849  -6480435.86946  23355653.737    23355666.765
  24077766.056    -5581890.31549  -4104416.34345  24077765.940    24077777.519
  22338294.922     7541787.64349   5997259.48946  22338295.070    22338303.241
  20614913.466    -7979222.73949  -5954604.26448  20614913.273    20614920.966
  24631161.695    14760267.30749  11495226.98045  24631161.072    24631175.296
  22052427.050   -15592471.93749 -12138236.67846  22052427.362    22052435.456
  22795531.182     8260746.80949   6442303.87346  22795531.102    22795540.236
  20384938.728   -14544245.49049 -11309225.55348  20384938.221    20384945.397
 03  3 18 18 37  0.0000000  0  7G10G 6G 4G24G30G 9G 5
  23337244.944    -8804784.57449  -6555819.99046  23337244.152    23337257.082
  24064296.289    -5652674.71449  -4159572.90645  24064296.185    24064307.619
  22355059.058     7629883.76449   6065905.75346  22355059.254    22355067.463
  20620823.524    -7948165.13049  -5930403.52648  20620823.341    20620831.053
  22036189.176   -15677802.06849 -12204727.63746  22036189.564    22036197.619
  22812430.236     8349551.43749   6511502.18346  22812430.153    22812439.321
  20379741.684   -14571555.96949 -11330506.43048  20379741.169    20379748.367
 03  3 18 18 37 30.0000000  0  7G10G 6G 4G24G30G 9G 5
  23318861.775    -8901388.34849  -6631095.55746  23318860.999    23318873.817
  24050837.127    -5723402.51049  -4214685.33345  24050837.052    24050848.508
  22371872.088     7718236.40049   6134751.89246  22371872.255    22371880.450
  20626822.874    -7916638.21649  -5905837.09748  20626822.698    20626830.428
  22019995.101   -15762902.55549 -12271039.65546  22019995.484    22020003.467
  22829372.123     8438581.46249   6580876.11146  22829372.115    22829381.234
  20374630.571   -14598415.22649 -11351435.71148  20374630.067    20374637.232
 03  3 18 18 38  0.0000000  0  7G10G 6G 4G24G30G 9G 5
  23300505.773    -8997849.56749  -6706260.04546  23300505.046    23300517.793
  24037388.848    -5794074.08049  -4269753.99045  24037388.732    24037399.988
  22388733.360     7806842.85549   6203795.82146  22388733.533    22388741.772
  20632911.225    -7884644.02649  -5880906.55248  20632911.033    20632918.759
  22003845.073   -15847771.48449 -12337171.23946  22003845.465    22003853.349
  22846356.302     8527833.50849   6650423.04746  22846356.256    22846365.416
  20369605.532   -14624821.91849 -11372012.34448  20369605.026    20369612.177
 03  3 18 18 38 30.0000000  0  7G10G 6G 4G24G30G 9G 5
  23282177.618    -9094164.36649  -6781310.42046  23282176.935    23282189.614
  24023951.100    -5864688.87949  -4324778.39145  24023951.105    24023962.409
  22405642.610     7895701.35449   6273036.13746  22405642.796    22405651.040
  20639088.210    -7852183.92449  -5855612.97048  20639087.977    20639095.713
  21987739.759   -15932405.66949 -12403119.90346  21987740.104    21987747.955
  22863382.380     8617305.11649   6720141.08546  22863382.270    22863391.427
  20364667.021   -14650773.96749 -11392234.70948  20364666.515    20364673.645
 03  3 18 18 39  0.0000000  0  7G10G 6G 4G24G30G 9G 5
  23263877.978    -9190329.29649  -6856244.01246  23263877.243    23263889.815
  24010524.232    -5935246.83749  -4379758.54045  24010524.260    24010535.536
  22422599.282     7984808.83849   6342470.47546  22422599.437    22422607.651
  20645353.518    -7819259.51849  -5829957.59048  20645353.309    20645361.054
  21971679.487   -16016802.87349 -12468883.90446  21971679.853    21971687.661
  22880449.535     8706993.37349   6790027.93246  22880449.464    22880458.636
  20359815.331   -14676269.81649 -11412101.59548  20359814.843    20359821.925
 03  3 18 18 39 30.0000000  0  7G10G 6G 4G24G30G 9G 5
  23245607.596    -9286340.83949  -6931058.09545  23245606.762    23245619.150
  23997108.314    -6005747.92449  -4434694.37045  23997108.218    23997119.449
  22439602.875     8074163.19249   6412097.17146  22439603.036    22439611.231
  20651706.852    -7785872.57349  -5803941.80148  20651706.641    20651714.375
  21955664.823   -16100960.56949 -12534461.28146  21955665.149    21955672.928
  22897557.487     8796895.36849   6860081.32746  22897557.381    22897566.573
  20355050.800   -14701307.71049 -11431611.63848  20355050.282    20355057.342
 03  3 18 18 40  0.0000000  0  7G10G 6G 4G24G30G 9G 5
  23227366.845    -9382195.54949  -7005749.95146  23227366.069    23227378.476
  23983703.134    -6076191.96549  -4489585.75845  23983703.059    23983714.254
  22456653.020     8163761.84349   6481914.24646  22456653.143    22456661.344
  20658147.884    -7752024.76949  -5777566.90048  20658147.662    20658155.408
  21939696.227   -16184875.95449 -12599849.83347  21939696.574    21939704.284
  22914705.558     8887008.45549   6930299.20346  22914705.399    22914714.650
  20350373.742   -14725885.91249 -11450763.47948  20350373.210    20350380.214
 03  3 18 18 40 30.0000000  0  7G10G 6G 4G24G30G 9G 5
  23209156.614    -9477890.50449  -7080317.31245  23209155.846    23209168.127
  23970308.777    -6146579.08849  -4544432.80445  23970308.691    23970319.862
  22473749.044     8253602.07249   6551919.54646  22473749.247    22473757.450
  20664676.251    -7717717.98849  -5750834.35848  20664676.032    20664683.758
  21923774.163   -16268547.02849 -12665048.02047  21923774.487    21923782.207
  22931893.117     8977329.33349   7000679.00346  22931892.951    22931902.172
  20345784.374   -14750003.25649 -11469556.20548  20345783.837    20345790.841
 03  3 18 18 41  0.0000000  0  7G10G 6G 4G24G30G 9G 5
  23190977.377    -9573422.35849  -7154757.58645  23190976.611    23190988.751
  23956925.370    -6216909.54249  -4599235.70545  23956925.286    23956936.337
  22490890.597     8343680.87149   6622110.75146  22490890.750    22490898.988
  20671291.640    -7682953.85149  -5723745.43848  20671291.443    20671299.167
  21907899.008   -16351971.65449 -12730054.16047  21907899.267    21907906.971
  22949119.599     9067854.83349   7071218.23646  22949119.435    22949128.760
  20341282.953   -14773658.29149 -11487988.69048  20341282.403    20341289.435
 03  3 18 18 41 30.0000000  0  7G10G 6G 4G24G30G 9G 5
  23172829.939    -9668786.92949  -7229067.48545  23172829.174    23172841.345
  23943552.728    -6287182.84349  -4653994.01345  23943552.683    23943563.727
  22508077.036     8433996.12749   6692486.22146  22508077.243    22508085.460
  20677993.796    -7647734.20049  -5696301.57748  20677993.553    20678001.271
  21892071.147   -16435146.80149 -12794865.90947  21892071.524    21892079.235
  22966384.582     9158582.30749   7141914.87446  22966384.413    22966393.651
  20336869.859   -14796849.05649 -11506059.40948  20336869.338    20336876.402
 03  3 18 18 42  0.0000000  0  7G10G 6G 4G24G30G 9G 5
  23154714.958    -9763981.23449  -7303244.69746  23154714.175    23154726.345
  23930191.095    -6357399.22449  -4708708.00345  23930190.943    23930201.891
  22525308.065     8524545.58249   6763044.14746  22525308.263    22525316.522
  20684782.174    -7612060.90449  -5668504.22948  20684781.963    20684789.681
  21876291.323   -16518070.34049 -12859481.59247  21876291.638    21876299.374
  22983687.381     9249508.45549   7212766.31546  22983687.234    22983696.481
  20332545.402   -14819574.26949 -11523767.35948  20332544.882    20332551.950
 03  3 18 18 42 30.0000000  0  7G10G 6G 4G24G30G 9G 5
  23136633.008    -9859001.62849  -7377286.35746  23136632.233    23136644.577
  23916840.199    -6427558.50349  -4763377.47845  23916840.077    23916850.979
  22542583.136     8615326.52649   6833782.48346  22542583.344    22542591.622
  20691656.613    -7575935.57349  -5640354.65048  20691656.394    20691664.125
  21860559.776   -16600739.60249 -12923899.13947  21860560.129    21860567.928
  23001027.406     9340630.85049   7283770.66246  23001027.300    23001036.593
  20328309.854   -14841832.13849 -11541111.14448  20328309.354    20328316.406
 03  3 18 18 43  0.0000000  0  7G10G 6G 4G24G30G 9G 5
  23118584.710    -9953845.23049  -7451190.28146  23118583.948    23118596.265
  23903500.142    -6497660.83349  -4818002.62745  23903499.972    23903510.866
  22559901.709     8706336.06349   6904698.92846  22559901.875    22559910.286
  20698616.695    -7539360.29349  -5611854.46048  20698616.486    20698624.225
  21844877.060   -16683152.37249 -12988116.82947  21844877.416    21844885.272
  23018404.366     9431946.29449   7354925.45446  23018404.220    23018413.463
  20324163.445   -14863621.59049 -11558089.93048  20324162.965    20324170.032
 03  3 18 18 43 30.0000000  0  7G10G 6G 4G24G30G 9G 5
  23100570.713   -10048508.75649  -7524953.84346  23100569.909    23100582.262
  23890170.761    -6567706.53949  -4872583.60145  23890170.659    23890181.595
  22577263.294     8797571.56349   6975791.42846  22577263.445    22577271.887
  20705661.891    -7502337.35949  -5583005.44948  20705661.689    20705669.465
  21829243.556   -16765306.64249 -13052133.09047  21829243.919    21829251.769
  23035817.226     9523451.37749   7426227.97246  23035817.116    23035826.534
  20320106.387   -14884941.52349 -11574702.86148  20320105.903    20320112.953
 03  3 18 18 44  0.0000000  0  7G10G 6G 4G24G30G 9G 5
  23082591.784   -10142988.17049  -7598573.95046  23082590.925    23082603.288
  23876852.121    -6637695.31649  -4927120.25445  23876852.039    23876863.063
  22594667.415     8889030.71249   7047058.21346  22594667.557    22594676.039
  20712792.088    -7464868.21349  -5553808.74348  20712791.882    20712799.628
  21813659.911   -16847199.44649 -13115945.60747  21813660.167    21813668.026
  23053265.758     9615143.26549   7497676.08546  23053265.567    23053275.029
  20316139.046   -14905790.16749 -11590948.55248  20316138.550    20316145.579
 03  3 18 18 44 30.0000000  0  7G10G 6G 4G24G30G 9G 5
  23064648.276   -10237280.92049  -7672048.58946  23064647.437    23064659.773
  23863544.416    -6707627.72649  -4981612.94945  23863544.332    23863555.397
  22612113.549     8980710.40849   7118496.86646  22612113.669    22612122.199
  20720006.708    -7426955.06849  -5524266.06048  20720006.548    20720014.266
  21798126.215   -16928829.06049 -13179553.05647  21798126.511    21798134.348
  23070749.079     9707018.59149   7569267.12246  23070748.953    23070758.492
  20312261.551   -14926166.50149 -11606826.21148  20312261.054    20312268.059
 03  3 18 18 45  0.0000000  0  7G10G 6G 4G24G30G 9G 5
  23046741.024   -10331383.16149  -7745374.77946  23046740.234    23046752.668
  23850247.400    -6777503.57849  -5036061.58745  23850247.377    23850258.383
  22629601.181     9072608.26449   7190105.48046  22629601.313    22629609.830
  20727305.522    -7388599.63349  -5494378.73448  20727305.365    20727313.091
  21782643.112   -17010192.69849 -13242953.24647  21782643.420    21782651.270
  23088266.839     9799074.44049   7640998.82546  23088266.715    23088276.286
  20308474.230   -14946069.04549 -11622334.68348  20308473.736    20308480.722
 03  3 18 18 45 30.0000000  0  7G10G 6G 4G24G30G 9G 5
  23028870.763   -10425291.28749  -7818549.69346  23028869.935    23028882.305
  23836961.148    -6847322.62549  -5090465.92945  23836961.075    23836972.279
  22647129.829     9164722.10849   7261882.41646  22647130.008    22647138.602
  20734688.109    -7349803.99249  -5464148.39048  20734687.964    20734695.683
  21767211.183   -17091287.76349 -13306144.15747  21767211.503    21767219.332
  23105818.325     9891307.98749   7712868.98246  23105818.175    23105827.845
  20304777.356   -14965496.12449 -11637472.66448  20304776.885    20304783.853
 03  3 18 18 46  0.0000000  0  7G10G 6G 4G24G30G 9G 5
  23011037.909   -10519002.49149  -7891571.14546  23011037.151    23011049.497
  23823685.815    -6917085.33249  -5144826.40545  23823685.586    23823696.787
  22664699.123     9257048.84449   7333825.24146  22664699.305    22664707.899
  20742154.109    -7310570.22549  -5433576.65148  20742153.946    20742161.642
  21751830.736   -17172112.26049 -13369124.24247  21751831.051    21751838.885
  23123403.033     9983715.95849   7784875.07446  23123402.872    23123412.626
  20301171.156   -14984446.80449 -11652239.42648  20301170.692    20301177.663
 03  3 18 18 46 30.0000000  0  7G10G 6G 4G24G30G 9G 5
  22993243.199   -10612513.64549  -7964436.73546  22993242.450    22993254.738
  23810420.921    -6986791.57849  -5199142.85945  23810420.809    23810432.009
  22682308.239     9349586.01949   7405932.03646  22682308.574    22682317.203
  20749703.115    -7270900.00349  -5402664.81648  20749702.930    20749710.645
  21736502.300   -17252663.67149 -13431891.53547  21736502.603    21736510.404
  23141020.394    10076295.47849   7857014.81446  23141020.275    23141030.065
  20297655.927   -15002919.59049 -11666633.80448  20297655.465    20297662.411
 03  3 18 18 47  0.0000000  0  7G10G 6G 4G24G30G 9G 5
  22975487.233   -10705820.84349  -8037143.37246  22975486.472    22975498.725
  23797167.107    -7056441.04249  -5253415.06945  23797166.954    23797178.112
  22699957.286     9442331.32849   7478201.01446  22699957.467    22699966.174
  20757334.794    -7230795.38049  -5371414.48547  20757334.596    20757342.310
  21721226.263   -17332939.38349 -13494443.98547  21721226.618    21721234.411
  23158669.877    10169043.81349   7929286.09846  23158669.806    23158679.580
  20294231.933   -15020912.94649 -11680654.60348  20294231.456    20294238.423
 03  3 18 18 47 30.0000000  0  7G10G 6G 4G24G30G 9G 5
  22957770.728   -10798921.07849  -8109688.76246  22957769.976    22957782.211
  23783923.896    -7126034.36049  -5307643.53745  23783923.633    23783934.867
  22717645.310     9535281.89249   7550629.92346  22717645.521    22717654.157
  20765048.641    -7190258.74649  -5339827.51647  20765048.466    20765056.137
  21706003.071   -17412937.35549 -13556780.02547  21706003.486    21706011.266
  23176350.877    10261957.42349   8001686.17946  23176350.806    23176360.486
  20290899.284   -15038425.99449 -11694301.13548  20290898.813    20290905.794
 03  3 18 18 48  0.0000000  0  7G10G 6G 4G24G30G 9G 5
  22940094.264   -10891811.01549  -8182070.28046  22940093.484    22940105.551
  23770691.249    -7195571.39549  -5361828.14045  23770691.143    23770702.346
  22735371.930     9628435.13549   7623216.76146  22735372.089    22735380.701
  20772844.403    -7149291.77749  -5307905.22147  20772844.229    20772851.901
  21690833.291   -17492655.32149 -13618897.87847  21690833.668    21690841.359
  23194062.709    10355033.25249   8074212.65846  23194062.655    23194072.371
  20287658.357   -15055457.36649 -11707572.33748  20287657.887    20287664.866
 03  3 18 18 48 30.0000000  0  7G10G 6G 4G24G30G 9G 5
  22922458.396   -10984487.16349  -8254285.20046  22922457.604    22922469.528
  23757469.503    -7265052.05849  -5415968.82545  23757469.406    23757480.493
  22753136.639     9721788.45549   7695959.51046  22753136.761    22753145.349
  20780721.720    -7107896.47749  -5275649.15847  20780721.536    20780729.199
  21675717.336   -17572090.54249 -13680795.40947  21675717.653    21675725.302
  23211804.793    10448268.38149   8146863.26846  23211804.792    23211814.522
  20284509.310   -15072005.94649 -11720467.33348  20284508.807    20284515.805
 03  3 18 18 49  0.0000000  0  7G10G 6G 4G24G30G 9G 5
  22904863.945   -11076946.04649  -8326330.84346  22904863.144    22904874.920
  23744258.531    -7334476.39849  -5470065.64145  23744258.432    23744269.412
  22770938.838     9815339.56349   7768856.36846  22770939.027    22770947.690
  20788680.156    -7066074.93649  -5243060.96147  20788679.946    20788687.557
  21660655.600   -17651240.57249 -13742470.72147  21660655.940    21660663.547
  23229576.803    10541659.94649   8219635.79346  23229576.768    23229586.478
  20281452.442   -15088070.20549 -11732984.94148  20281451.903    20281458.861
 03  3 18 18 49 30.0000000  0  7G10G 6G 4G24G30G 9G 5
  22887311.325   -11169184.61849  -8398204.80846  22887310.525    22887322.348
  23731058.111    -7403844.44449  -5524118.56145  23731058.021    23731069.081
  22788778.173     9909085.74949   7841905.25746  22788778.407    22788787.119
  20796719.292    -7023829.08649  -5210142.13347  20796719.081    20796726.670
  21645648.603   -17730103.07949 -13803921.98647  21645648.869    21645656.431
  23247377.893    10635204.86549   8292527.80946  23247377.845    23247387.527
  20278487.939   -15103648.89149 -11745124.17948  20278487.405    20278494.349
 03  3 18 18 50  0.0000000  0  7G10G 6G 4G24G30G 9G 5
  22869801.401   -11261199.26349  -8469904.32146  22869800.567    22869812.257
  23717868.472    -7473156.10449  -5578127.56845  23717868.381    23717879.337
  22806654.326    10003025.00749   7915104.55146  22806654.541    22806663.231
  20804838.807    -6981160.78049  -5176894.12047  20804838.610    20804846.171
  21630696.754   -17808675.38349 -13865147.11547  21630697.060    21630704.604
  23265207.727    10728900.34149   8365537.13746  23265207.612    23265217.354
  20275616.080   -15118740.69349 -11756884.02748  20275615.533    20275622.470
 03  3 18 18 50 30.0000000  0  7G10G 6G 4G24G30G 9G 5
  22852334.530   -11352987.34649  -8541427.27446  22852333.639    22852345.342
  23704689.473    -7542411.97949  -5632093.10045  23704689.445    23704700.350
  22824566.513    10097153.70949   7988451.50446  22824566.741    22824575.428
  20813038.203    -6938072.79649  -5143319.08347  20813038.004    20813045.585
  21615800.347   -17886955.97449 -13926144.94447  21615800.723    21615808.288
  23283065.333    10822742.60049   8438660.83346  23283065.219    23283075.049
  20272836.906   -15133345.14349 -11768264.12048  20272836.378    20272843.329
 03  3 18 18 51  0.0000000  0  7G10G 6G 4G24G30G 9G 5
  22834911.558   -11444544.48349  -8612770.29246  22834910.731    22834922.356
  23691521.271    -7611611.19149  -5686014.48545  23691521.131    23691532.074
  22842514.542    10191470.37849   8061944.89446  22842514.766    22842523.401
  20821317.167    -6894566.48649  -5109418.07847  20821316.982    20821324.601
  21600960.184   -17964941.34649 -13986912.73047  21600960.546    21600968.155
  23300950.567    10916729.56849   8511897.30246  23300950.458    23300960.374
  20270150.865   -15147460.13849 -11779262.82248  20270150.337    20270157.301
 03  3 18 18 51 30.0000000  0  7G10G 6G 4G24G30G 9G 5
  22817533.163   -11535867.82249  -8683931.13446  22817532.301    22817543.852
  23678363.760    -7680754.17749  -5739892.06545  23678363.690    23678374.448
  22860497.779    10285971.99349   8135582.41546  22860497.987    22860506.611
  20829675.331    -6850644.01449  -5075192.79447  20829675.156    20829682.800
  21586176.464   -18042629.61149 -14047449.00547  21586176.931    21586184.502
  23318862.678    11010857.76949   8585243.80446  23318862.597    23318872.532
  20267558.112   -15161084.93849 -11789879.55148  20267557.592    20267564.597
 03  3 18 18 52  0.0000000  0  7G10G 6G 4G24G30G 9G 5
  22800199.946   -11626953.77549  -8754907.00846  22800199.101    22800210.575
  23665216.932    -7749841.01749  -5793725.87345  23665216.881    23665227.637
  22878515.745    10380656.14949   8209362.17246  22878515.933    22878524.536
  20838112.385    -6806307.23049  -5040644.67147  20838112.165    20838119.849
  21571449.945   -18120018.30649 -14107751.84747  21571450.296    21571457.899
  23336801.074    11105124.23449   8658698.03946  23336801.009    23336810.969
  20265058.928   -15174218.19249 -11800113.26048  20265058.442    20265065.470
 03  3 18 18 52 30.0000000  0  7G10G 6G 4G24G30G 9G 5
  22782912.506   -11717799.16149  -8825695.42446  22782911.679    22782923.143
  23652080.874    -7818871.48249  -5847515.75345  23652080.795    23652091.509
  22896567.929    10475520.57249   8283282.38146  22896568.125    22896576.757
  20846627.756    -6761558.54449  -5005775.58747  20846627.540    20846635.300
  21556780.798   -18197104.87349 -14167819.27447  21556781.171    21556788.771
  23354765.253    11199526.06949   8732257.75446  23354765.222    23354775.249
  20262653.521   -15186858.84549 -11809963.12748  20262653.027    20262660.059
 03  3 18 18 53  0.0000000  0  7G10G 6G 4G24G30G 9G 5
  22765671.603   -11808399.95949  -8896293.27446  22765670.785    22765682.139
  23638955.483    -7887844.97049  -5901261.22745  23638955.432    23638966.226
  22914653.996    10570563.15949   8357341.43046  22914654.224    22914662.901
  20855221.252    -6716399.43649  -4970586.69447  20855221.031    20855228.854
  21542169.714   -18273886.25549 -14227648.88747  21542170.116    21542177.761
  23372754.792    11294060.78149   8805921.01346  23372754.688    23372764.729
  20260342.176   -15199005.20149 -11819427.82448  20260341.687    20260348.744
 03  3 18 18 53 30.0000000  0  7G10G 6G 4G24G30G 9G 5
  22748477.695   -11898753.88049  -8966698.74646  22748476.848    22748488.158
  23625840.969    -7956762.81449  -5954963.31146  23625840.791    23625851.555
  22932773.375    10665780.26149   8431536.47346  22932773.521    22932782.228
  20863892.230    -6670832.94649  -4935080.36347  20863892.038    20863899.880
  21527617.029   -18350361.29149 -14287239.78847  21527617.381    21527625.039
  23390768.504    11388724.09449   8879684.47846  23390768.408    23390778.777
  20258124.855   -15210657.22649 -11828507.33248  20258124.372    20258131.434
 03  3 18 18 54  0.0000000  0  7G10G 6G 4G24G30G 9G 5
  22731331.457   -11988857.03749  -9036908.82046  22731330.647    22731341.896
  23612736.932    -8025624.28049  -6008621.47546  23612736.813    23612747.557
  22950925.679    10761170.30349   8505866.26346  22950925.765    22950934.501
  20872640.449    -6624860.69649  -4899257.85447  20872640.262    20872648.148
  21513123.213   -18426526.81049 -14346589.51447  21513123.564    21513131.178
  23408806.511    11483513.87749   8953546.49746  23408806.470    23408816.773
  20256001.980   -15221813.07449 -11837200.20448  20256001.472    20256008.550
 03  3 18 18 54 30.0000000  0  7G10G 6G 4G24G30G 9G 5
  22714233.383   -12078707.19149  -9106921.75546  22714232.595    22714243.711
  23599643.504    -8094430.46649  -6062236.58146  23599643.387    23599653.978
  22969110.048    10856729.43949   8580327.80846  22969110.145    22969118.881
  20881465.328    -6578485.76049  -4863121.56547  20881465.162    20881473.046
  21498688.464   -18502381.73349 -14405697.20747  21498688.817    21498696.433
  23426867.883    11578426.05149   9027503.87446  23426867.847    23426878.227
  20253973.485   -15232472.87349 -11845506.54648  20253972.996    20253980.087
 03  3 18 18 55  0.0000000  0  7G10G 6G 4G24G30G 9G 5
  22697184.609   -12168298.31649  -9176732.85946  22697183.867    22697194.874
  23586561.043    -8163178.74449  -6115806.54546  23586560.904    23586571.575
  22987326.553    10952457.87449   8654921.28746  22987326.695    22987335.519
  20890366.925    -6531707.63849  -4826671.11847  20890366.730    20890374.659
  21484313.824   -18577920.95449 -14464558.90047  21484314.169    21484321.783
  23444952.350    11673459.93249   9101556.07646  23444952.267    23444962.783
  20252040.075   -15242632.94749 -11853423.49148  20252039.605    20252046.693
 03  3 18 18 55 30.0000000  0  7G10G 6G 4G24G30G 9G 5
  22680185.448   -12257628.75149  -9246340.80146  22680184.645    22680195.715
  23573489.234    -8231870.93549  -6169332.81046  23573489.073    23573499.740
  23005574.547    11048351.50049   8729643.46046  23005574.731    23005583.587
  20899344.484    -6484530.30549  -4789909.59247  20899344.315    20899352.250
  21469999.389   -18653143.56549 -14523173.87847  21469999.758    21470007.370
  23463059.079    11768610.91649   9175699.54946  23463059.042    23463069.613
  20250201.691   -15252293.94849 -11860951.54348  20250201.207    20250208.291
 03  3 18 18 56  0.0000000  0  7G10G 6G 4G24G30G 9G 5
  22663236.479   -12346695.21349  -9315743.08546  22663235.769    22663246.709
  23560428.160    -8300506.94049  -6222815.30046  23560427.995    23560438.614
  23023853.638    11144407.77849   8804492.40846  23023853.727    23023862.618
  20908397.660    -6436955.74149  -4752838.53747  20908397.498    20908405.414
  21455745.655   -18728047.31849 -14581540.39347  21455746.016    21455753.607
  23481187.623    11863876.15349   9249932.03646  23481187.532    23481198.145
  20248458.443   -15261454.67049 -11868089.77148  20248457.984    20248465.058
 03  3 18 18 56 30.0000000  0  7G10G 6G 4G24G30G 9G 5
  22646338.412   -12435494.24249  -9384936.95946  22646337.697    22646348.671
  23547377.826    -8369086.73849  -6276253.98546  23547377.610    23547388.335
  23042163.080    11240624.38549   8879466.27346  23042163.223    23042172.157
  20917526.050    -6388985.98749  -4715459.54547  20917525.908    20917533.813
  21441553.056   -18802629.58249 -14639656.40947  21441553.472    21441561.029
  23499337.343    11959252.53449   9324251.14346  23499337.267    23499347.702
  20246810.582   -15270114.13249 -11874837.41348  20246810.125    20246817.221
 03  3 18 18 57  0.0000000  0  7G10G 6G 4G24G30G 9G 5
  22629491.943   -12524022.21749  -9453919.63046  22629491.250    22629502.186
  23534338.096    -8437609.86149  -6329648.53746  23534338.007    23534348.679
  23060502.551    11336999.22449   8954563.42346  23060502.816    23060511.869
  20926729.223    -6340623.07049  -4677774.19147  20926729.097    20926736.990
  21427422.314   -18876887.61249 -14697519.77447  21427422.674    21427430.163
  23517507.725    12054737.73449   9398655.04546  23517507.628    23517518.027
  20245258.409   -15278270.99049 -11881193.41348  20245257.930    20245265.020
 03  3 18 18 57 30.0000000  0  7G10G 6G 4G24G30G 9G 5
  22612697.674   -12612275.96949  -9522688.62946  22612696.976    22612707.877
  23521309.205    -8506076.53749  -6382999.13046  23521309.167    23521319.839
  23078871.721    11433529.63349   9029781.79946  23078872.059    23078881.137
  20936006.883    -6291869.02449  -4639784.06147  20936006.734    20936014.616
  21413353.588   -18950819.35649 -14755128.88647  21413353.914    21413361.379
  23535698.127    12150328.49549   9473141.19746  23535698.095    23535708.437
  20243802.009   -15285924.57949 -11887157.26048  20243801.548    20243808.620
 03  3 18 18 58  0.0000000  0  7G10G 6G 4G24G30G 9G 5
  22595956.178   -12700252.61649  -9591241.69746  22595955.506    22595966.460
  23508291.189    -8574486.86549  -6436305.78446  23508291.089    23508301.670
  23097270.058    11530212.93749   9105119.31046  23097270.322    23097279.516
  20945358.497    -6242726.42949  -4601491.17647  20945358.320    20945366.177
  21399347.421   -19024422.40549 -14812481.87547  21399347.740    21399355.171
  23553908.033    12246021.44349   9547706.98746  23553907.969    23553918.304
  20242441.542   -15293073.99549 -11892728.24748  20242441.080    20242448.149
 03  3 18 18 58 30.0000000  0  7G10G 6G 4G24G30G 9G 5
  22579268.105   -12787948.63949  -9659576.10246  22579267.399    22579278.377
  23495283.591    -8642840.76049  -6489568.47446  23495283.594    23495294.162
  23115697.059    11627046.91849   9180574.23346  23115697.246    23115706.544
  20954783.595    -6193197.28349  -4562897.07647  20954783.425    20954791.295
  21385404.201   -19097694.53849 -14869577.00847  21385404.473    21385411.906
  23572136.776    12341813.80049   9622350.21846  23572136.789    23572147.237
  20241177.235   -15299718.16149 -11897905.53148  20241176.775    20241183.841
 03  3 18 18 59  0.0000000  0  7G10G 6G 4G24G30G 9G 5
  22562634.034   -12875360.39949  -9727689.00746  22562633.374    22562644.334
  23482287.005    -8711137.91549  -6542786.96645  23482287.001    23482297.487
  23134152.223    11724029.51849   9256144.96646  23134152.508    23134161.886
  20964281.909    -6143283.40249  -4524003.17547  20964281.750    20964289.653
  21371524.529   -19170632.67749 -14926411.89047  21371524.811    21371532.209
  23590383.910    12437702.91149   9697068.87146  23590383.898    23590394.345
  20240009.226   -15305855.90249 -11902688.19948  20240008.774    20240015.868
 03  3 18 18 59 30.0000000  0  7G10G 6G 4G24G30G 9G 5
  22546054.787   -12962484.81049  -9795578.00346  22546054.082    22546065.022
  23469301.194    -8779378.50449  -6595961.37745  23469301.201    23469311.706
  23152635.149    11821157.94749   9331829.34246  23152635.514    23152644.897
  20973852.966    -6092987.28649  -4484811.43547  20973852.804    20973860.695
  21357708.729   -19243234.81349 -14982984.94847  21357709.086    21357716.449
  23608648.885    12533685.47849   9771860.31746  23608648.862    23608659.314
  20238937.747   -15311486.64949 -11907075.80648  20238937.285    20238944.405
 03  3 18 19  0  0.0000000  0  7G10G 6G 4G24G30G 9G 5
  22529530.684   -13049318.59049  -9863240.54946  22529530.001    22529540.866
  23456326.057    -8847562.62349  -6649091.77745  23456326.024    23456336.575
  23171145.579    11918429.98049   9407625.58446  23171145.780    23171155.168
  20983496.343    -6042311.14849  -4445323.57647  20983496.198    20983504.097
  21343957.414   -19315498.55349 -15039294.31747  21343957.736    21343965.089
  23626931.051    12629758.35649   9846722.14446  23626931.026    23626941.472
  20237962.893   -15316609.41149 -11911067.58548  20237962.440    20237969.528
 03  3 18 19  0 30.0000000  0  7G10G 6G 4G24G30G 9G 5
  22513062.561   -13135858.48849  -9930674.11046  22513061.892    22513072.720
  23443361.625    -8915690.49949  -6702178.36445  23443361.569    23443372.143
  23189682.702    12015842.69349   9483531.46446  23189682.847    23189692.278
  20993211.557    -5991257.30349  -4405541.39247  20993211.422    20993219.345
  21330270.814   -19387421.77349 -15095338.34447  21330271.141    21330278.482
  23645229.852    12725918.40249   9921651.87146  23645229.847    23645240.294
  20237084.899   -15321223.58449 -11914663.06448  20237084.428    20237091.500
 03  3 18 19  1  0.0000000  0  7G10G 6G 4G24G30G 9G 5
  22496651.089   -13222100.85249  -9997875.81846  22496650.383    22496661.280
  23430407.989    -8983761.40849  -6755220.53846  23430408.026    23430418.734
  23208246.174    12113394.28449   9559545.54346  23208246.425    23208255.868
  21002998.426    -5939827.41049  -4365466.18347  21002998.267    21003006.208
  21316649.546   -19459001.45649 -15151114.68847  21316649.900    21316657.273
  23663544.863    12822163.28949   9996647.72846  23663544.809    23663555.226
  20236303.917   -15325327.71149 -11917861.09748  20236303.449    20236310.545
 03  3 18 19  1 30.0000000  0  7G10G 6G 4G24G30G 9G 5
  22480296.818   -13308042.63549 -10064843.30546  22480296.075    22480306.903
  23417465.382    -9051775.55849  -6808218.52146  23417465.346    23417476.006
  23226835.617    12211082.21849   9635665.88246  23226835.994    23226845.327
  21012856.303    -5888023.99049  -4325099.91447  21012856.123    21012864.110
  21303094.137   -19530235.42349 -15206621.64647  21303094.495    21303101.882
  23681875.442    12918490.02649  10071707.35346  23681875.369    23681885.846
  20235620.074   -15328921.29549 -11920661.30948  20235619.602    20235626.757
 03  3 18 19  2  0.0000000  0  7G10G 6G 4G24G30G 9G 5
  22464000.352   -13393680.29349 -10131573.81946  22463999.587    22464010.419
  23404533.312    -9119732.90349  -6861172.21746  23404533.358    23404544.050
  23245450.613    12308904.31549   9711890.77346  23245451.040    23245460.371
  21022784.868    -5835848.97049  -4284444.09047  21022784.689    21022792.698
  21289605.021   -19601121.20349 -15261857.29047  21289605.343    21289612.747
  23700220.862    13014895.39349  10146828.25646  23700220.798    23700231.327
  20235033.529   -15332003.47749 -11923063.03148  20235033.068    20235040.290
 03  3 18 19  2 30.0000000  0  7G10G 6G 4G24G30G 9G 5
  22447762.293   -13479010.96649 -10198065.13746  22447761.618    22447772.327
  23391612.335    -9187633.58249  -6914081.76146  23391612.283    23391622.881
  23264090.642    12406857.76049   9788217.98346  23264091.046    23264100.519
  21032783.657    -5783304.96849  -4243500.74147  21032783.517    21032791.525
  21276182.495   -19671656.76149 -15316820.03247  21276182.845    21276190.258
  23718580.757    13111376.34549  10222008.06046  23718580.657    23718591.268
  20234544.449   -15334573.58449 -11925065.72148  20234544.007    20234551.264
 03  3 18 19  3  0.0000000  0  7G10G 6G 4G24G30G 9G 5
  22431583.402   -13564031.21349 -10264314.56046  22431582.719    22431593.395
  23378702.074    -9255477.25049  -6966946.87646  23378702.011    23378712.658
  23282755.342    12504940.62249   9864646.02746  23282755.713    23282765.158
  21042852.253    -5730394.24749  -4202271.63947  21042852.097    21042860.090
  21262827.143   -19741839.48249 -15371507.83647  21262827.481    21262834.903
  23736954.551    13207930.08749  10297244.58445  23736954.348    23736964.852
  20234153.060   -15336630.49849 -11926668.52348  20234152.608    20234159.868
 03  3 18 19  3 30.0000000  0  7G10G 6G 4G24G30G 9G 5
  22415464.119   -13648737.90649 -10330319.63146  22415463.427    22415474.140
  23365802.771    -9323263.99749  -7019767.64746  23365802.721    23365813.210
  23301444.181    12603150.44049   9941173.00746  23301444.515    23301453.959
  21052990.242    -5677118.91049  -4160758.41747  21052990.058    21052998.060
  21249539.362   -19811666.96349 -15425918.82847  21249539.700    21249547.139
  23755341.523    13304553.57649  10372535.45246  23755341.409    23755352.022
  20233859.420   -15338173.64149 -11927870.97848  20233858.971    20233866.223
 03  3 18 19  4  0.0000000  0  7G10G 6G 4G24G30G 9G 5
  22399405.223   -13733127.59649 -10396077.71546  22399404.485    22399415.197
  23352914.268    -9390993.79649  -7072544.02946  23352914.154    23352924.590
  23320156.656    12701484.80649  10017797.06446  23320156.982    23320166.468
  21063197.248    -5623480.84349  -4118962.54747  21063197.072    21063205.084
  21236319.668   -19881136.69949 -15480051.05847  21236320.031    21236327.450
  23773741.129    13401244.05349  10447878.51145  23773741.101    23773751.716
  20233663.660   -15339202.37649 -11928672.60148  20233663.226    20233670.473
 03  3 18 19  4 30.0000000  0  7G10G 6G 4G24G30G 9G 5
  22383407.222   -13817196.90549 -10461586.13946  22383406.510    22383417.167
  23340036.631    -9458666.24349  -7125275.72846  23340036.499    23340046.889
  23338892.567    12799941.68049  10094516.55746  23338892.850    23338902.321
  21073472.873    -5569482.39349  -4076885.86647  21073472.708    21073480.709
  21223168.616   -19950246.08949 -15533902.50047  21223168.956    21223176.343
  23792153.003    13497998.61149  10523271.50546  23792152.975    23792163.722
  20233566.013   -15339715.52249 -11929072.46148  20233565.584    20233572.839
 03  3 18 19  5  0.0000000  0  7G10G 6G 4G24G30G 9G 5
  22367470.713   -13900942.88649 -10526842.62246  22367470.033    22367480.731
  23327169.793    -9526281.67849  -7177962.99446  23327169.716    23327180.037
  23357651.293    12898518.36449  10171329.40346  23357651.464    23357660.957
  21083816.515    -5515126.13849  -4034530.36847  21083816.338    21083824.365
  21210086.437   -20018993.34149 -15587471.75847  21210086.752    21210094.140
  23810576.661    13594814.02249  10598711.93646  23810576.541    23810587.136
  20233566.539   -15339712.87849 -11929070.40848  20233566.104    20233573.338
 03  3 18 19  5 30.0000000  0  7G10G 6G 4G24G30G 9G 5
  22351596.601   -13984361.73549 -10591844.21046  22351595.913    22351606.477
  23314313.852    -9593839.63249  -7230605.47146  23314313.776    23314324.151
  23376432.316    12997212.98949  10248234.15846  23376432.502    23376442.137
  21094227.939    -5460413.82349  -3991897.42147  21094227.760    21094235.823
  21197073.728   -20087375.31749 -15640756.38447  21197074.041    21197081.451
  23829011.154    13691687.72249  10674197.75246  23829011.099    23829021.879
  20233665.429   -15339193.32749 -11928665.57048  20233664.995    20233672.178
 03  3 18 19  6  0.0000000  0  7G10G 6G 4G24G30G 9G 5
  22335785.342   -14067450.11249 -10656588.27546  22335784.608    22335795.166
  23301468.929    -9661339.97149  -7283203.04146  23301468.789    23301479.194
  23395235.390    13096023.34549  10325229.11346  23395235.555    23395245.161
  21104706.760    -5405347.27849  -3948988.45747  21104706.596    21104714.670
  21184131.016   -20155389.63549 -15693754.52247  21184131.321    21184138.756
  23847456.274    13788616.91249  10749726.83546  23847456.219    23847466.985
  20233862.835   -15338156.05149 -11927857.31348  20233862.389    20233869.552
 03  3 18 19  6 30.0000000  0  7G10G 6G 4G24G30G 9G 5
  22320037.475   -14150205.37749 -10721072.79746  22320036.730    22320047.184
  23288634.829    -9728783.05249  -7335755.99346  23288634.734    23288645.122
  23414060.072    13194946.65449  10402312.05746  23414060.134    23414069.786
  21115252.433    -5349929.59949  -3905805.88047  21115252.275    21115260.343
  21171258.575   -20223034.60449 -15746464.85547  21171258.892    21171266.354
  23865911.389    13885598.24749  10825296.55946  23865911.374    23865922.152
  20234158.794   -15336600.84649 -11926645.47048  20234158.354    20234165.494
 03  3 18 19  7  0.0000000  0  7G10G 6G 4G24G30G 9G 5
  22304353.780   -14232623.84149 -10785294.86746  22304352.998    22304363.276
  23275811.719    -9796168.44249  -7388263.98146  23275811.601    23275822.008
  23432905.786    13293980.80249  10479481.37846  23432905.887    23432915.461
  21125864.501    -5294162.72049  -3862351.19647  21125864.348    21125872.471
  21158456.957   -20290307.35549 -15798885.14847  21158457.285    21158464.737
  23884375.849    13982629.25949  10900904.96246  23884375.810    23884386.707
  20234553.478   -15334526.84849 -11925029.37348  20234553.000    20234560.148
 03  3 18 19  7 30.0000000  0  7G10G 6G 4G24G30G 9G 5
  22288734.592   -14314702.64349 -10849252.26146  22288733.821    22288744.100
  23262999.635    -9863496.45049  -7440727.27646  23262999.381    23263009.799
  23451772.139    13393123.49549  10556735.27646  23451772.285    23451781.775
  21136542.644    -5238048.96949  -3818626.22847  21136542.476    21136550.559
  21145726.555   -20357205.89049 -15851013.84947  21145726.898    21145734.342
  23902849.220    14079706.69049  10976549.57545  23902849.082    23902860.075
  20235046.927   -15331933.58949 -11923008.66248  20235046.469    20235053.659
 03  3 18 19  8  0.0000000  0  7G10G 6G 4G24G30G 9G 5
  22273180.761   -14396438.22649 -10912942.22546  22273179.969    22273190.200
  23250198.316    -9930766.66349  -7493145.52746  23250198.143    23250208.567
  23470658.686    13492372.53449  10634072.05145  23470658.901    23470668.404
  21147286.459    -5181590.25649  -3774632.45847  21147286.278    21147294.351
  21133067.889   -20423727.32449 -15902848.70347  21133068.251    21133075.722
  23921330.784    14176828.03449  11052228.38645  23921330.718    23921341.807
  20235639.419   -15328820.03449 -11920582.52748  20235638.949    20235646.179
 03  3 18 19  8 30.0000000  0  7G10G 6G 4G24G30G 9G 5
  22257692.875   -14477827.19149 -10976362.09246  22257692.160    22257702.289
  23237408.126    -9997978.39649  -7545518.22146  23237408.127    23237418.519
  23489565.239    13591726.29549  10711490.39845  23489565.342    23489574.924
  21158095.494    -5124788.61149  -3730371.46247  21158095.295    21158103.401
  21120481.543   -20489869.08349 -15954387.70147  21120481.865    21120489.299
  23939820.287    14273990.70749  11127939.40045  23939820.217    23939831.291
  20236331.078   -15325185.34849 -11917750.31348  20236330.620    20236337.859
 03  3 18 19  9  0.0000000  0  7G10G 6G 4G24G30G 9G 5
  22242271.456   -14558866.93449 -11039509.84146  22242270.727    22242280.852
  23224629.366   -10065132.32149  -7597845.85746  23224629.134    23224639.429
  23508491.030    13691181.47649  10788987.80345  23508491.180    23508500.733
  21168969.145    -5067647.12049  -3685845.66147  21168968.988    21168977.108
  21107967.759   -20555629.44449 -16005629.51447  21107968.118    21107975.474
  23958316.963    14371190.86449  11203679.60045  23958316.852    23958328.165
  20237121.882   -15321029.74149 -11914512.18548  20237121.402    20237128.620
 03  3 18 19  9 30.0000000  0  7G10G 6G 4G24G30G 9G 5
  22226917.131   -14639554.04449 -11102382.81746  22226916.396    22226926.555
  23211861.280   -10132228.27949  -7650128.32046  23211861.113    23211871.418
  23527435.695    13790736.20749  10866562.75345  23527435.914    23527445.530
  21179907.216    -5010167.61149  -3641056.46647  21179907.055    21179915.161
  21095527.023   -20621006.11049 -16056572.34247  21095527.341    21095534.684
  23976820.335    14468425.72649  11279446.87345  23976820.243    23976831.449
  20238011.919   -15316352.59849 -11910867.66848  20238011.436    20238018.640
 03  3 18 19 10  0.0000000  0  7G10G 6G 4G24G30G 9G 5
  22211630.466   -14719885.50749 -11164978.66146  22211629.779    22211639.901
  23199104.325   -10199265.96949  -7702365.37846  23199104.204    23199114.514
  23546398.954    13890388.44149  10944213.70545  23546399.177    23546408.918
  21190909.132    -4952352.28849  -3596005.60447  21190908.959    21190917.058
  21083159.740   -20685996.41749 -16107214.10947  21083160.062    21083167.375
  23995329.831    14565692.83049  11355239.26745  23995329.738    23995340.913
  20239001.318   -15311153.04149 -11906816.07648  20239000.851    20239008.066
 03  3 18 19 10 30.0000000  0  7G10G 6G 4G24G30G 9G 5
  22196412.272   -14799857.33749 -11227294.28146  22196411.555    22196421.665
  23186358.672   -10266244.83549  -7754556.63146  23186358.548    23186368.683
  23565380.365    13990136.36349  11021939.18245  23565380.676    23565390.530
  21201974.588    -4894202.83049  -3550694.36747  21201974.458    21201982.569
  21070866.548   -20750597.56949 -16157552.63847  21070866.862    21070874.172
  24013844.908    14662989.65149  11431054.82445  24013844.901    24013856.061
  20240090.372   -15305430.15849 -11902356.69448  20240089.907    20240097.124
 03  3 18 19 11  0.0000000  0  7G10G 6G 4G24G30G 9G 5
  22181263.027   -14879467.16149 -11289327.81947  22181262.242    22181272.366
  23173624.054   -10333165.36949  -7806702.40546  23173623.884    23173633.988
  23584379.571    14089977.07849  11099736.99145  23584379.873    23584389.749
  21213103.178    -4835722.11849  -3505125.02747  21213103.024    21213111.141
  21058647.664   -20814807.89149 -16207586.62347  21058648.001    21058655.306
  24032364.893    14760312.81549  11506890.85845  24032364.900    24032376.238
  20241278.972   -15299184.08249 -11897489.63548  20241278.495    20241285.748
 03  3 18 19 11 30.0000000  0  7G10G 6G 4G24G30G 9G 5
  22166183.202   -14958711.65449 -11351076.68347  22166182.431    22166192.548
  23160900.515   -10400027.50049  -7858802.70046  23160900.412    23160910.438
  23603396.168    14189908.40549  11177605.37845  23603396.338    23603406.294
  21224294.304    -4776912.50549  -3459299.39347  21224294.147    21224302.254
  21046503.666   -20878624.96249 -16257314.18147  21046504.018    21046511.316
  24050889.375    14857659.26749  11582745.07145  24050889.406    24050900.843
  20242567.174   -15292414.32949 -11892214.51448  20242566.733    20242574.006
 03  3 18 19 12  0.0000000  0  7G10G 6G 4G24G30G 9G 5
  22151173.634   -15037586.98449 -11412537.87847  22151172.922    22151183.043
  23148188.194   -10466830.41349  -7910856.83646  23148188.133    23148198.141
  23622429.589    14289928.65349  11255543.08445  23622429.721    23622439.726
  21235547.682    -4717775.75449  -3413218.85147  21235547.546    21235555.663
  21034435.074   -20942045.94949 -16306733.10347  21034435.393    21034442.685
  24069417.644    14955026.76949  11658615.67045  24069417.799    24069429.455
  20243955.280   -15285119.85349 -11886530.52048  20243954.812    20243962.096
 03  3 18 19 12 30.0000000  0  7G10G 6G 4G24G30G 9G 5
  22136234.761   -15116090.58249 -11473709.42147  22136234.094    22136244.228
  23135487.254   -10533574.43449  -7962865.08446  23135487.105    23135497.076
  23641479.413    14390035.25549  11333548.02845  23641479.513    23641489.676
  21246862.754    -4658314.71949  -3366885.62347  21246862.633    21246870.748
  21022442.143   -21005068.88949 -16355841.85547  21022442.496    21022449.817
  24087949.496    15052411.62549  11734499.79845  24087949.559    24087961.397
  20245443.233   -15277300.61849 -11880437.62448  20245442.772    20245450.059
 03  3 18 19 13  0.0000000  0  7G10G 6G 4G24G30G 9G 5
  22121367.406   -15194219.18749 -11534588.76247  22121366.697    22121376.826
  23122797.540   -10600259.08449  -8014827.08246  23122797.451    23122807.339
  23660545.323    14490226.24749  11411618.77645  23660545.404    23660555.550
  21258239.278    -4598531.24149  -3320301.13647  21258239.107    21258247.218
  21010525.507   -21067691.28349 -16404638.49247  21010525.806    21010533.132
  24106484.203    15149811.71649  11810395.80245  24106484.278    24106496.119
  20247031.159   -15268956.15549 -11873935.46148  20247030.702    20247037.968
 03  3 18 19 13 30.0000000  0  7G10G 6G 4G24G30G 9G 5
  22106571.973   -15271969.56549 -11595173.36947  22106571.219    22106581.334
  23110119.110   -10666884.42849  -8066742.87246  23110119.027    23110128.861
  23679626.796    14590499.46149  11489753.58545  23679626.935    23679637.096
  21269676.628    -4538427.67849  -3273467.23547  21269676.449    21269684.598
  20998685.530   -21129910.81849 -16453121.21347  20998685.852    20998693.135
  24125021.264    15247224.11449  11886301.35745  24125021.384    24125033.211
  20248719.118   -15260086.04449 -11867023.70048  20248718.654    20248725.933
 03  3 18 19 14  0.0000000  0  7G10G 6G 4G24G30G 9G 5
  22091848.923   -15349339.40749 -11655461.45847  22091848.152    22091858.249
  23097451.873   -10733451.20549  -8118613.02546  23097451.807    23097461.461
  23698723.356    14690851.79249  11567950.06745  23698723.466    23698733.689
  21281174.329    -4478007.11649  -3226386.31147  21281174.160    21281182.261
  20986922.399   -21191726.06949 -16501288.90747  20986922.766    20986930.054
  24143560.059    15344644.95149  11962213.55045  24143560.270    24143571.951
  20250506.945   -15250690.84449 -11859702.78148  20250506.476    20250513.797
 03  3 18 19 14 30.0000000  0  7G10G 6G 4G24G30G 9G 5
  22077198.962   -15426324.68949 -11715449.90047  22077198.224    22077208.320
  23084795.887   -10799958.29949  -8170436.66146  23084795.869    23084805.452
  23717834.713    14791282.11649  11646207.29645  23717834.944    23717845.115
  21292732.080    -4417270.95949  -3179059.48347  21292731.908    21292739.986
  20975236.881   -21253133.88749 -16549139.12247  20975237.206    20975244.526
  24162100.184    15442072.59749  12038130.98445  24162100.356    24162112.097
  20252395.015   -15240769.10249 -11851971.57448  20252394.559    20252401.888
 03  3 18 19 15  0.0000000  0  7G10G 6G 4G24G30G 9G 5
  22062622.805   -15502922.22249 -11775136.19047  22062622.135    22062632.209
  23072151.405   -10866405.33549  -8222213.50546  23072151.342    23072160.961
  23736960.467    14891788.53349  11724523.82145  23736960.763    23736970.908
  21304349.514    -4356221.18249  -3131488.26647  21304349.306    21304357.434
  20963629.338   -21314131.69349 -16596669.84147  20963629.661    20963637.007
  24180641.029    15539504.31849  12114051.64745  24180641.110    24180652.723
  20254383.382   -15230320.27749 -11843829.65248  20254382.922    20254390.255
 03  3 18 19 15 30.0000000  0  7G10G 6G 4G24G30G 9G 5
  22048121.062   -15579128.88449 -11834517.90846  22048120.364    22048130.417
  23059518.419   -10932792.20649  -8273943.46046  23059518.318    23059527.832
  23756100.251    14992368.78449  11802897.86745  23756100.664    23756110.931
  21316026.108    -4294860.19449  -3083674.55047  21316025.922    21316034.089
  20952100.249   -21374717.14749 -16643879.25247  20952100.593    20952107.970
  24199181.981    15636937.27249  12189973.21645  24199182.124    24199193.853
  20256472.076   -15219344.16649 -11835276.85348  20256471.626    20256478.923
 03  3 18 19 16  0.0000000  0  7G10G 6G 4G24G30G 9G 5
  22033694.245   -15654942.04349 -11893592.99847  22033693.532    22033703.544
  23046896.762   -10999118.99149  -8325626.60546  23046896.626    23046906.222
  23775253.713    15093020.27149  11881327.45245  23775254.184    23775264.422
  21327761.481    -4233190.34649  -3035620.16347  21327761.308    21327769.502
  20940650.032   -21434888.49849 -16690765.98947  20940650.389    20940657.719
  24217722.669    15734368.08249  12265893.16645  24217722.789    24217734.514
  20258661.101   -15207840.89749 -11826313.29448  20258660.651    20258667.928
 03  3 18 19 16 30.0000000  0  7G10G 6G 4G24G30G 9G 5
  22019342.915   -15730358.57349 -11952359.03347  22019342.207    22019352.127
  23034286.562   -11065385.75549  -8377262.97746  23034286.445    23034296.071
  23794420.307    15193740.90849  11959810.90045  23794420.745    23794431.045
  21339555.224    -4171213.98849  -2987326.94247  21339555.043    21339563.303
  20929279.004   -21494643.51049 -16737328.30547  20929279.352    20929286.647
  24236262.536    15831793.90849  12341809.20045  24236262.455    24236274.358
  20260950.512   -15195810.14049 -11816938.69548  20260950.056    20260957.360
 03  3 18 19 17  0.0000000  0  7G10G 6G 4G24G30G 9G 5
  22005067.618   -15805375.20849 -12010813.46246  22005066.949    22005076.763
  23021687.964   -11131591.79049  -8428852.03546  23021687.857    23021697.424
  23813599.832    15294529.08649  12038346.96545  23813600.237    23813610.574
  21351406.758    -4108933.51349  -2938796.74647  21351406.609    21351414.939
  20917987.705   -21553979.42349 -16783564.05847  20917988.088    20917995.321
  24254800.732    15929212.34549  12417719.45045  24254800.621    24254812.835
  20263340.398   -15183251.14649 -11807152.49248  20263339.962    20263347.300
 03  3 18 19 17 30.0000000  0  7G10G 6G 4G24G30G 9G 5
  21990869.010   -15879988.86449 -12068953.86947  21990868.349    21990878.121
  23009100.793   -11197737.16049  -8480393.79746  23009100.691    23009110.375
  23832791.729    15395382.19249  12116933.64845  23832792.041    23832802.401
  21363315.784    -4046351.05449  -2890031.23347  21363315.634    21363324.012
  20906776.621   -21612894.27449 -16829471.69947  20906776.960    20906784.181
  24273337.085    16026620.65149  12493621.82845  24273336.928    24273349.181
  20265830.866   -15170163.91449 -11796954.66948  20265830.418    20265837.790
 03  3 18 19 18  0.0000000  0  7G10G 6G 4G24G30G 9G 5
  21976747.762   -15954196.33749 -12126777.77747  21976747.065    21976756.792
  22996525.331   -11263821.22049  -8531887.81346  22996525.247    22996535.000
  23851995.667    15496299.00349  12195569.95845  23851995.996    23852006.402
  21375281.920    -3983468.83349  -2841032.14247  21375281.760    21375290.175
  20895646.090   -21671385.40049 -16875049.16647  20895646.455    20895653.679
  24291870.928    16124016.28449  12569514.33245  24291870.848    24291883.104
  20268421.876   -15156547.99849 -11786344.88748  20268421.444    20268428.834
 03  3 18 19 18 30.0000000  0  7G10G 6G 4G24G30G 9G 5
  21962704.443   -16027994.21549 -12184282.52947  21962703.807    21962713.423
  22983961.624   -11329843.88649  -8583333.97846  22983961.465    22983971.239
  23871211.215    15597277.15649  12274254.07145  23871211.664    23871222.064
  21387304.654    -3920288.81649  -2791801.00147  21387304.517    21387312.986
  20884596.643   -21729450.49849 -16920294.66247  20884597.004    20884604.220
  24310401.751    16221396.38649  12645394.75345  24310401.799    24310414.110
  20271113.560   -15142403.15149 -11775322.95048  20271113.120    20271120.523
 03  3 18 19 19  0.0000000  0  7G10G 6G 4G24G30G 9G 5
  21948739.420   -16101380.19849 -12241466.31047  21948738.804    21948748.449
  22971409.498   -11395805.44949  -8634732.51946  22971409.355    22971419.159
  23890437.905    15698314.16049  12352984.02345  23890438.434    23890448.981
  21399383.632    -3856813.49149  -2742339.75147  21399383.495    21399391.975
  20873628.666   -21787087.81149 -16965206.81747  20873629.017    20873636.214
  24328929.251    16318757.70649  12721260.48045  24328929.222    24328941.628
  20273905.819   -15127729.86949 -11763889.24648  20273905.387    20273912.754
 03  3 18 19 19 30.0000000  0  7G10G 6G 4G24G30G 9G 5
  21934853.352   -16174351.89249 -12298327.27247  21934852.698    21934862.270
  22958869.036   -11461705.78549  -8686083.36146  22958868.936    22958878.676
  23909675.363    15799407.90949  12431758.19645  23909675.936    23909686.650
  21411518.270    -3793045.62649  -2692650.54947  21411518.174    21411526.660
  20862742.411   -21844295.26249 -17009784.02047  20862742.804    20862749.988
  24347452.626    16416097.44149  12797109.43945  24347452.489    24347464.919
  20276798.711   -15112527.84049 -11752043.53548  20276798.265    20276805.636
 03  3 18 19 20  0.0000000  0  7G10G 6G 4G24G30G 9G 5
  21921046.826   -16246905.32449 -12354862.32047  21921046.186    21921055.669
  22946340.389   -11527544.21449  -8737385.98046  22946340.260    22946349.998
  23928923.318    15900556.69249  12510575.27645  23928924.010    23928934.800
  21423708.329    -3728986.97849  -2642734.76447  21423708.195    21423716.645
  20851938.538   -21901070.07249 -17054024.09747  20851938.883    20851946.064
  24365971.344    16513413.32749  12872939.78245  24365971.218    24365983.778
  20279792.300   -15096796.41949 -11739785.30948  20279791.872    20279799.305
 03  3 18 19 20 30.0000000  0  7G10G 6G 4G24G30G 9G 5
  21907320.420   -16319037.67949 -12411069.25047  21907319.778    21907329.221
  22933823.496   -11593320.80049  -8788640.40446  22933823.344    22933833.049
  23948181.455    16001758.28949  12589433.48445  23948182.058    23948192.988
  21435953.162    -3664640.08149  -2592594.36547  21435953.068    21435961.498
  20841217.271   -21957410.49249 -17097925.68547  20841217.645    20841224.856
  24384484.970    16610702.16549  12948749.06745  24384484.762    24384497.320
  20282886.596   -15080535.90349 -11727114.80248  20282886.150    20282893.624
 03  3 18 19 21  0.0000000  0  7G10G 6G 4G24G30G 9G 5
  21893674.741   -16390745.77149 -12466945.58947  21893674.115    21893683.557
  22921318.437   -11659034.95949  -8839846.18846  22921318.361    22921328.035
  23967449.401    16103010.85849  12668331.43545  23967449.899    23967460.919
  21448252.445    -3600007.07749  -2542231.03247  21448252.354    21448260.803
  20830579.183   -22013313.89049 -17141486.73947  20830579.550    20830586.763
  24402992.963    16707961.52249  13024535.37845  24402992.799    24403005.404
  20286081.610   -15063745.96849 -11714031.76248  20286081.178    20286088.638
 03  3 18 19 21 30.0000000  0  7G10G 6G 4G24G30G 9G 5
  21880110.300   -16462027.18249 -12522489.45147  21880109.625    21880119.109
  22908825.171   -11724687.06049  -8891003.60046  22908825.141    22908834.810
  23986726.494    16204311.99749  12747267.21945  23986727.004    23986738.053
  21460605.715    -3535090.51249  -2491646.73747  21460605.622    21460614.047
  20820024.589   -22068778.51149 -17184705.89347  20820024.967    20820032.153
  24421494.581    16805188.28349  13100296.23845  24421494.381    24421507.310
  20289377.322   -15046426.93649 -11700536.43948  20289376.877    20289384.330
 03  3 18 19 22  0.0000000  0  7G10G 6G 4G24G30G 9G 5
  21866627.790   -16532878.08349 -12577697.86447  21866627.099    21866636.586
  22896343.972   -11790276.02249  -8942111.83446  22896343.901    22896353.553
  24006012.653    16305660.36049  12826239.80945  24006013.023    24006024.162
  21473012.701    -3469891.83449  -2440842.61847  21473012.573    21473020.968
  20809554.080   -22123801.31549 -17227580.77047  20809554.445    20809561.593
  24439989.617    16902380.34549  13176030.10145  24439989.557    24440002.517
  20292773.941   -15028577.78749 -11686628.03748  20292773.495    20292780.942
 03  3 18 19 22 30.0000000  0  7G10G 6G 4G24G30G 9G 5
  21853227.587   -16603296.44649 -12632569.24447  21853226.876    21853236.295
  22883874.715   -11855802.41349  -8993171.30246  22883874.623    22883884.191
  24025307.369    16407053.34149  12905247.17045  24025307.407    24025318.829
  21485472.722    -3404414.02249  -2389820.98247  21485472.597    21485480.979
  20799167.932   -22178380.98849 -17270110.35647  20799168.285    20799175.379
  24458477.657    16999534.11349  13251734.10745  24458477.658    24458490.564
  20296271.264   -15010199.40649 -11672307.24648  20296270.814    20296278.267
 03  3 18 19 23  0.0000000  0  7G10G 6G 4G24G30G 9G 5
  21839910.173   -16673279.35049 -12687101.30147  21839909.505    21839918.962
  22871417.410   -11921265.85249  -9044181.72346  22871417.297    22871426.866
  24044610.090    16508488.99749  12984287.76545  24044610.113    24044621.566
  21497985.508    -3338659.27349  -2338583.56447  21497985.384    21497993.745
  20788866.504   -22232515.17749 -17312292.80947  20788866.827    20788873.934
  24476958.068    17096647.12549  13327406.39745  24476957.955    24476970.703
  20299869.323   -14991291.51549 -11657573.85148  20299868.883    20299876.349
 03  3 18 19 23 30.0000000  0  7G10G 6G 4G24G30G 9G 5
  21826676.444   -16742823.11049 -12741291.17547  21826675.727    21826685.138
  22858972.195   -11986665.45749  -9095142.40246  22858972.044    22858981.708
  24063920.550    16609966.10049  13063360.66945  24063920.714    24063932.147
  21510550.604    -3272629.50949  -2287131.84347  21510550.476    21510558.873
  20778650.334   -22286201.16549 -17354126.02347  20778650.709    20778657.805
  24495429.861    17193717.39149  13403045.31045  24495429.917    24495442.678
  20303568.254   -14971853.61649 -11642427.46448  20303567.812    20303575.284
 03  3 18 19 24  0.0000000  0  7G10G 6G 4G24G30G 9G 5
  21813526.795   -16811924.97249 -12795136.72947  21813526.070    21813535.406
  22846539.100   -12052001.18549  -9146053.30546  22846538.960    22846548.752
  24083238.421    16711482.24349  13142464.00945  24083238.621    24083250.183
  21523167.614    -3206326.71249  -2235467.37947  21523167.501    21523175.903
  20768519.887   -22339437.04549 -17395608.49947  20768520.263    20768527.324
  24513893.252    17290741.89149  13478648.60545  24513893.284    24513905.982
  20307367.972   -14951886.06849 -11626868.36348  20307367.542    20307375.021
 03  3 18 19 24 30.0000000  0  7G10G 6G 4G24G30G 9G 5
  21800461.688   -16880582.20249 -12848635.81947  21800460.975    21800470.340
  22834118.309   -12117272.99849  -9196914.40946  22834118.189    22834127.926
  24102563.397    16813035.58349  13221596.29545  24102563.692    24102575.255
  21535836.151    -3139753.42349  -2183592.13347  21535836.001    21535844.418
  20758475.495   -22392220.79149 -17436738.66547  20758475.866    20758482.886
  24532347.177    17387717.85249  13554214.00945  24532347.169    24532360.115
  20311268.462   -14931388.91849 -11610896.58548  20311268.042    20311275.527
 03  3 18 19 25  0.0000000  0  7G10G 6G 4G24G30G 9G 5
  21787481.730   -16948792.14149 -12901786.37247  21787480.961    21787490.329
  22821709.601   -12182480.64149  -9247725.50546  22821709.480    22821719.264
  24121895.115    16914623.94649  13300755.87245  24121895.519    24121907.019
  21548555.648    -3072912.04049  -2131507.98747  21548555.515    21548563.981
  20748517.502   -22444550.31549 -17477514.89547  20748517.840    20748524.841
  24550791.508    17484642.33849  13629739.37445  24550791.590    24550804.296
  20315269.740   -14910362.32649 -11594512.26048  20315269.282    20315276.809
 03  3 18 19 25 30.0000000  0  7G10G 6G 4G24G30G 9G 5
  21774587.471   -17016551.54349 -12954585.86747  21774586.708    21774596.095
  22809313.193   -12247623.68349  -9298486.26946  22809313.081    22809322.900
  24141233.294    17016245.55849  13379941.36345  24141233.691    24141245.063
  21561325.758    -3005804.94649  -2079216.79147  21561325.615    21561334.110
  20738646.367   -22496423.24349 -17517935.33647  20738646.704    20738653.706
  24569225.620    17581513.05649  13705222.80545  24569225.708    24569238.288
  20319371.756   -14888806.17149 -11577715.28448  20319371.322    20319378.851
 03  3 18 19 26  0.0000000  0  7G10G 6G 4G24G30G 9G 5
  21761779.347   -17083857.77649 -13007032.25747  21761778.644    21761788.099
  22796929.185   -12312702.03549  -9349196.61646  22796929.015    22796938.840
  24160577.437    17117898.55849  13459151.31845  24160577.890    24160589.136
  21574145.994    -2938434.34049  -2026720.26747  21574145.839    21574154.346
  20728862.530   -22547837.56449 -17557998.43047  20728862.867    20728869.855
  24587649.035    17678327.08649  13780662.08745  24587649.004    24587661.527
  20323574.496   -14866720.73549 -11560505.88748  20323574.072    20323581.574
 03  3 18 19 26 30.0000000  0  7G10G 6G 4G24G30G 9G 5
  21749057.989   -17150708.64349 -13059123.81147  21749057.301    21749066.798
  22784557.450   -12377715.60849  -9399856.47946  22784557.310    22784567.107
  24179926.980    17219580.25349  13538383.62845  24179927.434    24179938.658
  21587015.891    -2870802.67049  -1974020.31247  21587015.750    21587024.291
  20719166.256   -22598791.74649 -17597702.96447  20719166.590    20719173.578
  24606061.185    17775081.32349  13856054.77645  24606061.077    24606073.432
  20327877.867   -14844106.53549 -11542884.46048  20327877.443    20327884.915
 03  3 18 19 27  0.0000000  0  7G10G 6G 4G24G30G 9G 5
  21736423.959   -17217100.64349 -13110857.81047  21736423.257    21736432.796
  22772198.156   -12442663.60849  -9450465.25446  22772198.105    22772207.877
  24199281.817    17321289.77649  13617637.65445  24199282.285    24199293.427
  21599935.115    -2802911.71049  -1921118.32847  21599934.996    21599943.563
  20709558.094   -22649282.89549 -17637046.69447  20709558.421    20709565.422
  24624461.419    17871773.89349  13931399.38445  24624461.310    24624473.748
  20332281.938   -14820962.99549 -11524850.56348  20332281.514    20332288.989
 03  3 18 19 27 30.0000000  0  7G10G 6G 4G24G30G 9G 5
  21723877.796   -17283031.30049 -13162232.32147  21723877.073    21723886.603
  22759851.463   -12507546.10249  -9501022.99846  22759851.373    22759861.081
  24218641.755    17423024.62449  13696911.38545  24218641.983    24218653.206
  21612903.240    -2734763.92849  -1868016.21247  21612903.109    21612911.726
  20700038.277   -22699309.36849 -17676028.34247  20700038.661    20700045.677
  24642849.222    17968401.64149  14006693.47245  24642849.041    24642861.734
  20336786.629   -14797290.69949 -11506404.64648  20336786.196    20336793.720
 03  3 18 19 28  0.0000000  0  7G10G 6G 4G24G30G 9G 5
  21711420.020   -17348497.39849 -13213244.84247  21711419.297    21711428.795
  22747517.226   -12572362.61349  -9551529.29646  22747517.132    22747526.842
  24238005.906    17524783.24649  13776203.63645  24238006.067    24238017.485
  21625919.806    -2666361.33749  -1814715.55147  21625919.717    21625928.385
  20690607.425   -22748868.90849 -17714646.14547  20690607.820    20690614.820
  24661224.116    18064962.24249  14081935.21145  24661223.999    24661236.939
  20341391.977   -14773089.54949 -11487546.63448  20341391.558    20341399.114
 03  3 18 19 28 30.0000000  0  7G10G 6G 4G24G30G 9G 5
  21699051.327   -17413495.42849 -13263892.63347  21699050.570    21699060.057
  22735195.847   -12637111.99749  -9601983.32046  22735195.752    22735205.409
  24257374.336    17626564.44449  13855513.47445  24257374.479    24257385.903
  21638984.617    -2597705.39249  -1761217.46947  21638984.513    21638993.244
  20681265.986   -22797958.70049 -17752897.91247  20681266.327    20681273.347
  24679585.990    18161453.53749  14157123.02645  24679585.848    24679598.967
  20346098.083   -14748359.08349 -11468276.16848  20346097.660    20346105.172
 03  3 18 19 29  0.0000000  0  7G10G 6G 4G24G30G 9G 5
  21686772.004   -17478023.62349 -13314174.32247  21686771.261    21686780.675
  22722887.003   -12701795.07149  -9652385.65946  22722886.943    22722896.569
  24276746.402    17728365.21649  13934838.57845  24276746.677    24276758.018
  21652097.022    -2528799.48949  -1707524.61047  21652096.915    21652105.670
  20672014.069   -22846577.63549 -17790782.77147  20672014.442    20672021.444
  24697933.908    18257872.16249  14232254.15345  24697933.906    24697947.095
  20350904.671   -14723100.52349 -11448594.19748  20350904.242    20350911.743
 03  3 18 19 29 30.0000000  0  7G10G 6G 4G24G30G 9G 5
  21674582.563   -17542079.01549 -13364087.58947  21674581.879    21674591.314
  22710590.932   -12766411.09749  -9702735.77046  22710590.895    22710600.459
  24296122.068    17830184.32649  14014177.98545  24296122.395    24296133.647
  21665256.575    -2459645.94949  -1653638.79747  21665256.465    21665265.206
  20662852.243   -22894723.31249 -17828298.87347  20662852.615    20662859.606
  24716267.682    18354215.65049  14307326.71245  24716267.653    24716280.923
  20355811.772   -14697313.53649 -11428500.46648  20355811.345    20355818.865
 03  3 18 19 30  0.0000000  0  7G10G 6G 4G24G30G 9G 5
  21662483.706   -17605658.89049 -13413630.31747  21662483.015    21662492.440
  22698307.700   -12830959.72649  -9753033.36146  22698307.698    22698317.200
  24315500.794    17932019.90549  14093530.19945  24315501.288    24315512.512
  21678462.935    -2390246.44049  -1599561.31047  21678462.802    21678471.549
  20653780.838   -22942393.52549 -17865444.47647  20653781.235    20653788.252
  24734586.768    18450481.49449  14382338.79845  24734586.692    24734600.042
  20360819.415   -14670998.48249 -11407995.25748  20360818.988    20360826.512
 03  3 18 19 30 30.0000000  0  7G10G 6G 4G24G30G 9G 5
  21650475.872   -17668760.36949 -13462800.27147  21650475.178    21650484.545
  22686037.478   -12895440.44049  -9803278.04146  22686037.453    22686046.854
  24334882.438    18033870.27549  14172893.93145  24334882.851    24334894.231
  21691715.628    -2320603.04449  -1545293.77747  21691715.528    21691724.263
  20644800.336   -22989586.44449 -17902218.16247  20644800.722    20644807.747
  24752890.486    18546667.19049  14457288.41545  24752890.320    24752903.935
  20365927.460   -14644155.59249 -11387078.74548  20365927.032    20365934.567
 03  3 18 19 31  0.0000000  0  7G10G 6G 4G24G30G 9G 5
  21638559.384   -17731381.69949 -13511596.07547  21638558.668    21638568.062
  22673780.005   -12959853.88249  -9853470.27846  22673779.939    22673789.387
  24354266.459    18135732.41949  14252266.85645  24354266.752    24354278.144
  21705014.160    -2250718.98449  -1490838.71447  21705014.061    21705022.783
  20635910.944   -23036300.84649 -17938618.97747  20635911.326    20635918.331
  24771178.435    18642768.99349  14532172.66445  24771178.260    24771191.750
  20371135.718   -14616786.21749 -11365751.98948  20371135.296    20371142.817
 03  3 18 19 31 30.0000000  0  7G10G 6G 4G24G30G 9G 5
  21626735.032   -17793518.93249 -13560014.65547  21626734.333    21626743.669
  22661535.669   -13024198.23949  -9903608.69646  22661535.566    22661544.985
  24373652.526    18237606.13349  14331648.77945  24373652.900    24373664.235
  21718358.374    -2180595.12149  -1436196.79147  21718358.253    21718366.959
  20627113.193   -23082533.27849 -17974644.23147  20627113.576    20627120.562
  24789449.971    18738786.12849  14606990.91545  24789449.671    24789463.414
  20376444.340   -14588889.27049 -11344014.13348  20376443.921    20376451.451
 03  3 18 19 32  0.0000000  0  7G10G 6G 4G24G30G 9G 5
  21615003.295   -17855169.80649 -13608054.25547  21615002.575    21615011.865
  22649304.470   -13088473.75949  -9953693.47146  22649304.323    22649313.741
  24393040.214    18339489.00649  14411037.85045  24393040.808    24393052.220
  21731747.670    -2110234.16149  -1381370.11147  21731747.564    21731756.254
  20618407.393   -23128282.30549 -18010292.80547  20618407.763    20618414.774
  24807704.747    18834715.17849  14681740.53145  24807704.474    24807718.394
  20381853.225   -14560465.55349 -11321865.80848  20381852.807    20381860.341
 03  3 18 19 32 30.0000000  0  8G10G 6G 4G24G30G 9G17G 5
  21603364.032   -17916334.08849 -13655714.68747  21603363.333    21603372.665
  22637085.878   -13152682.56449 -10003726.26746  22637085.742    22637095.139
  24412428.961    18441376.84749  14490430.79145  24412429.696    24412441.045
  21745181.251    -2039640.68649  -1326362.25347  21745181.124    21745189.787
  20609793.496   -23173548.45649 -18045565.11347  20609793.847    20609800.853
  24825941.872    18930551.18349  14756417.66345  24825941.758    24825955.770
  25035113.554    -1249744.04149   -636347.56745  25035112.382    25035127.987
  20387361.841   -14531517.77649 -11299309.12348  20387361.413    20387368.944
 03  3 18 19 33  0.0000000  0  8G10G 6G 4G24G30G 9G17G 5
  21591818.439   -17977006.24249 -13702991.64747  21591817.746    21591827.071
  22624880.531   -13216821.64049 -10053704.71646  22624880.471    22624889.863
  24431818.719    18543270.72949  14569828.43345  24431819.514    24431830.969
  21758659.099    -1968814.31549  -1271172.92047  21758658.974    21758667.641
  20601272.389   -23218326.99949 -18080457.47147  20601272.766    20601279.779
  24844161.424    19026294.37549  14831022.43745  24844161.194    24844175.403
  25017315.521    -1343273.28649   -709227.29245  25017315.133    25017330.245
  20392970.685   -14502043.47949 -11276342.16848  20392970.240    20392977.760
 03  3 18 19 33 30.0000000  0  8G10G 6G 4G24G30G 9G17G 5
  21580367.090   -18037183.64549 -13749883.07847  21580366.393    21580375.662
  22612688.685   -13280890.34849 -10103628.33546  22612688.601    22612697.963
  24451209.236    18645168.97749  14649229.49945  24451210.080    24451221.673
  21772180.866    -1897757.07349  -1215803.68647  21772180.753    21772189.430
  20592844.537   -23262615.71249 -18114968.13947  20592844.880    20592851.885
  24862362.801    19121942.33549  14905553.02545  24862362.714    24862376.933
  24999540.269    -1436682.57449   -782013.54645  24999539.939    24999555.210
  20398679.586   -14472043.03049 -11252965.21848  20398679.158    20398686.615
 03  3 18 19 34  0.0000000  0  8G10G 6G 4G24G30G 9G17G 5
  21569010.381   -18096863.66049 -13796386.93647  21569009.645    21569018.888
  22600510.360   -13344888.07549 -10153496.65446  22600510.252    22600519.559
  24470600.439    18747070.00249  14728632.72845  24470601.266    24470612.768
  21785746.251    -1826470.73249  -1160255.93047  21785746.122    21785754.829
  20584510.173   -23306412.64549 -18149095.60447  20584510.540    20584517.586
  24880545.737    19217492.64249  14980007.48845  24880545.585    24880559.735
  24981788.056    -1529970.95749   -854705.63245  24981787.578    24981802.862
  20404488.587   -14441516.77749 -11229178.55648  20404488.167    20404495.619
 03  3 18 19 34 30.0000000  0  8G10G 6G 4G24G30G 9G17G 5
  21557748.710   -18156043.87649 -13842501.34147  21557747.972    21557757.234
  22588345.444   -13408814.87949 -10203309.70346  22588345.364    22588354.660
  24489991.594    18848971.83349  14808036.59345  24489992.601    24490004.045
  21799354.683    -1754957.97649  -1104531.74747  21799354.581    21799363.289
  20576269.751   -23349716.07249 -18182838.52047  20576270.145    20576277.166
  24898709.579    19312942.36549  15054383.59045  24898709.532    24898723.387
  24964058.884    -1623137.45149   -927302.73645  24964058.313    24964073.523
  20410397.514   -14410465.38649 -11204982.69348  20410397.086    20410404.532
 03  3 18 19 35  0.0000000  0  8G10G 6G 4G24G30G 9G17G 5
  21546582.714   -18214721.51449 -13888224.12447  21546581.962    21546591.214
  22576194.141   -13472669.97349 -10253066.86446  22576194.106    22576203.410
  24509382.995    18950872.96749  14887439.89345  24509383.776    24509395.406
  21813005.891    -1683220.76949  -1048632.66747  21813005.770    21813014.466
  20568123.737   -23392523.86749 -18216195.22647  20568124.104    20568131.112
  24916853.615    19408289.19549  15128679.53145  24916853.511    24916867.259
  24946353.161    -1716180.33049   -999803.53445  24946352.620    24946367.791
  20416406.275   -14378889.10649 -11180377.82448  20416405.846    20416413.340
 03  3 18 19 35 30.0000000  0  8G10G 6G 4G24G30G 9G17G 5
  21535512.575   -18272894.97549 -13933554.03447  21535511.875    21535521.172
  22564056.531   -13536453.66549 -10302768.39946  22564056.439    22564065.729
  24528773.698    19052770.82349  14966840.64345  24528774.613    24528786.251
  21826699.211    -1611262.04749   -992560.97347  21826699.111    21826707.790
  20560072.274   -23434834.89649 -18249164.84147  20560072.648    20560079.605
  24934977.548    19503529.97349  15202892.82545  24934977.363    24934991.512
  24928671.174    -1809099.44649  -1072207.85045  24928670.610    24928685.700
  20422514.676   -14346789.17849 -11155364.92348  20422514.267    20422521.769
 03  3 18 19 36  0.0000000  0  8G10G 6G 4G24G30G 9G17G 5
  21524539.027   -18330561.23549 -13978488.73747  21524538.302    21524547.588
  22551932.538   -13600165.46249 -10352413.90246  22551932.422    22551941.706
  24548163.421    19154663.91949  15046237.68645  24548164.119    24548175.751
  21840434.402    -1539083.99549   -936318.38547  21840434.192    21840442.886
  20552115.690   -23476647.05049 -18281745.72548  20552116.036    20552123.019
  24953080.932    19598662.48349  15277021.73945  24953080.861    24953094.990
  24911013.016    -1901893.31049  -1144514.57245  24911012.475    24911027.595
  20428722.789   -14314165.76649 -11129944.11148  20428722.350    20428729.830
 03  3 18 19 36 30.0000000  0  8G10G 6G 4G24G30G 9G17G 5
  21513662.394   -18387718.02949 -14023026.44947  21513661.672    21513671.001
  22539822.309   -13663805.06249 -10402003.13746  22539822.176    22539831.498
  24567551.867    19256550.41149  15125629.56045  24567552.536    24567564.502
  21854210.744    -1466688.42749   -879906.30247  21854210.625    21854219.361
  20544254.372   -23517958.53949 -18313936.47548  20544254.709    20544261.723
  24971163.215    19693684.05849  15351064.23745  24971163.093    24971177.253
  24893378.857    -1994560.99249  -1216722.96645  24893378.304    24893393.059
  20435030.320   -14281019.50349 -11104115.88348  20435029.883    20435037.391
 03  3 18 19 37  0.0000000  0  8G10G 6G 4G24G30G 9G17G 5
  21502883.129   -18444363.36449 -14067165.63247  21502882.424    21502891.684
  22527725.723   -13727372.70649 -10451536.31946  22527725.610    22527734.906
  24586938.785    19358428.04649  15205014.58445  24586939.286    24586951.262
  21868028.016    -1394078.19149   -823326.94947  21868027.929    21868036.710
  20536488.484   -23558768.22749 -18345736.21048  20536488.875    20536495.919
  24989223.642    19788591.60549  15425017.89145  24989223.410    24989237.829
  24875768.667    -2087101.61149  -1288832.40745  24875768.014    24875783.067
  20441437.126   -14247351.68649 -11077881.24748  20441436.688    20441444.228
 03  3 18 19 37 30.0000000  0  8G10G 6G 4G24G30G 9G17G 5
  21492201.800   -18500493.91949 -14110903.68247  21492201.099    21492210.319
  22515643.187   -13790866.93249 -10501012.28346  22515643.045    22515652.278
  24606323.841    19460296.13349  15284392.14145  24606324.346    24606336.463
  21881885.920    -1321254.62849   -766581.36647  21881885.825    21881894.654
  20528818.705   -23599073.26149 -18377142.71548  20528819.094    20528826.119
  25007262.153    19883383.57349  15498881.47445  25007261.842    25007276.358
  24858183.215    -2179513.33349  -1360841.34345  24858182.578    24858197.726
  20447943.211   -14213161.89449 -11051239.88648  20447942.774    20447950.318
 03  3 18 19 38  0.0000000  0  8G10G 6G 4G24G30G 9G17G 5
  21481618.903   -18556107.54849 -14154238.93347  21481618.165    21481627.376
  22503574.617   -13854287.60849 -10550430.93246  22503574.420    22503583.703
  24625706.628    19562152.90349  15363760.87545  24625707.148    24625719.397
  21895783.955    -1248220.28349   -709671.53547  21895783.824    21895792.628
  20521245.265   -23638872.00749 -18408154.70248  20521245.617    20521252.636
  25025278.096    19978057.00749  15572652.66245  25025277.930    25025292.439
  24840622.555    -2271795.46149  -1432749.32445  24840621.777    24840636.843
  20454548.497   -14178451.04649 -11024192.50048  20454548.071    20454555.589
 03  3 18 19 38 30.0000000  0  8G10G 6G 4G24G30G 9G17G 5
  21471134.819   -18611201.49749 -14197169.24447  21471134.113    21471143.312
  22491520.159   -13917634.05849 -10599791.74146  22491519.955    22491529.226
  24645086.805    19663996.49549  15443119.35545  24645087.441    24645099.789
  21909721.698    -1174976.97049   -652598.87747  21909721.625    21909730.408
  20513768.503   -23678162.56649 -18438770.70548  20513768.873    20513775.872
  25043271.255    20072609.84849  15646329.85745  25043271.164    25043285.637
  24823086.513    -2363946.23749  -1504554.96045  24823085.835    24823101.062
  20461252.856   -14143219.57949 -10996739.44348  20461252.400    20461259.904
 03  3 18 19 39  0.0000000  0  8G10G 6G 4G24G30G 9G17G 5
  21460750.006   -18665774.19849 -14239693.39147  21460749.282    21460758.398
  22479479.786   -13980906.46249 -10649094.85846  22479479.560    22479488.782
  24664464.454    19765824.88149  15522465.96545  24664465.056    24664477.298
  21923698.694    -1101527.58249   -595365.63547  21923698.599    21923707.401
  20506388.684   -23716943.69749 -18468989.74748  20506389.062    20506396.032
  25061240.660    20167038.81849  15719910.63145  25061240.664    25061255.067
  24805575.730    -2455965.22549  -1576257.89045  24805575.208    24805590.034
  20468056.062   -14107468.53449 -10968881.52048  20468055.650    20468063.131
 03  3 18 19 39 30.0000000  0  8G10G 6G 4G24G30G 9G17G 5
  21450464.897   -18719822.75049 -14281809.10347  21450464.183    21450473.284
  22467453.574   -14044104.22949 -10698339.82346  22467453.366    22467462.580
  24683838.855    19867636.58549  15601799.56945  24683839.323    24683851.685
  21937714.576    -1027873.75349   -537973.09547  21937714.506    21937723.293
  20499106.199   -23755213.36949 -18498810.24948  20499106.544    20499113.513
  25079186.239    20261341.89449  15793393.26645  25079185.970    25079200.505
  24788090.336    -2547851.16949  -1647857.16545  24788089.773    24788104.537
  20474958.064   -14071198.31249 -10940619.04748  20474957.652    20474965.135
 03  3 18 19 40  0.0000000  0  7G10G 6G 4G24G30G17G 5
  21440280.922   -18773339.90549 -14323510.74047  21440280.213    21440289.296
  22455442.564   -14107221.91349 -10747522.37846  22455442.371    22455451.665
  24703210.689    19969434.92149  15681122.74745  24703211.133    24703223.463
  21951769.945     -954012.93249   -480419.26747  21951769.786    21951778.578
  20491922.305   -23792964.92649 -18528227.02248  20491922.677    20491929.609
  24770631.200    -2639598.02749  -1719348.06145  24770630.560    24770645.457
  20481959.688   -14034404.66849 -10911948.71348  20481959.275    20481966.753
 03  3 18 19 40 30.0000000  0  7G10G 6G 4G24G30G17G 5
  21430197.361   -18826329.49649 -14364801.29247  21430196.594    21430205.664
  22443445.778   -14170265.08149 -10796646.87746  22443445.586    22443454.853
  24722578.638    20071212.24949  15760429.60245  24722578.794    24722591.195
  21965863.010     -879953.61549   -422710.76947  21965862.860    21965871.663
  20484836.179   -23830202.89249 -18557243.59548  20484836.533    20484843.451
  24753197.817    -2731210.90649  -1790734.58945  24753197.368    24753211.976
  20489059.559   -13997094.63449 -10882875.99248  20489059.140    20489066.636
 03  3 18 19 41  0.0000000  0  7G10G 6G 4G24G30G17G 5
  21420214.542   -18878789.59149 -14405679.25047  21420213.755    21420222.787
  22431463.216   -14233233.56349 -10845713.17646  22431463.051    22431472.286
  24741942.021    20172966.55249  15839718.48645  24741942.149    24741954.512
  21979993.431     -805697.70149   -364849.07547  21979993.327    21980002.111
  20477848.119   -23866925.46949 -18585858.57048  20477848.441    20477855.339
  24735790.074    -2822688.79349  -1862015.89445  24735789.650    24735804.185
  20496257.551   -13959269.07249 -10853401.56648  20496257.146    20496264.653
 03  3 18 19 41 30.0000000  0  7G10G 6G 4G24G30G17G 5
  21410333.144   -18930716.08749 -14446141.41247  21410332.415    21410341.462
  22419495.265   -14296125.28349 -10894719.67146  22419495.146    22419504.300
  24761300.914    20274698.05649  15918989.61845  24761301.138    24761313.602
  21994161.219     -731245.70349   -306834.60247  21994161.099    21994169.896
  20470958.715   -23903129.45649 -18614069.44648  20470959.040    20470965.915
  24718408.344    -2914028.67849  -1933189.66045  24718407.832    24718422.565
  20503553.845   -13920927.03349 -10823524.69148  20503553.425    20503560.926
 03  3 18 19 42  0.0000000  0  7G10G 6G 4G24G30G17G 5
  21400553.651   -18982107.52749 -14486186.64347  21400552.926    21400561.984
  22407541.921   -14358940.55949 -10943666.59246  22407541.772    22407550.883
  24780654.935    20376404.34449  15998241.08245  24780655.429    24780667.878
  22008365.830     -656600.66749   -248669.68747  22008365.675    22008374.457
  20464168.175   -23938813.87549 -18641875.46548  20464168.521    20464175.341
  24701053.312    -3005230.23749  -2004255.65845  24701052.857    24701067.555
  20510948.155   -13882069.99749 -10793246.51948  20510947.736    20510955.207
 03  3 18 19 42 30.0000000  0  6G10G 6G24G30G17G 5
  21390876.948   -19032958.66349 -14525810.86047  21390876.215    21390885.278
  22395603.743   -14421676.13149 -10992551.40946  22395603.556    22395612.593
  22022607.320     -581761.73949   -190353.68447  22022607.136    22022615.860
  20457477.365   -23973974.16349 -18669273.06748  20457477.713    20457484.545
  24683725.146    -3096289.78949  -2075210.96145  24683724.583    24683739.373
  20518440.853   -13842695.83949 -10762565.39248  20518440.419    20518447.830
 03  3 18 19 43  0.0000000  0  6G10G 6G24G30G17G 5
  21381304.011   -19083264.66049 -14565010.29847  21381303.282    21381312.350
  22383681.196   -14484328.78649 -11041371.60746  22383681.051    22383690.162
  22036885.684     -506728.55149   -131886.31447  22036885.522    22036894.224
  20450887.100   -24008606.01149 -18696258.90448  20450887.465    20450894.314
  24666424.652    -3187203.86049  -2146052.91545  24666424.121    24666438.864
  20526032.330   -13802802.71349 -10731479.88148  20526031.884    20526039.292
 03  3 18 19 43 30.0000000  0  6G10G 6G24G30G17G 5
  21371833.735   -19133031.04149 -14603789.24747  21371832.988    21371842.109
  22371773.200   -14546905.64149 -11090132.75746  22371773.054    22371782.127
  22051199.205     -431510.71749    -73275.06347  22051199.023    22051207.787
  20444396.284   -24042715.46749 -18722837.68348  20444396.639    20444403.518
  24649150.672    -3277978.50049  -2216786.23645  24649150.169    24649164.684
  20533720.928   -13762399.08349 -10699996.57548  20533720.471    20533727.949
 03  3 18 19 44  0.0000000  0  6G10G 6G24G30G17G 5
  21362466.770   -19182254.83149 -14642145.40447  21362466.023    21362475.082
  22359879.867   -14609405.46549 -11138833.87546  22359879.717    22359888.788
  22065547.509     -356109.95249    -14521.25847  22065547.340    22065556.082
  20438005.253   -24076300.25149 -18749007.62948  20438005.613    20438012.504
  24631903.697    -3368612.22749  -2287409.71645  24631902.988    24631917.504
  20541506.581   -13721485.14149 -10668115.62448  20541506.131    20541513.644
 03  3 18 19 44 30.0000000  0  6G10G 6G24G30G17G 5
  21353203.810   -19230932.10649 -14680075.70947  21353203.035    21353212.088
  22348001.585   -14671826.10949 -11187473.29346  22348001.461    22348010.535
  22079930.573     -280526.68049     44374.74347  22079930.432    22079939.170
  20431714.693   -24109357.18949 -18774766.27248  20431715.068    20431721.957
  24614683.802    -3459102.29649  -2357921.25845  24614683.299    24614697.478
  20549389.536   -13680060.13349 -10635836.44548  20549389.084    20549396.614
 03  3 18 19 45  0.0000000  0  6G10G 6G24G30G17G 5
  21344045.003   -19279061.33749 -14717578.96747  21344044.266    21344053.313
  22336138.371   -14734167.65549 -11236051.07446  22336138.263    22336147.305
  22094347.922     -204763.31449    103411.08647  22094347.751    22094356.501
  20425524.858   -24141885.02849 -18800112.62648  20425525.223    20425532.107
  24597491.514    -3549448.02949  -2428320.30945  24597490.992    24597505.131
  20557369.470   -13638125.49049 -10603160.14448  20557369.029    20557376.544
 03  3 18 19 45 30.0000000  0  6G10G 6G24G30G17G 5
  21334991.194   -19326639.00249 -14754652.43447  21334990.484    21334999.526
  22324290.503   -14796427.98049 -11284565.56546  22324290.465    22324299.511
  22108799.405     -128820.24749    162587.45547  22108799.267    22108808.046
  20419436.282   -24173880.78649 -18825044.36548  20419436.608    20419443.493
  24580327.040    -3639647.04849  -2498605.09645  24580326.544    24580340.639
  20565446.484   -13595680.65649 -10570086.29448  20565446.038    20565453.591
 03  3 18 19 46  0.0000000  0  6G10G 6G24G30G17G 5
  21326042.757   -19373663.51149 -14791294.88347  21326042.018    21326051.050
  22312458.110   -14858607.18449 -11333016.85246  22312458.127    22312467.120
  22123284.551      -52700.14749    221901.76747  22123284.429    22123293.310
  20413449.139   -24205343.46249 -18849560.71948  20413449.473    20413456.367
  24563190.678    -3729698.56949  -2568774.98845  24563190.197    24563204.244
  20573620.307   -13552727.12249 -10536616.05448  20573619.849    20573627.420
 03  3 18 19 46 30.0000000  0  6G10G 6G24G30G17G 5
  21317199.878   -19420133.27449 -14827505.06547  21317199.110    21317208.058
  22300641.295   -14920705.28949 -11381404.94046  22300641.267    22300650.183
  22137802.854       23594.17949    281351.84747  22137802.768    22137811.735
  20407563.614   -24236272.02249 -18873660.88048  20407563.977    20407570.848
  24546082.379    -3819602.57549  -2638829.89045  24546081.832    24546096.009
  20581890.703   -13509266.11249 -10502750.37748  20581890.244    20581897.777
 03  3 18 19 47  0.0000000  0  6G10G 6G24G30G17G 5
  21308463.068   -19466045.27749 -14863280.62847  21308462.328    21308471.257
  22288840.229   -14982720.73849 -11429728.62646  22288840.157    22288848.983
  22152354.173      100061.66349    340936.85047  22152354.094    22152363.070
  20401780.234   -24266664.01349 -18897342.93648  20401780.601    20401787.447
  24529002.458    -3909356.90149  -2708768.14945  24529001.935    24529016.072
  20590257.669   -13465297.65049 -10468489.28848  20590257.221    20590264.730
 03  3 18 19 47 30.0000000  0  6G10G 6G24G30G17G 5
  21299832.699   -19511398.04049 -14898620.42747  21299831.973    21299840.882
  22277054.818   -15044653.42149 -11477987.80746  22277054.706    22277063.540
  22166937.947      176699.42649    400654.54347  22166937.818    22166946.797
  20396099.102   -24296518.57049 -18920606.20848  20396099.424    20396106.295
  24511951.319    -3998960.91549  -2778589.29945  24511950.710    24511964.931
  20598720.859   -13420823.30749 -10433834.00248  20598720.433    20598727.944
 03  3 18 19 48  0.0000000  0  6G10G 6G24G30G17G 5
  21291309.241   -19556188.87349 -14933522.35247  21291308.554    21291317.490
  22265285.381   -15106502.35549 -11526181.72947  22265285.234    22265294.067
  22181553.918      253506.37049    460504.05947  22181553.750    22181562.732
  20390520.575   -24325833.49549 -18943448.99148  20390520.936    20390527.826
  24494928.984    -4088412.93149  -2848291.97045  24494928.454    24494942.639
  20607280.340   -13375843.25449 -10398784.65848  20607279.917    20607287.413
 03  3 18 19 48 30.0000000  0  6G10G 6G24G30G17G 5
  21282893.069   -19600415.96349 -14967984.99547  21282892.360    21282901.339
  22253531.837   -15168267.16849 -11574310.10047  22253531.721    22253540.578
  22196201.605      330480.36449    520483.74347  22196201.489    22196210.465
  20385045.075   -24354607.29649 -18965870.12148  20385045.457    20385052.308
  24477935.599    -4177712.21949  -2917875.61745  24477935.119    24477949.506
  20615935.758   -13330358.82749 -10363342.29048  20615935.345    20615942.867
 03  3 18 19 49  0.0000000  0  6G10G 6G24G30G17G 5
  21274584.529   -19644077.49549 -15002006.95147  21274583.822    21274592.792
  22241794.425   -15229947.27949 -11622372.47447  22241794.296    22241803.225
  22210880.529      407619.18249    580591.86447  22210880.507    22210889.556
  20379672.807   -24382838.79749 -18987868.68048  20379673.186    20379680.011
  24460971.560    -4266857.91849  -2987339.62245  24460971.083    24460985.440
  20624686.948   -13284371.15949 -10327507.78748  20624686.527    20624694.083
 03  3 18 19 49 30.0000000  0  6G10G 6G24G30G17G 5
  21266384.043   -19687171.04849 -15035586.32347  21266383.349    21266392.351
  22230073.321   -15291541.66149 -11670368.04447  22230073.231    22230082.207
  22225590.701      484921.05349    640827.03647  22225590.614    22225599.724
  20374404.067   -24410526.08049 -19009443.17848  20374404.473    20374411.306
  24444037.093    -4355848.72949  -3056682.92645  24444036.675    24444050.997
  20633533.752   -13237880.99949 -10291281.73948  20633533.312    20633540.921
 03  3 18 19 50  0.0000000  0  6G10G 6G24G30G17G 5
  21258291.998   -19729694.94349 -15068721.80647  21258291.291    21258300.322
  22218368.598   -15353049.89049 -11718296.47847  22218368.564    22218377.546
  22240331.388      562383.47449    701187.30347  22240331.289    22240340.426
  20369239.122   -24437667.94149 -19030592.66948  20369239.549    20369246.402
  24427132.132    -4444683.88349  -3125904.93545  24427131.739    24427146.086
  20642475.946   -13190889.54849 -10254665.06848  20642475.512    20642483.157
 03  3 18 19 50 30.0000000  0  6G10G 6G24G30G17G 5
  21250308.652   -19771647.60649 -15101412.17847  21250307.978    21250317.013
  22206680.328   -15414471.90249 -11766157.73347  22206680.285    22206689.289
  22255102.239      640004.36949    761671.07247  22255102.133    22255111.226
  20364178.154   -24464263.45949 -19051316.44048  20364178.563    20364185.459
  24410257.011    -4533362.48949  -3195005.02145  24410256.541    24410270.893
  20651513.274   -13143398.16349 -10217658.84348  20651512.835    20651520.496
 03  3 18 19 51  0.0000000  0  6G10G 6G24G30G17G 5
  21242434.358   -19813027.15349 -15133655.95747  21242433.679    21242442.749
  22195008.590   -15475807.24149 -11813951.45047  22195008.495    22195017.532
  22269902.815      717781.64449    822276.68947  22269902.677    22269911.772
  20359221.419   -24490311.38949 -19071613.52248  20359221.834    20359228.708
  24393412.047    -4621883.38249  -3263982.19045  24393411.522    24393425.763
  20660645.496   -13095408.09749 -10180264.03648  20660645.063    20660652.731
 03  3 18 19 51 30.0000000  0  6G10G 6G24G30G17G 5
  21234669.588   -19853831.19749 -15165451.30647  21234668.895    21234677.966
  22183353.581   -15537054.77249 -11861676.75247  22183353.474    22183362.514
  22284732.883      795713.91449    883003.06147  22284732.740    22284741.819
  20354369.284   -24515809.72449 -19091482.34848  20354369.703    20354376.548
  24376597.064    -4710245.44449  -3332835.60445  24376596.604    24376610.848
  20669872.556   -13046919.93949 -10142481.11048  20669872.125    20669879.804
 03  3 18 19 52  0.0000000  0  6G10G 6G24G30G17G 5
  21227014.567   -19894058.49349 -15196797.23947  21227013.894    21227022.952
  22171715.219   -15598214.34049 -11909333.50547  22171715.141    22171724.158
  22299591.962      873798.60549    943848.22047  22299591.814    22299600.896
  20349621.848   -24540757.63149 -19110922.26348  20349622.270    20349629.120
  24359812.559    -4798448.40449  -3401565.08745  24359812.053    24359826.280
  20679194.073   -12997935.40049 -10104311.39148  20679193.642    20679201.321
 03  3 18 19 52 30.0000000  0  6G10G 6G24G30G17G 5
  21219469.777   -19933706.75449 -15227691.97147  21219469.137    21219478.167
  22160093.836   -15659284.67049 -11956920.72747  22160093.836    22160102.782
  22314479.741      952034.50049   1004811.21047  22314479.627    22314488.736
  20344979.547   -24565153.10449 -19129931.71648  20344979.954    20344986.818
  24343058.726    -4886490.41049  -3470169.14745  24343058.192    24343072.252
  20688609.967   -12948454.90049 -10065755.21048  20688609.524    20688617.202
 03  3 18 19 53  0.0000000  0  6G10G 6G24G30G17G 5
  21212035.430   -19972774.63249 -15258134.46647  21212034.754    21212043.724
  22148489.534   -15720265.77749 -12004438.42647  22148489.510    22148498.368
  22329395.873     1030418.96549   1065889.95447  22329395.761    22329404.880
  20340442.481   -24588995.54549 -19148510.23648  20340442.884    20340449.752
  24326335.569    -4974371.16249  -3538647.58045  24326335.029    24326348.880
  20698119.834   -12898480.35449 -10026814.05448  20698119.400    20698127.072
 03  3 18 19 53 30.0000000  0  6G10G 6G24G30G17G 5
  21204711.799   -20011260.91249 -15288123.76647  21204711.124    21204720.042
  22136902.290   -15781157.38649 -12051886.38547  22136902.202    22136911.016
  22344339.843     1108949.56049   1127082.57147  22344339.695    22344348.811
  20336010.764   -24612284.18549 -19166657.22248  20336011.153    20336018.027
  24309643.158    -5062090.17549  -3606999.91345  24309642.605    24309656.525
  20707723.427   -12848013.39249  -9987489.19648  20707722.982    20707730.738
 03  3 18 19 54  0.0000000  0  6G10G 6G24G30G17G 5
  21197499.288   -20049163.13849 -15317657.95447  21197498.547    21197507.473
  22125332.259   -15841958.19749 -12099263.59347  22125332.181    22125340.944
  22359311.270     1187624.80449   1188387.90047  22359311.141    22359320.295
  20331684.824   -24635017.02649 -19184371.11948  20331685.207    20331692.093
  24292981.727    -5149645.92549  -3675225.07845  24292981.159    24292994.900
  20717420.616   -12797054.50849  -9947781.03148  20717420.188    20717427.960
 03  3 18 19 54 30.0000000  0  6G10G 6G24G30G17G 5
  21190398.208   -20086479.21849 -15346735.40847  21190397.523    21190406.443
  22113779.687   -15902667.25849 -12146569.31047  22113779.589    22113788.348
  22374309.981     1266443.13749   1249804.72947  22374309.808    22374318.992
  20327464.976   -24657192.39549 -19201650.62348  20327465.339    20327472.252
  24276351.803    -5237036.74949  -3743321.70345  24276351.192    24276364.758
  20727211.230   -12745604.62749  -9907690.26748  20727210.810    20727218.591
 03  3 18 19 55  0.0000000  0  6G10G 6G24G30G17G 5
  21183409.050   -20123207.31649 -15375354.69547  21183408.342    21183417.293
  22102244.715   -15963283.52649 -12193802.72447  22102244.635    22102253.371
  22389335.514     1345402.77049   1311331.64147  22389335.356    22389344.609
  20323351.484   -24678808.90449 -19218494.64948  20323351.876    20323358.764
  24259753.163    -5324261.75549  -3811289.07745  24259752.623    24259766.455
  20737095.128   -12693664.67049  -9867217.62348  20737094.708    20737102.485
 03  3 18 19 55 30.0000000  0  6G10G 6G24G30G17G 5
  21176532.026   -20159346.11549 -15403514.77147  21176531.342    21176540.295
  22090727.434   -16023806.98549 -12240963.81547  22090727.348    22090736.102
  22404387.429     1424501.26249   1372966.76946  22404387.295    22404396.610
  20319344.513   -24699865.86349 -19234902.66348  20319344.880    20319351.752
  24243186.414    -5411320.40249  -3879126.87745  24243185.862    24243199.522
  20747071.978   -12641236.22449  -9826364.34348  20747071.571    20747079.385
 03  3 18 19 56  0.0000000  0  6G10G 6G24G30G17G 5
  21169767.448   -20194894.02749 -15431214.40847  21169766.766    21169775.729
  22079227.875   -16084236.86549 -12288051.98647  22079227.839    22079236.645
  22419465.432     1503736.76449   1434708.65246  22419465.347    22419474.706
  20315444.307   -24720361.86549 -19250873.56048  20315444.640    20315451.483
  24226651.529    -5498211.79849  -3946834.32245  24226650.929    24226664.449
  20757141.509   -12588320.43549  -9785131.31448  20757141.120    20757148.964
 03  3 18 19 56 30.0000000  0  6G10G 6G24G30G17G 5
  21163115.721   -20229849.10849 -15458452.10847  21163114.991    21163124.002
  22067746.372   -16144572.11849 -12335066.42447  22067746.357    22067755.198
  22434569.209     1583107.75849   1496556.12446  22434569.151    22434578.594
  20311651.061   -24740295.46249 -19266406.22548  20311651.416    20311658.229
  24210148.663    -5584934.69849  -4014410.46945  24210148.083    24210161.608
  20767303.623   -12534918.61649  -9743519.55948  20767303.215    20767311.036
 03  3 18 19 57  0.0000000  0  6G10G 6G24G30G17G 5
  21156576.959   -20264210.38649 -15485227.10247  21156576.227    21156585.268
  22056282.967   -16204812.67249 -12382007.07447  22056282.933    22056291.763
  22449698.437     1662611.94949   1558507.37646  22449698.347    22449707.808
  20307964.949   -24759666.14849 -19281500.25448  20307965.328    20307972.093
  24193677.794    -5671488.67649  -4081854.99645  24193677.276    24193690.739
  20777557.871   -12481032.43249  -9701530.37648  20777557.456    20777565.285
 03  3 18 19 57 30.0000000  0  6G10G 6G24G30G17G 5
  21150151.508   -20297976.18449 -15511538.09247  21150150.835    21150159.869
  22044837.748   -16264957.88849 -12428873.42847  22044837.646    22044846.480
  22464852.621     1742247.38549   1620560.89746  22464852.526    22464862.030
  20304386.144   -24778472.83649 -19296154.80348  20304386.506    20304393.250
  24177239.466    -5757873.07149  -4149167.36845  24177238.936    24177252.346
  20787904.013   -12426663.43249  -9659164.97448  20787903.594    20787911.455
 03  3 18 19 58  0.0000000  0  6G10G 6G24G30G17G 5
  21143839.703   -20331145.08649 -15537383.96547  21143839.015    21143848.000
  22033410.789   -16325006.88249 -12475664.80347  22033410.677    22033419.524
  22480031.359     1822011.90849   1682715.00646  22480031.298    22480040.791
  20300914.911   -24796714.27649 -19310368.89548  20300915.279    20300922.040
  24160833.420    -5844086.80949  -4216346.79345  24160832.854    24160846.154
  20798341.729   -12371813.03849  -9616424.46048  20798341.298    20798349.192
 03  3 18 19 58 30.0000000  0  6G10G 6G24G30G17G 5
  21137641.850   -20363715.19149 -15562763.23847  21137641.145    21137650.137
  22022002.305   -16384958.72249 -12522380.48647  22022002.195    22022011.052
  22495234.275     1901903.95249   1744968.47246  22495234.273    22495243.784
  20297551.434   -24814389.29349 -19324141.62648  20297551.797    20297558.616
  24144460.051    -5930129.00249  -4283392.54645  24144459.479    24144472.717
  20808870.952   -12316481.98249  -9573309.41348  20808870.518    20808878.426
 03  3 18 19 59  0.0000000  0  6G10G 6G24G30G17G 5
  21131558.160   -20395685.09649 -15587674.81847  21131557.467    21131566.423
  22010612.373   -16444812.87749 -12569020.03447  22010612.260    22010621.162
  22510461.241     1981921.77049   1807319.96246  22510461.192    22510470.748
  20294295.935   -24831496.85449 -19337472.17448  20294296.291    20294303.110
  24128119.485    -6015998.84549  -4350303.98345  24128118.851    24128132.144
  20819491.307   -12260671.89949  -9529821.08448  20819490.866    20819498.771
 03  3 18 19 59 30.0000000  0  6G10G 6G24G30G17G 5
  21125589.033   -20427052.94749 -15612117.26447  21125588.330    21125597.253
  21999241.218   -16504568.07149 -12615582.47547  21999241.192    21999250.083
  22525711.890     2062064.00449   1869768.38946  22525711.834    22525721.388
  20291148.751   -24848035.45249 -19350359.38348  20291149.100    20291155.951
  24111811.998    -6101694.56949  -4417079.76345  24111811.391    24111824.639
  20830202.620   -12204383.88249  -9485960.34548  20830202.181    20830210.096
 03  3 18 20  0  0.0000000  0  6G10G 6G24G30G17G 5
  21119734.504   -20457818.66249 -15636090.50847  21119733.813    21119742.707
  21987888.822   -16564224.91249 -12662068.27247  21987888.851    21987897.711
  22540985.571     2142327.14949   1932311.03346  22540985.470    22540995.002
  20288109.721   -24864005.26249 -19362803.37448  20288110.084    20288116.996
  24095537.614    -6187216.71049  -4483720.27045  24095537.017    24095550.119
  20841004.346   -12147620.54849  -9441729.22548  20841003.933    20841011.842
 03  3 18 20  0 30.0000000  0  6G10G 6G24G30G17G 5
  21113995.011   -20487979.93749 -15659592.76047  21113994.306    21114003.220
  21976555.544   -16623781.77749 -12708476.16847  21976555.547    21976564.382
  22556282.054     2222710.06749   1994947.01046  22556281.901    22556291.356
  20285179.277   -24879404.58749 -19374802.83548  20285179.652    20285186.605
  24079296.482    -6272563.44849  -4550224.07445  24079295.901    24079309.156
  20851896.449   -12090382.39649  -9397128.12148  20851896.023    20851903.929
 03  3 18 20  1  0.0000000  0  6G10G 6G24G30G17G 5
  21108370.929   -20517534.38449 -15682622.15747  21108370.249    21108379.139
  21965241.608   -16683236.84949 -12754804.73247  21965241.630    21965250.420
  22571601.096     2303212.10749   2057675.80246  22571600.956    22571610.425
  20282357.818   -24894231.35949 -19386356.15248  20282358.216    20282365.148
  24063089.105    -6357733.20849  -4616589.98845  24063088.560    24063101.746
  20862878.786   -12032669.94349  -9352157.43148  20862878.380    20862886.250
 03  3 18 20  1 30.0000000  0  6G10G 6G24G30G17G 5
  21102862.180   -20546482.72149 -15705179.25747  21102861.483    21102870.412
  21953946.824   -16742591.39249 -12801054.96347  21953946.829    21953955.554
  22586942.198     2383829.44149   2120494.43946  22586942.045    22586951.424
  20279645.128   -24908486.70949 -19397464.20248  20279645.504    20279652.426
  24046915.318    -6442726.85449  -4682818.66845  24046914.837    24046927.757
  20873950.795   -11974486.53049  -9306819.75648  20873950.365    20873958.218
 03  3 18 20  2  0.0000000  0  6G10G 6G24G30G17G 5
  21097469.274   -20574822.46849 -15727262.14247  21097468.577    21097477.492
  21942671.532   -16801843.71949 -12847225.54747  21942671.465    21942680.149
  22602304.964     2464561.23049   2183402.27146  22602304.820    22602314.231
  20277041.579   -24922168.52049 -19408125.34748  20277041.956    20277048.829
  24030775.227    -6527543.06949  -4748909.10045  24030774.801    24030787.619
  20885112.285   -11915832.64249  -9261115.48348  20885111.848    20885119.706
 03  3 18 20  2 30.0000000  0  6G10G 6G24G30G17G 5
  21092192.562   -20602551.64049 -15748869.25047  21092191.859    21092200.800
  21931415.888   -16860992.53849 -12893315.47347  21931415.767    21931424.431
  22617689.301     2545406.39849   2246398.43746  22617689.190    22617698.581
  20274547.489   -24935275.37849 -19418338.47448  20274547.853    20274554.653
  24014669.326    -6612180.03849  -4814859.84945  24014668.930    24014681.598
  20896363.167   -11856709.32749  -9215045.42648  20896362.719    20896370.562
 03  3 18 20  3  0.0000000  0  6G10G 6G24G30G17G 5
  21087032.080   -20629669.95449 -15770000.36447  21087031.382    21087040.289
  21920179.919   -16920037.69249 -12939324.61647  21920179.825    21920188.444
  22633094.770     2626362.39049   2309480.95346  22633094.674    22633104.027
  20272162.818   -24947807.18849 -19428103.51048  20272163.143    20272169.914
  23998597.479    -6696637.58649  -4880670.78145  23998597.037    23998609.717
  20907702.863   -11797118.85949  -9168611.35048  20907702.429    20907710.256
 03  3 18 20  3 30.0000000  0  6G10G 6G24G30G17G 5
  21081988.173   -20656176.31849 -15790654.63047  21081987.404    21081996.258
  21908963.805   -16978978.63549 -12985252.56147  21908963.680    21908972.294
  22648520.890     2707427.10149   2372648.21246  22648520.815    22648530.163
  20269887.640   -24959763.30049 -19437419.94748  20269887.949    20269894.741
  23982559.932    -6780915.13049  -4946341.42845  23982559.380    23982572.049
  20919131.153   -11737062.90149  -9121814.55548  20919130.717    20919138.554
 03  3 18 20  4  0.0000000  0  6G10G 6G24G30G17G 5
  21077060.931   -20682069.07649 -15810830.76947  21077060.165    21077068.982
  21897767.638   -17037814.29349 -13031098.46347  21897767.561    21897776.159
  22663967.485     2788599.28249   2435899.19746  22663967.392    22663976.738
  20267722.267   -24971142.42849 -19446286.78948  20267722.588    20267729.359
  23966556.784    -6865011.46749  -5011870.88045  23966556.189    23966568.937
  20930647.875   -11676542.66649  -9074655.97948  20930647.414    20930655.233
 03  3 18 20  4 30.0000000  0  6G10G 6G24G30G17G 5
  21072250.631   -20707347.09549 -15830527.88747  21072249.875    21072258.644
  21886591.694   -17096543.67749 -13076861.55947  21886591.678    21886600.275
  22679434.141     2869876.56949   2499232.07946  22679433.995    22679443.342
  20265666.834   -24981943.69049 -19454703.35148  20265667.180    20265673.913
  23950588.238    -6948926.16749  -5077258.79445  23950587.624    23950600.492
  20942252.624   -11615559.54749  -9027136.72048  20942252.140    20942259.963
 03  3 18 20  5  0.0000000  0  6G10G 6G24G30G17G 5
  21067557.616   -20732009.01549 -15849744.93447  21067556.844    21067565.605
  21875436.200   -17155165.84649 -13122541.11747  21875436.191    21875444.796
  22694920.586     2951257.80849   2562645.96646  22694920.373    22694929.730
  20263721.563   -24992166.15749 -19462668.89948  20263721.897    20263728.632
  23934654.359    -7032658.11949  -5142504.32146  23934653.804    23934666.719
  20953945.155   -11554115.04349  -8979257.94048  20953944.686    20953952.508
 03  3 18 20  5 30.0000000  0  6G10G 6G24G30G17G 5
  21062981.921   -20756054.05449 -15868481.29647  21062981.202    21062989.929
  21864301.281   -17213680.30149 -13168136.73447  21864301.239    21864309.805
  22710426.364     3032740.93449   2626139.24446  22710426.169    22710435.537
  20261886.536   -25001809.39049 -19470183.09648  20261886.888    20261893.592
  23918755.490    -7116206.58149  -5207606.84346  23918754.951    23918767.890
  20965725.113   -11492211.14049  -8931021.18348  20965724.661    20965732.510
 03  3 18 20  6  0.0000000  0  6G10G 6G24G30G17G 5
  21058523.884   -20779481.10949 -15886736.11447  21058523.158    21058531.922
  21853187.060   -17272086.03849 -13213647.64147  21853186.974    21853195.548
  22725951.212     3114324.15749   2689710.51946  22725951.021    22725960.353
  20260161.889   -25010872.41149 -19477245.17948  20260162.242    20260168.953
  23902891.706    -7199570.65249  -5272565.71146  23902891.212    23902904.013
  20977592.172   -11429849.35849  -8882427.64048  20977591.735    20977599.616
 03  3 18 20  6 30.0000000  0  6G10G 6G24G30G17G 5
  21054183.608   -20802289.24949 -15904508.66047  21054182.893    21054191.684
  21842093.577   -17330382.51149 -13259073.40647  21842093.523    21842102.063
  22741494.719     3196005.45949   2753358.23646  22741494.520    22741503.870
  20258547.731   -25019354.83349 -19483854.84848  20258548.099    20258554.806
  23887063.102    -7282750.03349  -5337380.64146  23887062.551    23887075.434
  20989546.056   -11367031.60949  -8833478.79748  20989545.590    20989553.505
 03  3 18 20  7  0.0000000  0  6G10G 6G24G30G17G 5
  21049961.424   -20824476.82949 -15921797.65047  21049960.715    21049969.494
  21831021.132   -17388568.60049 -13304413.15847  21831021.039    21831029.585
  22757056.496     3277783.20049   2817081.09146  22757056.348    22757065.733
  20257044.227   -25027255.69149 -19490011.35348  20257044.590    20257051.296
  23871269.757    -7365743.70149  -5402050.85845  23871269.204    23871282.055
  21001586.426   -11303759.31649  -8784175.75447  21001585.935    21001593.862
 03  3 18 20  7 30.0000000  0  6G10G 6G24G30G17G 5
  21045857.495   -20846043.23049 -15938602.61247  21045856.777    21045865.522
  21819969.754   -17446643.61449 -13349666.36147  21819969.679    21819978.216
  22772636.390     3359656.02149   2880878.01746  22772636.221    22772645.667
  20255651.528   -25034574.25449 -19495714.12048  20255651.884    20255658.608
  23855512.084    -7448550.59149  -5466575.57045  23855511.483    23855524.238
  21013712.949   -11240034.06849  -8734519.76647  21013712.479    21013720.456
 03  3 18 20  8  0.0000000  0  6G10G 6G24G30G17G 5
  21041871.845   -20866987.61549 -15954922.88147  21041871.096    21041879.889
  21808939.680   -17504606.79049 -13394832.41347  21808939.585    21808948.146
  22788233.962     3441621.67149   2944747.29446  22788233.784    22788243.289
  20254369.692   -25041310.09749 -19500962.81948  20254370.091    20254376.825
  23839789.775    -7531170.53849  -5530954.57745  23839789.218    23839801.995
  21025925.332   -11175857.71649  -8684512.26547  21025924.875    21025932.887
 03  3 18 20  8 30.0000000  0  6G10G 6G24G30G17G 5
  21038004.917   -20887308.26349 -15970757.12747  21038004.193    21038012.932
  21797931.178   -17562456.73849 -13439910.23647  21797931.056    21797939.603
  22803848.978     3523679.09549   3008688.07546  22803848.824    22803858.382
  20253199.045   -25047462.05749 -19505756.54648  20253199.432    20253206.169
  23824103.562    -7613601.79049  -5595186.57345  23824103.027    23824115.653
  21038223.437   -11111231.21449  -8634154.00147  21038222.961    21038230.980
 03  3 18 20  9  0.0000000  0  6G10G 6G24G30G17G 5
  21034256.773   -20907004.99949 -15986105.19447  21034255.978    21034264.765
  21786944.178   -17620193.20249 -13484899.62247  21786944.103    21786952.635
  22819480.992     3605825.86949   3072698.48546  22819480.832    22819490.459
  20252139.510   -25053030.06249 -19510095.24348  20252139.885    20252146.602
  23808453.103    -7695844.59349  -5659271.71645  23808452.631    23808465.223
  21050606.609   -11046157.13349  -8583446.97447  21050606.129    21050614.233
 03  3 18 20  9 30.0000000  0  6G10G 6G24G30G17G 5
  21030627.556   -20926076.52449 -16000966.09547  21030626.790    21030635.523
  21775979.068   -17677815.09349 -13529799.72947  21775979.024    21775987.533
  22835129.815     3688060.54149   3136777.37446  22835129.599    22835139.251
  20251191.185   -25058013.40949 -19513978.36148  20251191.572    20251198.272
  23792838.716    -7777898.29149  -5723209.52145  23792838.281    23792850.764
  21063074.642   -10980636.93649  -8532392.32247  21063074.187    21063082.367
 03  3 18 20 10  0.0000000  0  6G10G 6G24G30G17G 5
  21027117.415   -20944522.35449 -16015339.43147  21027116.640    21027125.330
  21765035.949   -17735321.60049 -13574609.93847  21765035.879    21765044.340
  22850795.074     3770381.44749   3200923.45846  22850794.854    22850804.420
  20250354.239   -25062411.48749 -19517405.42948  20250354.651    20250361.344
  23777260.470    -7859761.77849  -5786999.10545  23777260.036    23777272.453
  21075627.375   -10914672.28449  -8480991.34147  21075626.877    21075635.063
 03  3 18 20 10 30.0000000  0  6G10G 6G24G30G17G 5
  21023726.395   -20962341.62249 -16029224.52347  21023725.728    21023734.404
  21754114.873   -17792712.06549 -13619329.71247  21754114.790    21754123.228
  22866476.300     3852786.45249   3265135.07346  22866476.008    22866485.654
  20249628.722   -25066224.12649 -19520376.30648  20249629.103    20249635.799
  23761718.583    -7941434.81249  -5850640.26545  23761718.085    23761730.448
  21088264.211   -10848265.27649  -8429245.67047  21088263.749    21088271.976
 03  3 18 20 11  0.0000000  0  6G10G 6G24G30G17G 5
  21020454.945   -20979533.31349 -16042620.59747  21020454.262    21020462.875
  21743216.080   -17849985.33049 -13663958.16947  21743216.045    21743224.426
  22882173.162     3935274.21649   3329411.15746  22882172.931    22882182.593
  20249014.777   -25069450.33749 -19522890.23048  20249015.158    20249021.853
  23746213.133    -8022915.96349  -5914131.92445  23746212.550    23746224.855
  21100984.934   -10781417.52149  -8377156.55447  21100984.492    21100992.738
 03  3 18 20 11 30.0000000  0  6G10G 6G24G30G17G 5
  21017303.060   -20996096.45149 -16055526.88247  21017302.354    21017310.934
  21732339.785   -17907140.42849 -13708494.54047  21732339.744    21732348.091
  22897885.565     4017843.12349   3393750.48746  22897885.343    22897894.980
  20248512.511   -25072089.67349 -19524946.85248  20248512.896    20248519.605
  23730744.248    -8104204.47549  -5977473.45845  23730743.758    23730756.048
  21113789.232   -10714130.58649  -8324725.22047  21113788.798    21113797.083
 03  3 18 20 12  0.0000000  0  6G10G 6G24G30G17G 5
  21014270.972   -21012030.15849 -16067942.71047  21014270.224    21014278.801
  21721486.210   -17964176.08049 -13752937.84447  21721486.158    21721494.477
  22913613.181     4100492.04049   3458152.18046  22913613.006    22913622.647
  20248122.112   -25074141.28649 -19526545.51048  20248122.467    20248129.201
  23715312.253    -8185299.68149  -6040664.38045  23715311.711    23715324.060
  21126676.902   -10646406.05449  -8271952.90947  21126676.436    21126684.695
 03  3 18 20 12 30.0000000  0  6G10G 6G24G30G17G 5
  21011358.653   -21027334.40749 -16079868.05747  21011357.900    21011366.461
  21710655.404   -18021092.02449 -13797287.87447  21710655.376    21710663.677
  22929355.477     4183218.26749   3522614.08846  22929355.347    22929365.022
  20247843.490   -25075605.55949 -19527686.50148  20247843.839    20247850.556
  23699917.049    -8266201.60049  -6103704.68945  23699916.500    23699928.841
  21139647.298   -10578246.31849  -8218841.47647  21139646.837    21139655.073
 03  3 18 20 13  0.0000000  0  6G10G 6G24G30G17G 5
  21008566.436   -21042007.81449 -16091301.84847  21008565.653    21008574.175
  21699847.687   -18077886.84549 -13841543.51947  21699847.638    21699855.939
  22945112.370     4266021.20749   3587135.78446  22945112.259    22945121.977
  20247676.803   -25076481.39649 -19528368.97148  20247677.125    20247683.837
  23684558.864    -8346908.88549  -6166593.34545  23684558.371    23684570.590
  21152700.272   -10509652.85649  -8165392.07147  21152699.821    21152707.980
 03  3 18 20 13 30.0000000  0  6G10G 6G24G30G17G 5
  21005894.176   -21056050.21749 -16102243.93447  21005893.413    21005901.930
  21689063.103   -18134560.06249 -13885704.40647  21689063.034    21689071.300
  22960883.475     4348898.25249   3651715.21946  22960883.301    22960893.029
  20247622.098   -25076768.93249 -19528593.02248  20247622.443    20247629.120
  23669237.742    -8427421.54349  -6229330.34745  23669237.159    23669249.389
  21165835.309   -10440627.90949  -8111606.44647  21165834.867    21165843.025
 03  3 18 20 14  0.0000000  0  6G10G 6G24G30G17G 5
  21003342.236   -21069460.43049 -16112693.41347  21003341.529    21003349.986
  21678301.830   -18191110.62249 -13929769.71447  21678301.724    21678310.000
  22976668.396     4431847.92249   3716351.26246  22976668.184    22976677.901
  20247679.466   -25076467.58649 -19528358.20448  20247679.783    20247686.433
  23653953.882    -8507738.03949  -6291914.50245  23653953.409    23653965.401
  21179052.213   -10371173.02049  -8057485.80347  21179051.728    21179059.884
 03  3 18 20 14 30.0000000  0  6G10G 6G24G30G17G 5
  21000910.685   -21082238.54749 -16122650.35247  21000909.933    21000918.370
  21667564.015   -18247537.82549 -13973738.91447  21667563.958    21667572.221
  22992466.752     4514868.75249   3781042.73546  22992466.587    22992476.326
  20247848.906   -25075577.24549 -19527664.43248  20247849.206    20247855.831
  23638707.314    -8587858.36849  -6354345.78645  23638706.824    23638718.967
  21192350.486   -10301290.33249  -8003031.81747  21192350.001    21192358.150
 03  3 18 20 15  0.0000000  0  6G10G 6G24G30G17G 5
  20998599.637   -21094382.95749 -16132113.49647  20998598.892    20998607.323
  21656850.077   -18303839.83749 -14017610.55047  21656849.985    21656858.254
  23008278.516     4597959.76749   3845788.88146  23008278.400    23008288.097
  20248130.645   -25074096.55249 -19526510.64448  20248130.941    20248137.607
  23623498.322    -8667781.43249  -6416623.36945  23623497.873    23623509.959
  21205729.945   -10230980.84149  -7948245.25047  21205729.469    21205737.596
 03  3 18 20 15 30.0000000  0  6G10G 6G24G30G17G 5
  20996409.098   -21105894.33349 -16141083.36447  20996408.339    20996416.743
  21646159.937   -18360016.68649 -14061384.66247  21646159.806    21646168.106
  23024103.304     4681118.32149   3910587.68646  23024103.084    23024112.693
  20248524.590   -25072026.45049 -19524897.58048  20248524.898    20248531.516
  23608326.891    -8747507.30049  -6478747.29145  23608326.456    23608338.561
  21219190.112   -10160247.54549  -7893128.44947  21219189.650    21219197.764
 03  3 18 20 16  0.0000000  0  6G10G 6G24G30G17G 5
  20994339.229   -21116771.77549 -16149559.25447  20994338.412    20994346.780
  21635493.845   -18416067.36549 -14105060.46447  21635493.669    21635501.973
  23039940.749     4764343.35149   3975438.29246  23039940.421    23039950.004
  20249030.791   -25069366.50249 -19522824.89748  20249031.087    20249037.660
  23593193.180    -8827035.15249  -6540716.90446  23593192.753    23593204.837
  21232730.586   -10089092.17649  -7837682.76247  21232730.117    21232738.225
 03  3 18 20 16 30.0000000  0  6G10G 6G24G30G17G 5
  20992389.982   -21127014.75149 -16157540.75847  20992389.211    20992397.541
  21624851.967   -18471990.80849 -14148637.12447  21624851.757    21624860.018
  23055790.305     4847632.83149   4040339.10046  23055790.028    23055799.569
  20249649.284   -25066116.44249 -19520292.38548  20249649.559    20249656.101
  23578097.430    -8906364.06749  -6602531.54246  23578096.944    23578108.876
  21246351.002   -10017516.72849  -7781909.74047  21246350.498    21246358.635
 03  3 18 20 17  0.0000000  0  6G10G 6G24G30G17G 5
  20990561.673   -21136622.90349 -16165027.59447  20990560.827    20990569.132
  21614234.487   -18527785.86249 -14192113.74547  21614234.287    21614242.497
  23071651.800     4930985.13649   4105288.86746  23071651.508    23071661.091
  20250380.131   -25062275.94249 -19517299.79148  20250380.423    20250386.927
  23563039.506    -8985493.77649  -6664190.92645  23563038.987    23563050.928
  21260051.009    -9945522.98949  -7725810.78147  21260050.503    21260058.649
 03  3 18 20 17 30.0000000  0  6G10G 6G24G30G17G 5
  20988854.390   -21145594.79249 -16172018.64547  20988853.569    20988861.812
  21603641.845   -18583450.83149 -14235489.00747  21603641.630    21603649.748
  23087525.170     5014399.62149   4170287.08146  23087524.888    23087534.432
  20251223.520   -25057843.99949 -19513846.33348  20251223.799    20251230.345
  23548019.585    -9064422.89849  -6725694.00845  23548019.106    23548031.060
  21273830.337    -9873112.19049  -7669386.83647  21273829.824    21273837.992
 03  3 18 20 18  0.0000000  0  6G10G 6G24G30G17G 5
  20987268.133   -21153930.31849 -16178513.82747  20987267.317    20987275.575
  21593074.056   -18638984.97549 -14278762.32147  21593073.806    21593081.865
  23103410.014     5097874.63149   4235332.45646  23103409.702    23103419.221
  20252179.395   -25052820.82249 -19509932.17448  20252179.668    20252186.252
  23533037.999    -9143150.95449  -6787040.41445  23533037.478    23533049.547
  21287688.603    -9800286.65649  -7612639.71847  21287688.110    21287696.323
 03  3 18 20 18 30.0000000  0  6G10G 6G24G30G17G 5
  20985803.055   -21161629.58149 -16184513.22747  20985802.171    20985810.380
  21582531.241   -18694387.77849 -14321933.29847  21582531.015    21582539.013
  23119305.965     5181408.02949   4300423.32946  23119305.698    23119315.148
  20253247.758   -25047206.54349 -19505557.41648  20253248.018    20253254.632
  23518094.816    -9221677.63749  -6848229.90845  23518094.303    23518106.249
  21301625.370    -9727048.61949  -7555571.18347  21301624.882    21301633.123
 03  3 18 20 19  0.0000000  0  6G10G 6G24G30G17G 5
  20984459.011   -21168692.15849 -16190016.49947  20984458.172    20984466.376
  21572013.649   -18749657.98549 -14365000.94547  21572013.436    21572021.374
  23135212.787     5264998.69749   4365558.83146  23135212.535    23135221.986
  20254428.658   -25041000.86349 -19500721.81848  20254428.911    20254435.526
  23503189.968    -9300002.59549  -6909262.21546  23503189.461    23503201.343
  21315640.326    -9653399.94649  -7498182.65647  21315639.800    21315648.024
 03  3 18 20 19 30.0000000  0  6G10G 6G24G30G17G 5
  20983236.228   -21175117.67949 -16195023.37047  20983235.408    20983243.617
  21561521.399   -18804794.82949 -14407964.67347  21561521.200    21561529.096
  23151130.153     5348644.51049   4430737.30646  23151129.856    23151139.341
  20255722.094   -25034203.88249 -19495425.47448  20255722.365    20255728.961
  23488323.687    -9378125.19449  -6970136.84646  23488323.182    23488335.007
  21329732.971    -9579342.83049  -7440475.87247  21329732.443    21329740.683
 03  3 18 20 20  0.0000000  0  6G10G 6G24G30G17G 5
  20982134.705   -21180905.87149 -16199533.61947  20982133.931    20982142.098
  21551054.736   -18859797.19849 -14450823.61847  21551054.575    21551062.442
  23167057.768     5432344.28649   4495957.83546  23167057.450    23167066.982
  20257128.076   -25026815.42349 -19489668.23548  20257128.342    20257134.943
  23473496.062    -9456044.49349  -7030853.07646  23473495.547    23473507.317
  21343902.978    -9504879.21949  -7382452.32747  21343902.454    21343910.655
 03  3 18 20 20 30.0000000  0  6G10G 6G24G30G17G 5
  20981154.607   -21186056.46849 -16203547.03647  20981153.760    20981161.944
  21540613.846   -18914663.92149 -14493576.85647  21540613.743    21540621.581
  23182995.265     5516096.88049   4561219.49946  23182995.067    23183004.651
  20258646.639   -25018835.20049 -19483449.88248  20258646.911    20258653.522
  23458707.327    -9533759.76649  -7091410.32846  23458706.815    23458718.525
  21358149.928    -9430010.97049  -7324113.48947  21358149.431    21358157.698
 03  3 18 20 21  0.0000000  0  6G10G 6G24G30G17G 5
  20980295.823   -21190569.29049 -16207063.48947  20980294.984    20980303.178
  21530199.003   -18969394.01849 -14536223.63747  21530198.914    21530206.759
  23198942.559     5599900.36449   4626520.83246  23198942.387    23198952.108
  20260277.787   -25010263.43249 -19476770.58448  20260278.071    20260284.736
  23443957.395    -9611270.77049  -7151808.42746  23443956.877    23443968.539
  21372473.511    -9354740.35049  -7265461.10847  21372473.005    21372481.315
 03  3 18 20 21 30.0000000  0  6G10G 6G24G30G17G 5
  20979558.378   -21194444.23849 -16210082.90047  20979557.575    20979565.799
  21519810.303   -19023986.64249 -14578763.28847  21519810.225    21519818.087
  23214899.197     5683752.82649   4691860.32046  23214899.000    23214908.786
  20262021.479   -25001100.25749 -19469630.44848  20262021.754    20262028.452
  23429246.343    -9688577.35749  -7212047.22246  23429245.781    23429257.468
  21386873.247    -9279069.48949  -7206496.85847  21386872.726    21386881.067
 03  3 18 20 22  0.0000000  0  6G10G 6G24G30G17G 5
  20978942.467   -21197680.43849 -16212604.58047  20978941.711    20978949.970
  21509448.058   -19078440.25249 -14621194.62147  21509447.979    21509455.897
  23230865.025     5767653.72149   4757237.55346  23230864.807    23230874.725
  20263877.841   -24991345.14049 -19462029.06248  20263878.119    20263884.835
  23414574.518    -9765678.00949  -7272125.57346  23414574.018    23414585.695
  21401348.855    -9202999.87449  -7147221.88947  21401348.345    21401356.698
 03  3 18 20 22 30.0000000  0  6G10G 6G24G30G17G 5
  20978448.089   -21200278.56449 -16214629.06647  20978447.303    20978455.551
  21499112.293   -19132754.46649 -14663517.33447  21499112.264    21499120.206
  23246839.664     5851600.76949   4822650.76646  23246839.469    23246849.363
  20265846.632   -24980998.90749 -19453967.06548  20265846.936    20265853.649
  23399941.686    -9842573.35349  -7332043.94146  23399941.218    23399952.809
  21415899.773    -9126534.45249  -7087638.50347  21415899.281    21415907.651
 03  3 18 20 23  0.0000000  0  6G10G 6G24G30G17G 5
  20978075.166   -21202237.76749 -16216155.68447  20978074.461    20978082.714
  21488803.455   -19186927.71149 -14705730.19847  21488803.411    21488811.343
  23262822.998     5935593.16549   4888099.28046  23262822.703    23262832.654
  20267928.041   -24970061.03049 -19445444.04248  20267928.335    20267935.070
  23385348.308    -9919261.92249  -7391801.18846  23385347.751    23385359.363
  21430525.712    -9049674.76949  -7027747.89847  21430525.226    21430533.619
 03  3 18 20 23 30.0000000  0  6G10G 6G24G30G17G 5
  20977823.704   -21203558.97249 -16217185.16347  20977823.005    20977831.289
  21478521.566   -19240959.54849 -14747832.86847  21478521.479    21478529.419
  23278814.546     6019628.58349   4953581.34946  23278814.162    23278824.230
  20270121.834   -24958532.41249 -19436460.70048  20270122.137    20270128.910
  23370794.152    -9995743.98149  -7451397.51746  23370793.656    23370805.211
  21445226.165    -8972423.57649  -6967552.22547  21445225.689    21445234.103
 03  3 18 20 24  0.0000000  0  6G10G 6G24G30G17G 5
  20977693.684   -21204241.98049 -16217717.34447  20977692.995    20977701.287
  21468266.741   -19294848.77349 -14789824.41847  21468266.648    21468274.612
  23294813.872     6103705.70349   5019095.90646  23294813.546    23294823.708
  20272428.092   -24946412.72449 -19427016.78948  20272428.420    20272435.246
  23356279.488   -10072018.85249  -7510832.41946  23356278.965    23356290.539
  21460000.760    -8894782.80749  -6907052.98847  21460000.271    21460008.732
 03  3 18 20 24 30.0000000  0  6G10G 6G24G30G17G 5
  20977685.314   -21204285.95049 -16217751.57547  20977684.631    20977692.903
  21458039.394   -19348593.62949 -14831703.47247  21458039.299    21458047.269
  23310820.876     6187823.59549   5084642.20746  23310820.655    23310830.901
  20274846.942   -24933701.58649 -19417112.01348  20274847.275    20274854.093
  23341804.543   -10148085.38449  -7570104.93346  23341803.945    23341815.521
  21474849.201    -8816753.82949  -6846251.25547  21474848.741    21474857.245
 03  3 18 20 25  0.0000000  0  6G10G 6G24G30G17G 5
  20977798.483   -21203691.04549 -16217287.97947  20977797.813    20977806.067
  21447839.609   -19402193.24249 -14873469.34947  21447839.540    21447847.524
  23326835.480     6271980.98849   5150219.30446  23326835.377    23326845.574
  20277378.263   -24920399.36649 -19406746.65348  20277378.613    20277385.418
  23327369.128   -10223943.40049  -7629214.96446  23327368.569    23327380.130
  21489771.094    -8738338.93449  -6785148.80047  21489770.641    21489779.184
 03  3 18 20 25 30.0000000  0  6G10G 6G24G30G17G 5
  20978033.157   -21202457.59449 -16216326.82247  20978032.510    20978040.775
  21437667.752   -19455646.72149 -14915121.35947  21437667.652    21437675.613
  23342857.360     6356176.10949   5215825.80946  23342857.226    23342867.383
  20280022.012   -24906506.49849 -19395921.05148  20280022.343    20280029.127
  23312973.582   -10299592.21949  -7688162.00346  23312973.005    23312984.490
  21504765.998    -8659540.62549  -6723747.57947  21504765.550    21504774.045
 03  3 18 20 26  0.0000000  0  6G10G 6G24G30G17G 5
  20978389.451   -21200585.45249 -16214867.97847  20978388.744    20978397.022
  21427523.955   -19508952.62949 -14956658.38447  21427523.874    21427531.772
  23358886.149     6440407.89749   5281460.87846  23358886.080    23358896.266
  20282778.182   -24892022.96349 -19384635.18548  20282778.495    20282785.249
  23298617.919   -10375031.61149  -7746945.83246  23298617.333    23298628.761
  21519833.545    -8580360.73849  -6662049.03247  21519833.060    21519841.588
 03  3 18 20 26 30.0000000  0  6G10G 6G24G30G17G 5
  20978867.215   -21198074.54549 -16212911.39647  20978866.503    20978874.825
  21417408.487   -19562109.88749 -14998079.57347  21417408.337    21417416.230
  23374921.592     6524674.81549   5347123.30746  23374921.638    23374931.832
  20285646.690   -24876948.97449 -19372889.23248  20285646.999    20285653.725
  23284302.072   -10450261.14649  -7805566.15546  23284301.544    23284312.964
  21534973.241    -8500801.44349  -6600054.84647  21534972.739    21534981.290
 03  3 18 20 27  0.0000000  0  6G10G 6G24G30G17G 5
  20979466.585   -21194925.05149 -16210457.21847  20979465.838    20979474.167
  21407321.417   -19615117.35749 -15039384.05847  21407321.290    21407329.176
  23390963.623     6608975.46149   5412812.00546  23390963.633    23390973.851
  20288627.506   -24861284.66349 -19360683.29248  20288627.825    20288634.555
  23270026.279   -10525279.94049  -7864022.23046  23270025.777    23270037.337
  21550184.669    -8420865.12649  -6537766.87747  21550184.197    21550192.748
 03  3 18 20 27 30.0000000  0  6G10G 6G24G30G17G 5
  20980187.235   -21191137.40649 -16207505.77447  20980186.569    20980194.904
  21397263.019   -19667974.17749 -15080571.14947  21397262.913    21397270.824
  23407011.600     6693307.92249   5478525.50946  23407011.653    23407021.876
  20291720.513   -24845031.00449 -19348018.11948  20291720.844    20291727.540
  23255790.788   -10600087.77249  -7922313.93546  23255790.202    23255801.723
  21565467.422    -8340554.07249  -6475186.90647  21565466.938    21565475.509
 03  3 18 20 28  0.0000000  0  6G10G 6G24G30G17G 5
  20981029.390   -21186712.00649 -16204057.37447  20981028.676    20981037.023
  21387233.557   -19720679.28849 -15121640.02447  21387233.456    21387241.343
  23423065.549     6777671.20749   5544263.02746  23423065.550    23423075.810
  20294925.622   -24828187.95149 -19334893.67948  20294925.965    20294932.644
  23241595.391   -10674684.17649  -7980440.86746  23241594.829    23241606.445
  21580821.091    -8259870.43249  -6412316.60447  21580820.589    21580829.188
 03  3 18 20 28 30.0000000  0  6G10G 6G24G30G17G 5
  20981992.951   -21181648.58549 -16200111.81647  20981992.149    20982000.542
  21377233.264   -19773231.25149 -15162589.56047  21377233.150    21377241.013
  23439125.109     6862064.08749   5610023.57646  23439125.081    23439135.416
  20298242.878   -24810755.77349 -19321310.17548  20298243.219    20298249.876
  23227440.302   -10749068.91049  -8038402.87746  23227439.768    23227451.370
  21596245.204    -8178816.22349  -6349157.54747  21596244.721    21596253.340
 03  3 18 20 29  0.0000000  0  6G10G 6G24G30G17G 5
  20983077.747   -21175947.50849 -16195669.38447  20983077.018    20983085.391
  21367262.317   -19825629.17449 -15203419.06847  21367262.152    21367269.980
  23455190.039     6946484.99649   5675806.00446  23455189.999    23455200.341
  20301672.124   -24792735.01849 -19307268.03948  20301672.465    20301679.093
  23213325.713   -10823241.26149  -8096199.37146  23213325.150    23213336.739
  21611739.350    -8097394.06149  -6285711.78047  21611738.904    21611747.513
 03  3 18 20 29 30.0000000  0  6G10G 6G24G30G17G 5
  20984283.788   -21169609.56849 -16190730.69647  20984283.023    20984291.443
  21357320.693   -19877872.48849 -15244128.10347  21357320.555    21357328.403
  23471259.970     7030932.19149   5741608.89146  23471259.815    23471270.222
  20305213.229   -24774126.57849 -19292767.96748  20305213.553    20305220.192
  23199251.366   -10897201.88649  -8153830.90346  23199250.843    23199262.370
  21627303.081    -8015606.63349  -6221981.38147  21627302.570    21627311.120
 03  3 18 20 30  0.0000000  0  6G10G 6G24G30G17G 5
  20985611.131   -21162634.17549 -16185295.29247  20985610.364    20985618.822
  21347408.827   -19929959.37249 -15284715.24347  21347408.706    21347416.568
  23487334.627     7115404.57149   5807431.41246  23487334.466    23487344.962
  20308866.202   -24754930.17749 -19277809.74848  20308866.534    20308873.204
  23185217.541   -10970949.30049  -8211296.28246  23185217.068    23185228.551
  21642935.973    -7933455.46449  -6157967.56047  21642935.498    21642944.069
 03  3 18 20 30 30.0000000  0  6G10G 6G24G30G17G 5
  20987059.696   -21155021.94349 -16179363.65247  20987058.932    20987067.356
  21337527.093   -19981888.42849 -15325179.39947  21337526.947    21337534.823
  23503413.946     7199901.72649   5873273.24246  23503413.835    23503424.278
  20312630.975   -24735146.05949 -19262393.56348  20312631.318    20312638.013
  23171224.578   -11044482.80749  -8268594.97546  23171224.075    23171235.530
  21658637.750    -7850942.53449  -6093671.84247  21658637.277    21658645.824
 03  3 18 20 31  0.0000000  0  6G10G 6G24G30G17G 5
  20988629.234   -21146773.57149 -16172936.32747  20988628.525    20988636.920
  21327675.523   -20033658.75449 -15365519.87247  21327675.378    21327683.195
  23519497.559     7284421.28149   5939132.51446  23519497.481    23519508.014
  20316507.455   -24714775.15149 -19246520.14248  20316507.784    20316514.490
  23157272.262   -11117802.56249  -8325727.12346  23157271.755    23157283.078
  21674407.823    -7768070.55449  -6029096.34947  21674407.350    21674415.917
 03  3 18 20 31 30.0000000  0  6G10G 6G24G30G17G 5
  20990319.967   -21137888.78449 -16166013.09847  20990319.234    20990327.594
  21317854.469   -20085268.69349 -15405735.36847  21317854.327    21317862.114
  23535585.199     7368962.54149   6005008.70846  23535585.154    23535595.774
  20320495.586   -24693817.47649 -19230189.50048  20320495.913    20320502.584
  23143360.834   -11190907.21649  -8382691.65846  23143360.315    23143371.656
  21690245.911    -7684841.34649  -5964242.49547  21690245.415    21690253.996
 03  3 18 20 32  0.0000000  0  6G10G 6G24G30G17G 5
  20992131.659   -21128368.40349 -16158594.59947  20992130.920    20992139.237
  21308064.071   -20136717.50449 -15445825.30247  21308063.924    21308071.670
  23551676.706     7453523.81549   6070900.51846  23551676.744    23551687.324
  20324595.195   -24672273.91949 -19213402.32648  20324595.525    20324602.203
  23129490.242   -11263797.01849  -8439488.81346  23129489.737    23129500.956
  21706151.449    -7601257.60049  -5899112.38347  21706150.934    21706159.535
 03  3 18 20 32 30.0000000  0  6G10G 6G24G30G17G 5
  20994064.161   -21118212.79249 -16150681.12447  20994063.462    20994071.714
  21298304.461   -20188004.07749 -15485788.81847  21298304.361    21298312.063
  23567771.811     7538103.96949   6136807.00646  23567771.831    23567782.477
  20328806.187   -24650144.98949 -19196159.02348  20328806.540    20328813.214
  23115660.612   -11336471.82049  -8496118.42246  23115660.151    23115671.251
  21722123.964    -7517321.62149  -5833707.80647  21722123.487    21722132.090
 03  3 18 20 33  0.0000000  0  6G10G 6G24G30G17G 5
  20996117.564   -21107422.17049 -16142272.83847  20996116.881    20996125.037
  21288576.054   -20239126.77749 -15525624.64247  21288575.966    21288583.649
  23583870.237     7622701.84349   6202727.32446  23583870.356    23583881.064
  20333128.575   -24627430.88049 -19178459.73348  20333128.918    20333135.553
  23101871.970   -11408930.77949  -8552579.84046  23101871.548    23101882.610
  21738163.177    -7433035.32549  -5768030.25247  21738162.703    21738171.318
 03  3 18 20 33 30.0000000  0  6G10G 6G24G30G17G 5
  20998291.657   -21095997.44449 -16133370.45047  20998290.946    20998299.049
  21278878.975   -20290084.93549 -15565332.24447  21278878.899    21278886.575
  23599971.942     7707316.11349   6268660.42246  23599971.899    23599982.696
  20337562.078   -24604132.78949 -19160305.39348  20337562.419    20337569.013
  23088124.473   -11481174.07249  -8608873.22146  23088123.994    23088135.075
  21754268.423    -7348401.77649  -5702082.11647  21754267.973    21754276.615
 03  3 18 20 34  0.0000000  0  6G10G 6G24G30G17G 5
  21000586.226   -21083939.25049 -16123974.45647  21000585.557    21000593.620
  21269213.452   -20340877.45549 -15604910.78447  21269213.330    21269221.014
  23616076.414     7791945.04549   6334604.92545  23616076.340    23616087.088
  20342106.581   -24580251.27949 -19141696.44048  20342106.922    20342113.493
  23074418.127   -11553201.10549  -8664998.07346  23074417.623    23074428.595
  21770439.393    -7263423.32649  -5635865.21847  21770438.889    21770447.579
 03  3 18 20 34 30.0000000  0  6G10G 6G24G30G17G 5
  21003001.206   -21071248.18149 -16114085.31447  21003000.585    21003008.647
  21259579.620   -20391503.22849 -15644359.38747  21259579.520    21259587.191
  23632183.419     7876587.22349   6400559.77345  23632183.280    23632194.063
  20346761.927   -24555787.26449 -19122633.58748  20346762.289    20346768.866
  23060752.943   -11625011.86949  -8720954.40146  23060752.394    23060763.380
  21786675.440    -7178102.21349  -5569381.31447  21786675.028    21786683.726
 03  3 18 20 35  0.0000000  0  6G10G 6G24G30G17G 5
  21005536.690   -21057924.21249 -16103703.00847  21005536.040    21005544.115
  21249977.877   -20441960.27249 -15683676.52047  21249977.797    21249985.457
  23648292.793     7961242.37749   6466524.76045  23648292.638    23648303.391
  20351528.204   -24530740.50849 -19103116.65148  20351528.550    20351535.133
  23047129.037   -11696605.59849  -8776741.61746  23047128.465    23047139.470
  21802976.458    -7092439.99949  -5502631.63547  21802976.033    21802984.831
 03  3 18 20 35 30.0000000  0  6G10G 6G24G30G17G 5
  21008192.548   -21043967.94749 -16092828.00947  21008191.851    21008199.877
  21240408.570   -20492247.25949 -15722861.12947  21240408.451    21240416.142
  23664404.405     8045909.54349   6532499.06145  23664404.294    23664415.212
  20356405.245   -24505111.60449 -19083146.09048  20356405.594    20356412.216
  23033546.554   -11767981.29049  -8832358.94046  23033546.068    23033556.975
  21819342.021    -7006438.99049  -5435617.93647  21819341.564    21819350.353
 03  3 18 20 36  0.0000000  0  6G10G 6G24G30G17G 5
  21010968.493   -21029380.32649 -16081461.04447  21010967.810    21010975.838
  21230871.735   -20542363.23049 -15761912.48447  21230871.643    21230879.359
  23680518.150     8130587.10149   6598481.47745  23680517.878    23680528.864
  20361392.825   -24478901.71349 -19062722.81448  20361393.181    20361399.829
  23020005.547   -11839139.30249  -8887806.63146  23020005.072    23020015.960
  21835771.452    -6920101.76849  -5368342.26547  21835771.010    21835779.875
 03  3 18 20 36 30.0000000  0  6G10G 6G24G30G17G 5
  21013864.416   -21014162.18649 -16069602.76747  21013863.735    21013871.795
  21221367.628   -20592307.39349 -15800829.96747  21221367.563    21221375.297
  23696633.271     8215273.07049   6664470.43745  23696633.152    23696644.213
  20366490.787   -24452111.86449 -19041847.62648  20366491.142    20366497.782
  23006505.961   -11910079.53749  -8943084.63646  23006505.518    23006516.425
  21852264.308    -6833431.19149  -5300806.84747  21852263.892    21852272.815
 03  3 18 20 37  0.0000000  0  6G10G 6G24G30G17G 5
  21016880.216   -20998314.34449 -16057253.80847  21016879.487    21016887.546
  21211896.473   -20642078.54749 -15839612.63947  21211896.400    21211904.121
  23712749.989     8299966.36049   6730465.12745  23712749.804    23712760.903
  20371698.948   -24424742.92749 -19020521.19648  20371699.316    20371705.919
  22993048.042   -11980801.59549  -8998192.62146  22993047.554    22993058.368
  21868820.200    -6746429.58049  -5233013.46847  21868819.771    21868828.725
 03  3 18 20 37 30.0000000  0  6G10G 6G24G30G17G 5
  21020015.589   -20981837.72549 -16044414.89147  21020014.877    21020022.948
  21202458.447   -20691675.69149 -15878259.72147  21202458.374    21202466.064
  23728867.775     8384665.47749   6796464.32145  23728867.637    23728878.711
  20377017.111   -24396796.03949 -18998744.41748  20377017.464    20377024.085
  22979631.591   -12051305.18149  -9053130.36346  22979631.073    22979641.918
  21885438.674    -6659099.56249  -5164964.17947  21885438.226    21885447.182
 03  3 18 20 38  0.0000000  0  6G10G 6G24G30G17G 5
  21023270.649   -20964732.36149 -16031086.04847  21023269.913    21023278.007
  21193053.948   -20741096.79849 -15916769.63247  21193053.834    21193061.528
  23744986.632     8469369.97349   6862467.73245  23744986.508    23744997.399
  20382445.283   -24368271.02449 -18976517.15648  20382445.626    20382452.245
  22966256.871   -12121589.56349  -9107897.30346  22966256.351    22966267.159
  21902119.277    -6571442.61549  -5096660.15447  21902118.848    21902127.804
 03  3 18 20 38 30.0000000  0  6G10G 6G24G30G17G 5
  21026645.286   -20946998.71349 -16017267.62747  21026644.517    21026652.622
  21183683.222   -20790340.31649 -15955141.16347  21183683.121    21183690.763
  23761106.270     8554078.97749   6928474.64045  23761106.169    23761117.099
  20387983.317   -24339168.64349 -18953839.99348  20387983.653    20387990.279
  22952923.850   -12191654.68449  -9162493.38746  22952923.342    22952934.115
  21918861.662    -6483461.15649  -5028103.26747  21918861.198    21918870.190
 03  3 18 20 39  0.0000000  0  6G10G 6G24G30G17G 5
  21030139.189   -20928637.86749 -16002960.47747  21030138.468    21030146.539
  21174346.454   -20839405.20449 -15993373.51047  21174346.375    21174353.967
  23777226.546     8638791.12849   6994483.98045  23777226.518    23777237.361
  20393630.974   -24309489.95149 -18930713.75448  20393631.313    20393637.972
  22939632.633   -12261499.84149  -9216918.06146  22939632.114    22939642.888
  21935665.334    -6395157.80849  -4959295.54947  21935664.875    21935673.895
 03  3 18 20 39 30.0000000  0  6G10G 6G24G30G17G 5
  21033752.278   -20909651.32149 -15988165.76247  21033751.497    21033759.559
  21165043.868   -20888290.80249 -16031466.15147  21165043.755    21165051.335
  23793347.281     8723504.85549   7060494.57745  23793347.158    23793358.030
  20399388.059   -24279236.38349 -18907139.56448  20399388.417    20399395.100
  22926383.200   -12331125.33849  -9271171.57146  22926382.745    22926393.485
  21952529.715    -6306535.43749  -4890239.24147  21952529.220    21952538.233
 03  3 18 20 40  0.0000000  0  6G10G 6G24G30G17G 5
  21037484.261   -20890039.41249 -15972883.74447  21037483.533    21037491.586
  21155775.575   -20936995.37649 -16069417.73147  21155775.502    21155783.086
  23809468.051     8808219.26549   7126505.66545  23809467.828    23809478.774
  20405254.444   -24248408.38749 -18883117.76848  20405254.776    20405261.482
  22913175.747   -12400530.36049  -9325253.26646  22913175.269    22913186.019
  21969454.374    -6217596.11749  -4820935.95647  21969453.913    21969462.906
 03  3 18 20 40 30.0000000  0  6G10G 6G24G30G17G 5
  21041334.939   -20869803.86849 -15957115.78147  21041334.217    21041342.235
  21146541.904   -20985518.42849 -16107227.87347  21146541.824    21146549.440
  23825588.639     8892932.36349   7192515.79545  23825588.329    23825599.114
  20411229.791   -24217007.70149 -18858649.72348  20411230.139    20411236.855
  22900010.114   -12469715.76149  -9379163.83146  22900009.633    22900020.369
  21986438.767    -6128343.00549  -4751388.16847  21986438.275    21986447.288
 03  3 18 20 41  0.0000000  0  6G10G 6G24G30G17G 5
  21045304.337   -20848944.53249 -15940861.74547  21045303.629    21045311.653
  21137343.211   -21033857.65549 -16144894.77247  21137343.122    21137350.740
  23841708.863     8977644.26249   7258524.91045  23841708.648    23841719.454
  20417314.146   -24185034.34849 -18833735.44248  20417314.477    20417321.181
  22886886.531   -12538680.10449  -9432902.12646  22886886.059    22886896.777
  22003482.560    -6038777.68249  -4681597.09047  22003482.126    22003491.077
 03  3 18 20 41 30.0000000  0  6G10G 6G24G30G17G 5
  21049392.129   -20827463.20349 -15924123.03047  21049391.360    21049399.412
  21128179.576   -21082012.80749 -16182418.23447  21128179.496    21128187.077
  23857828.549     9062352.42449   7324531.11645  23857828.180    23857839.027
  20423507.086   -24152490.32949 -18808376.48248  20423507.400    20423514.100
  22873804.917   -12607424.08749  -9486468.72746  22873804.455    22873815.146
  22020585.070    -5948903.63549  -4611565.45447  22020584.646    22020593.623
 03  3 18 20 42  0.0000000  0  6G10G 6G24G30G17G 5
  21053598.127   -20805360.40249 -15906900.05247  21053597.408    21053605.421
  21119051.365   -21129981.82349 -16219796.65647  21119051.275    21119058.848
  23873947.303     9147056.44749   7390534.13945  23873946.970    23873957.800
  20429808.557   -24119375.90749 -18782573.05548  20429808.888    20429815.592
  22860765.393   -12675946.70249  -9539862.83246  22860764.932    22860775.593
  22037746.023    -5858722.56549  -4541294.57247  22037745.616    22037754.578
 03  3 18 20 42 30.0000000  0  6G10G 6G24G30G17G 5
  21057922.362   -20782636.31249 -15889192.96447  21057921.644    21057929.679
  21109958.930   -21177762.52949 -16257028.34647  21109958.860    21109966.440
  23890065.253     9231756.32749   7456533.91945  23890065.002    23890075.742
  20436218.544   -24085691.34049 -18756325.36348  20436218.860    20436225.596
  22847768.092   -12744247.09249  -9593083.78546  22847767.680    22847778.307
  22054965.101    -5768236.23349  -4470785.83247  22054964.675    22054973.697
 03  3 18 20 43  0.0000000  0  6G10G 6G24G30G17G 5
  21062364.573   -20759292.03949 -15871002.61647  21062363.899    21062371.969
  21100902.475   -21225354.04849 -16294112.61447  21100902.449    21100910.025
  23906182.103     9316450.81049   7522529.47345  23906181.944    23906192.730
  20442736.735   -24051438.00649 -18729634.47648  20442737.047    20442743.827
  22834813.167   -12812325.24249  -9646131.56046  22834812.768    22834823.344
  22072241.775    -5677447.35149  -4400041.33547  22072241.335    22072250.355
 03  3 18 20 43 30.0000000  0  6G10G 6G24G30G17G 5
  21066924.498   -20735329.75949 -15852330.70547  21066923.782    21066931.871
  21091882.166   -21272756.00649 -16331049.17447  21091882.134    21091889.718
  23922297.579     9401137.35549   7588518.84545  23922297.428    23922308.244
  20449362.839   -24016617.81849 -18702501.88448  20449363.160    20449369.905
  22821900.428   -12880182.03549  -9699006.86146  22821899.908    22821910.481
  22089575.287    -5586359.29249  -4329063.71947  22089574.805    22089583.914
 03  3 18 20 44  0.0000000  0  6G10G 6G24G30G17G 5
  21071601.836   -20710750.13049 -15833177.74247  21071601.104    21071609.209
  21082898.252   -21319966.70349 -16367836.70147  21082898.203    21082905.816
  23938411.415     9485815.44749   7654501.64545  23938411.232    23938422.014
  20456096.628   -23981231.62249 -18674928.24548  20456096.959    20456103.675
  22809029.895   -12947816.51149  -9751708.93046  22809029.398    22809039.977
  22106965.340    -5494974.07249  -4257854.54247  22106964.937    22106974.084
 03  3 18 20 44 30.0000000  0  6G10G 6G24G30G17G 5
  21076396.592   -20685553.41949 -15813543.93747  21076395.855    21076404.010
  21073951.205   -21366984.00949 -16404473.52347  21073951.127    21073958.718
  23954523.502     9570484.80449   7720477.62545  23954523.358    23954534.295
  20462938.028   -23945279.74249 -18646913.81048  20462938.363    20462945.069
  22796201.788   -13015227.91649  -9804237.18046  22796201.298    22796211.896
  22124411.683    -5403293.38449  -4186415.12947  22124411.278    22124420.411
 03  3 18 20 45  0.0000000  0  6G10G 6G24G30G17G 5
  21081308.421   -20659741.50149 -15793430.75147  21081307.684    21081315.875
  21065041.054   -21413807.24749 -16440959.13247  21065040.966    21065048.549
  23970633.565     9655143.73949   7786445.46345  23970633.475    23970644.500
  20469886.767   -23908763.84149 -18618459.88548  20469887.102    20469893.854
  22783416.086   -13082416.79449  -9856592.02646  22783415.550    22783426.174
  22141913.645    -5311320.48049  -4114748.02347  22141913.222    22141922.428
 03  3 18 20 45 30.0000000  0  6G10G 6G24G30G17G 5
  21086337.215   -20633314.77049 -15772838.49747  21086336.523    21086344.710
  21056168.152   -21460434.62349 -16477292.12147  21056168.058    21056175.616
  23986741.663     9739791.78949   7852404.82845  23986741.574    23986752.678
  20476942.682   -23871684.78749 -18589567.13748  20476943.017    20476949.755
  22770672.854   -13149382.33849  -9908772.85846  22770672.362    22770682.919
  22159470.827    -5219057.28649  -4042854.71047  22159470.358    22159479.589
 03  3 18 20 46  0.0000000  0  6G10G 6G24G30G17G 5
  21091482.694   -20606275.51849 -15751768.94347  21091481.931    21091490.078
  21047332.551   -21506865.87649 -16513472.28147  21047332.455    21047339.994
  24002847.149     9824426.76749   7918354.02445  24002847.214    24002858.236
  20484105.374   -23834044.72849 -18560237.24148  20484105.719    20484112.401
  22757971.997   -13216125.41449  -9960780.35146  22757971.454    22757982.001
  22177082.584    -5126507.35149  -3970737.96147  22177082.095    22177091.352
 03  3 18 20 46 30.0000000  0  6G10G 6G24G30G17G 5
  21096744.502   -20578624.06749 -15730222.36147  21096743.818    21096751.975
  21038534.755   -21553098.61549 -16549497.75747  21038534.606    21038542.153
  24018950.228     9909048.33549   7984292.77045  24018950.197    24018961.298
  20491374.740   -23795844.09249 -18530470.53247  20491375.076    20491381.774
  22745313.703   -13282644.80549 -10012613.55346  22745313.158    22745323.698
  22194748.570    -5033672.28149  -3898399.02947  22194748.106    22194757.401
 03  3 18 20 47  0.0000000  0  6G10G 6G24G30G17G 5
  21102122.655   -20550361.94549 -15708199.92447  21102121.935    21102130.064
  21029774.880   -21599131.60449 -16585367.58047  21029774.780    21029782.341
  24035050.510     9993655.62249   8050220.37845  24035050.540    24035061.635
  20498750.471   -23757084.12449 -18500267.98147  20498750.830    20498757.570
  22732697.924   -13348940.60049 -10064272.52846  22732697.451    22732707.888
  22212468.312    -4940554.77649  -3825840.00746  22212467.839    22212477.126
 03  3 18 20 47 30.0000000  0  6G10G 6G24G30G17G 5
  21107616.599   -20521490.95249 -15685703.04747  21107615.902    21107624.007
  21021053.231   -21644964.08349 -16621081.17047  21021053.128    21021060.688
  24051147.956    10078247.10049   8116135.65145  24051147.927    24051159.017
  20506232.302   -23717766.82749 -18469631.15447  20506232.651    20506239.439
  22720124.610   -13415013.03749 -10115757.42346  22720124.176    22720134.593
  22230241.161    -4847157.99149  -3753063.38546  22230240.685    22230250.047
 03  3 18 20 48  0.0000000  0  6G10G 6G24G30G17G 5
  21113226.242   -20492011.90249 -15662732.35747  21113225.558    21113233.680
  21012370.060   -21690594.48149 -16656637.28547  21012369.939    21012377.473
  24067242.126    10162822.05249   8182038.07745  24067242.095    24067253.300
  20513820.068   -23677892.88749 -18438560.57047  20513820.418    20513827.217
  22707594.140   -13480861.06549 -10167067.45046  22707593.700    22707603.992
  22248066.772    -4753483.96549  -3680070.71746  22248066.304    22248075.708
 03  3 18 20 48 30.0000000  0  6G10G 6G24G30G17G 5
  21118951.427   -20461926.04049 -15639288.82247  21118950.725    21118958.839
  21003725.599   -21736021.28249 -16692034.75947  21003725.484    21003733.021
  24083332.910    10247379.38149   8247926.73445  24083332.836    24083344.205
  20521513.510   -23637463.65949 -18407057.30047  20521513.852    20521520.660
  22695106.148   -13546485.47049 -10218203.20846  22695105.705    22695115.961
  22265944.670    -4659535.12149  -3606863.90446  22265944.217    22265953.613
 03  3 18 20 49  0.0000000  0  6G10G 6G24G30G17G 5
  21124791.776   -20431234.72049 -15615373.50947  21124791.062    21124799.209
  20995120.206   -21781243.08849 -16727272.50147  20995120.061    20995127.599
  24099420.290    10331918.24249   8313801.03145  24099420.158    24099431.528
  20529312.355   -23596480.33849 -18375122.26947  20529312.713    20529319.523
  22682660.832   -13611885.57849 -10269164.21546  22682660.381    22682670.643
  22283874.354    -4565314.17349  -3533445.08246  22283873.895    22283883.384
 03  3 18 20 49 30.0000000  0  6G10G 6G24G30G17G 5
  21130746.896   -20399940.02749 -15590988.03847  21130746.229    21130754.422
  20986553.881   -21826259.19049 -16762349.94847  20986553.741    20986561.296
  24115503.647    10416436.90349   8379659.58245  24115503.594    24115514.925
  20537216.274   -23554945.02949 -18342757.11947  20537216.611    20537223.460
  22670258.164   -13677061.55749 -10319950.54246  22670257.688    22670267.960
  22301855.304    -4470824.22749  -3459816.64446  22301854.827    22301864.264
 03  3 18 20 50  0.0000000  0  6G10G 6G24G30G17G 5
  21136816.812   -20368042.67249 -15566132.96247  21136816.097    21136824.296
  20978027.066   -21871067.49149 -16797265.47647  20978026.974    20978034.527
  24131583.229    10500935.36749   8445502.38145  24131583.113    24131594.583
  20545225.058   -23512858.54149 -18309962.47047  20545225.406    20545232.311
  22657898.244   -13742013.23049 -10370562.09246  22657897.724    22657907.951
  22319887.057    -4376067.11749  -3385980.02946  22319886.534    22319896.048
 03  3 18 20 50 30.0000000  0  6G10G 6G24G30G17G 5
  21143001.218   -20335543.33349 -15540808.80047  21143000.475    21143008.690
  20969540.201   -21915666.02249 -16832017.54947  20969540.119    20969547.651
  24147658.858    10585412.94949   8511328.93245  24147658.843    24147670.148
  20553338.639   -23470221.68849 -18276738.97647  20553338.989    20553345.908
  22645581.134   -13806739.63749 -10420998.12146  22645580.651    22645590.786
  22337969.276    -4281044.68549  -3311936.66646  22337968.776    22337978.311
 03  3 18 20 51  0.0000000  0  6G10G 6G24G30G17G 5
  21149299.670   -20302444.49349 -15515017.50147  21149298.955    21149307.179
  20961093.390   -21960054.29249 -16866605.78247  20961093.287    20961100.788
  24163730.247    10669867.86849   8577137.82545  24163730.228    24163741.581
  20561556.482   -23427036.68849 -18243088.34847  20561556.820    20561563.733
  22633306.698   -13871241.68449 -10471259.30946  22633306.228    22633316.305
  22356101.192    -4185760.57349  -3237689.40346  22356100.723    22356110.382
 03  3 18 20 51 30.0000000  0  6G10G 6G24G30G17G 5
  21155711.949   -20268747.53249 -15488760.13447  21155711.286    21155719.535
  20952686.813   -22004230.98049 -16901029.14647  20952686.727    20952694.219
  24179797.217    10754299.12349   8642928.23945  24179797.074    24179808.580
  20569878.380   -23383305.11849 -18209011.82347  20569878.709    20569885.614
  22621075.032   -13935518.92649 -10521345.32546  22621074.526    22621084.577
  22374282.499    -4090217.27649  -3163240.18246  22374282.077    22374291.779
 03  3 18 20 52  0.0000000  0  7G10G 6G23G24G30G17G 5
  21162237.310   -20234456.59749 -15462039.92847  21162236.629    21162244.887
  20944320.296   -22048197.22049 -16935288.52547  20944320.209    20944327.678
  24485103.316    -4367150.47849  -3362667.08145  24485102.916    24485119.635
  24195859.047    10838703.20249   8708697.51645  24195858.875    24195870.279
  20578303.494   -23339030.98049 -18174512.52147  20578303.817    20578310.693
  22608885.617   -13999574.28249 -10571258.45146  22608885.085    22608895.121
  22392512.181    -3994420.10749  -3088593.13846  22392511.717    22392521.482
 03  3 18 20 52 30.0000000  0  7G10G 6G23G24G30G17G 5
  21168874.159   -20199579.62949 -15434863.07247  21168873.484    21168881.727
  20935992.861   -22091958.15749 -16969387.93247  20935992.774    20936000.215
  24464361.876    -4476145.83649  -3447598.11845  24464361.526    24464378.404
  24211914.111    10923072.76349   8774439.88745  24211913.910    24211925.447
  20586830.314   -23294222.38549 -18139596.75947  20586830.644    20586837.563
  22596737.237   -14063413.95449 -10621003.51346  22596736.715    22596746.736
  22410788.414    -3898378.26549  -3013755.43446  22410787.944    22410797.694
 03  3 18 20 53  0.0000000  0  7G10G 6G23G24G30G17G 5
  21175625.321   -20164102.34649 -15407218.44147  21175624.600    21175632.794
  20927707.717   -22135496.81649 -17003314.14047  20927707.610    20927715.066
  24443632.187    -4585079.36549  -3532481.04545  24443631.776    24443648.526
  24227965.302    11007422.03749   8840166.44945  24227965.138    24227976.799
  20595461.548   -23248865.09449 -18104253.44547  20595461.878    20595468.812
  22584632.882   -14127022.04849 -10670568.12646  22584632.375    22584642.331
  22429113.692    -3802078.62449  -2938716.85446  22429113.218    22429122.976
 03  3 18 20 53 30.0000000  0  7G10G 6G23G24G30G17G 5
  21182489.853   -20128029.03949 -15379109.37247  21182489.158    21182497.289
  20919464.597   -22178814.48449 -17037068.14147  20919464.506    20919471.955
  24422914.406    -4693950.96149  -3617315.63845  24422913.919    24422930.463
  24244012.043    11091748.19349   8905874.96945  24244011.849    24244023.721
  20604196.386   -23202963.29649 -18068485.83647  20604196.721    20604203.642
  22572572.231   -14190401.03449 -10719954.21946  22572571.674    22572581.572
  22447487.051    -3705526.20049  -2863481.30246  22447486.598    22447496.415
 03  3 18 20 54  0.0000000  0  7G10G 6G23G24G30G17G 5
  21189467.085   -20091363.72649 -15350539.00147  21189466.338    21189474.437
  20911263.474   -22221911.81949 -17070650.45547  20911263.384    20911270.778
  24402208.596    -4802760.23049  -3702101.63545  24402208.014    24402224.439
  24260053.869    11176048.13849   8971563.08745  24260053.794    24260065.562
  20613034.079   -23156520.82849 -18032296.92247  20613034.423    20613041.372
  22560554.581   -14253553.62049 -10769163.90346  22560554.054    22560563.904
  22465907.654    -3608725.83549  -2788052.53246  22465907.176    22465917.004
 03  3 18 20 54 30.0000000  0  7G10G 6G23G24G30G17G 5
  21196556.549   -20054108.14649 -15321508.68447  21196555.800    21196563.889
  20903104.491   -22264787.71549 -17104060.22247  20903104.382    20903111.720
  24381514.617    -4911505.15549  -3786837.53745  24381513.931    24381530.742
  24276090.480    11260320.11349   9037229.43545  24276090.333    24276102.057
  20621974.404   -23109539.34849 -17995687.99647  20621974.724    20621981.739
  22548579.982   -14316479.89449 -10818197.23946  22548579.454    22548589.264
  22484374.833    -3511680.48449  -2712432.88346  22484374.411    22484384.231
 03  3 18 20 55  0.0000000  0  7G10G 6G23G24G30G17G 5
  21203758.017   -20016264.03149 -15292019.76447  21203757.274    21203765.402
  20894987.853   -22307440.84849 -17137296.40748  20894987.771    20894995.080
  24360833.524    -5020183.13349  -3871521.19445  24360832.936    24360849.588
  24292121.683    11344563.24149   9102873.27945  24292121.394    24292133.237
  20631016.947   -23062020.64249 -17958660.46847  20631017.284    20631024.290
  22536648.471   -14379179.64249 -10867054.09146  22536647.974    22536657.768
  22502888.113    -3414392.87549  -2636624.46246  22502887.655    22502897.533
 03  3 18 20 55 30.0000000  0  7G10G 6G23G24G30G17G 5
  21211071.078   -19977833.66849 -15262074.03847  21211070.332    21211078.488
  20886913.731   -22349870.66049 -17170358.57348  20886913.631    20886920.939
  24340165.687    -5128792.58249  -3956151.50045  24340165.105    24340181.604
  24308147.095    11428776.09149   9168493.53645  24308146.690    24308158.636
  20640161.239   -23013967.17949 -17921216.23847  20640161.593    20640168.570
  22524760.007   -14441653.25349 -10915734.73646  22524759.534    22524769.322
  22521446.779    -3316866.47549  -2560629.96346  22521446.377    22521456.187
 03  3 18 20 56  0.0000000  0  7G10G 6G23G24G30G17G 5
  21218495.459   -19938818.59249 -15231672.68847  21218494.702    21218502.822
  20878882.330   -22392075.61649 -17203245.52547  20878882.251    20878889.580
  24319511.229    -5237330.96749  -4040726.42345  24319510.603    24319527.014
  24324166.437    11512957.39149   9234089.18945  24324166.010    24324177.941
  20649406.960   -22965380.65849 -17883356.64047  20649407.313    20649414.275
  22512914.504   -14503901.06549 -10964239.41946  22512914.064    22512923.886
  22540050.453    -3219103.76249  -2484451.33246  22540050.038    22540059.885
 03  3 18 20 56 30.0000000  0  7G10G 6G23G24G30G17G 5
  21226030.690   -19899220.43449 -15200816.98147  21226029.955    21226038.081
  20870894.068   -22434053.90649 -17235955.85347  20870893.991    20870901.353
  24298870.948    -5345795.44149  -4125243.82145  24298870.333    24298886.492
  24340179.589    11597107.05249   9299660.18545  24340179.245    24340191.274
  20658753.864   -22916262.30549 -17845082.62347  20658754.222    20658761.176
  22501112.216   -14565922.27149 -11012567.53846  22501111.735    22501121.538
  22558698.659    -3121106.98449  -2408090.31446  22558698.248    22558708.106
 03  3 18 20 57  0.0000000  0  8G10G 6G29G23G24G30G17G 5
  21233675.886   -19859044.54649 -15169511.10247  21233675.153    21233683.300
  20862948.499   -22475807.85149 -17268491.36947  20862948.441    20862955.828
  24646010.184    -2361855.51849  -1818527.18445  24646009.982    24646025.486
  24278244.139    -5454187.28149  -4209704.57845  24278243.493    24278259.466
  24356185.961    11681220.62949   9365203.07845  24356185.694    24356197.784
  20668201.014   -22866617.46549 -17806398.36547  20668201.362    20668208.290
  22489352.301   -14627721.02349 -11060722.32546  22489351.776    22489361.524
  22577390.249    -3022882.40349  -2331551.79046  22577389.808    22577399.680
 03  3 18 20 57 30.0000000  0  8G10G 6G29G23G24G30G17G 5
  21241431.719   -19818287.69249 -15137752.51547  21241430.983    21241439.099
  20855046.867   -22517330.99149 -17300847.03147  20855046.812    20855054.202
  24632477.130    -2432970.47449  -1873941.12745  24632477.002    24632492.581
  24257632.801    -5562498.67649  -4294102.75445  24257632.240    24257648.080
  24372186.365    11765301.96749   9430720.86645  24372185.976    24372197.960
  20677748.994   -22816442.84149 -17767301.28347  20677749.322    20677756.283
  22477635.563   -14689292.31149 -11108699.86146  22477635.047    22477644.761
  22596125.644    -2924427.68149  -2254833.93846  22596125.208    22596135.131
 03  3 18 20 58  0.0000000  0  8G10G 6G29G23G24G30G17G 5
  21249297.592   -19776952.31649 -15105543.13247  21249296.828    21249304.950
  20847189.307   -22558622.66149 -17333022.32947  20847189.241    20847196.640
  24618960.034    -2504000.72449  -1929289.06045  24618959.871    24618975.723
  24237036.992    -5670728.06449  -4378437.03645  24237036.549    24237052.189
  24388180.275    11849349.72649   9496212.45445  24388179.924    24388191.909
  20687397.313   -22765740.85249 -17727793.27447  20687397.643    20687404.574
  22465962.146   -14750636.13649 -11156500.16146  22465961.629    22465971.318
  22614904.182    -2825746.16849  -2177939.36346  22614903.708    22614913.733
 03  3 18 20 58 30.0000000  0  8G10G 6G29G23G24G30G17G 5
  21257273.115   -19735040.58549 -15072884.65147  21257272.366    21257280.478
  20839375.977   -22599681.88549 -17365016.50448  20839375.900    20839383.316
  24605459.611    -2574943.68649  -1984568.97245  24605459.375    24605475.403
  24216457.426    -5778873.46849  -4462705.90045  24216456.996    24216472.447
  24404167.544    11933362.57949   9561676.86445  24404167.117    24404179.118
  20697145.535   -22714513.74249 -17687876.07247  20697145.854    20697152.781
  22454331.785   -14811753.60849 -11204124.08646  22454331.300    22454341.000
  22633725.377    -2726841.04549  -2100870.53046  22633724.918    22633734.887
 03  3 18 20 59  0.0000000  0  8G10G 6G29G23G24G30G17G 5
  21265357.955   -19692554.57549 -15039778.67947  21265357.200    21265365.310
  20831607.187   -22640507.44049 -17396828.59548  20831607.069    20831614.480
  24591976.383    -2645796.71049  -2039778.82945  24591976.299    24591992.087
  24195894.203    -5886932.46949  -4546907.44545  24195893.782    24195909.403
  24420147.929    12017339.33649   9627113.13645  24420147.474    24420159.631
  20706993.223   -22662763.60049 -17647551.31547  20706993.577    20707000.518
  22442744.563   -14872644.57549 -11251571.51847  22442744.082    22442753.736
  22652588.470    -2627715.01449  -2023629.58446  22652588.030    22652598.049
 03  3 18 20 59 30.0000000  0  8G10G 6G29G23G24G30G17G 5
  21273551.578   -19649496.68149 -15006227.09147  21273550.837    21273558.983
  20823883.013   -22681098.09649 -17428457.64848  20823882.946    20823890.343
  24578510.871    -2716557.01749  -2094916.43545  24578510.901    24578526.813
  24175347.885    -5994902.92049  -4631040.01145  24175347.446    24175363.107
  24436121.156    12101278.96649   9692520.48045  24436120.795    24436133.003
  20716940.085   -22610492.42749 -17606820.56047  20716940.451    20716947.460
  22431200.377   -14933309.54449 -11298842.84947  22431199.903    22431209.450
  22671493.099    -2528371.02349  -1946218.79146  22671492.682    22671502.722
 03  3 18 21  0  0.0000000  0  8G10G 6G29G23G24G30G17G 5
  21281853.848   -19605867.90349 -14972230.64447  21281853.120    21281861.262
  20816203.985   -22721451.83749 -17459902.08948  20816203.882    20816211.241
  24565063.734    -2787221.54349  -2149979.41445  24565063.621    24565079.326
  24154818.912    -6102781.73649  -4715101.21745  24154818.488    24154834.181
  24452087.320    12185180.93049   9757898.49145  24452086.943    24452099.146
  20726985.857   -22557701.74849 -17565684.99647  20726986.226    20726993.270
  22419699.324   -14993747.93049 -11345937.62047  22419698.826    22419708.296
  22690438.886    -2428811.17749  -1868639.79646  22690438.426    22690448.449
 03  3 18 21  0 30.0000000  0  8G10G 6G29G23G24G30G17G 5
  21290264.344   -19561670.82949 -14937791.38647  21290263.617    21290271.713
  20808570.099   -22761567.94549 -17491161.36148  20808569.997    20808577.348
  24551635.287    -2857787.71549  -2204965.74045  24551635.297    24551650.828
  24134307.810    -6210567.07349  -4799089.57645  24134307.477    24134322.966
  24468045.950    12269044.00549   9823246.20345  24468045.565    24468057.850
  20737130.064   -22504393.81349 -17524146.37747  20737130.413    20737137.428
  22408241.315   -15053959.89249 -11392855.96747  22408240.808    22408250.322
  22709425.074    -2329038.91449  -1790895.29546  22709424.582    22709434.595
 03  3 18 21  1  0.0000000  0  8G10G 6G29G23G24G30G17G 5
  21298782.649   -19516906.79249 -14902910.32747  21298781.910    21298790.033
  20800981.826   -22801444.50449 -17522233.97348  20800981.720    20800989.089
  24538226.368    -2928252.10549  -2259872.81645  24538226.270    24538241.640
  24113815.354    -6318255.81349  -4883002.64745  24113814.734    24113830.162
  24483996.964    12352867.66749   9888563.19045  24483996.792    24484009.075
  20747372.481   -22450569.98749 -17482205.76147  20747372.813    20747379.840
  22396826.354   -15113945.62149 -11439598.02447  22396825.860    22396835.375
  22728451.217    -2229056.14649  -1712986.77146  22728450.741    22728460.838
 03  3 18 21  1 30.0000000  0  8G10G 6G29G23G24G30G17G 5
  21307408.498   -19471577.56149 -14867588.86647  21307407.798    21307415.908
  20793439.413   -22841079.81549 -17553118.59948  20793439.322    20793446.723
  24524837.124    -2998611.67849  -2314698.18445  24524837.128    24524852.410
  24093341.551    -6425845.36149  -4966838.43745  24093340.967    24093356.116
  24499940.543    12436651.49549   9953849.13445  24499940.214    24499952.787
  20757712.659   -22396231.91149 -17439864.43047  20757713.004    20757720.047
  22385454.407   -15173705.05749 -11486163.74947  22385453.943    22385463.432
  22747516.904    -2128865.68549  -1634916.40646  22747516.442    22747526.515
 03  3 18 21  2  0.0000000  0  8G10G 6G29G23G24G30G17G 5
  21316141.552   -19425685.36049 -14831828.73047  21316140.813    21316148.917
  20785943.130   -22880472.78549 -17583814.39048  20785943.051    20785950.481
  24511468.700    -3068863.77149  -2369439.83545  24511468.664    24511483.630
  24072886.775    -6533333.46449  -5050595.09545  24072886.349    24072901.632
  24515876.293    12520394.44249  10019103.24345  24515876.063    24515888.689
  20768150.306   -22341381.95049 -17397124.23347  20768150.648    20768157.730
  22374125.509   -15233238.50149 -11532553.38147  22374125.055    22374134.534
  22766621.573    -2028470.47849  -1556686.48346  22766621.136    22766631.169
